[[{"header":{"parameterUnit":"m.s-1","parameterCategory":1,"la1":31.0,"la2":29.5877,"lo1":-88.7671,"lo2":-86.6584,"dy":0.0162,"dx":0.0185,"nx":115,"ny":88,"refTime":"2024-07-25T06:00:00:Z","depth":0,"parameterNumber":2,"parameterNumberName":"U-component_of_WINDS"},"data":[0.0,0.0,0.0,0.0,0.0,0.0,0.0,0.0,0.0,0.0,0.0,0.0,0.0,0.0,0.0,0.0,0.0,0.0,0.0,0.0,0.0,0.0,0.0,0.0,0.0,0.0,0.0,0.0,0.0,0.0,0.0,0.0,0.0,0.0,0.0,0.0,0.0,0.0,0.0,0.0,0.0,0.0,0.0,0.0,0.0,0.0,0.0,0.0,0.0,0.0,0.0,0.0,0.0,0.0,0.0,0.0,0.0,0.0,0.0,0.0,0.0,0.0,0.0,0.0,0.0,0.0,0.0,0.0,0.0,0.0,0.0,0.0,0.0,0.0,0.0,0.0,0.0,0.0,0.0,0.0,0.0,0.0,0.0,0.0,0.0,0.0,0.0,0.0,0.0,0.0,0.0,0.0,0.0,0.0,0.0,0.0,0.0,0.0,0.0,0.0,0.0,0.0,0.0,0.0,0.0,0.0,0.0,0.0,0.0,0.0,0.0,0.0,0.0,0.0,0.0,0.0,0.0,0.0,0.0,0.0,0.0,0.0,0.0,0.0,0.0,0.0,0.0,0.0,0.0,0.0,0.0,0.0,0.0,0.0,0.0,0.0,0.0,0.0,0.0,0.0,0.0,0.0,0.0,0.0,0.0,0.0,0.0,0.0,0.0,0.0,0.0,0.0,0.0,0.0,0.0,0.0,0.0,0.0,0.0,0.0,0.0,0.0,0.0,0.0,0.0,0.0,0.0,0.0,0.0,0.0,0.0,0.0,0.0,0.0,0.0,0.0,0.0,0.0,0.0,0.0,0.0,0.0,0.0,0.0,0.0,0.0,0.0,0.0,0.0,0.0,0.0,0.0,0.0,0.0,0.0,0.0,0.0,0.0,0.0,0.0,0.0,0.0,0.0,0.0,0.0,0.0,0.0,0.0,0.0,0.0,0.0,0.0,0.0,0.0,0.0,0.0,0.0,0.0,0.0,0.0,0.0,0.0,0.0,0.0,0.0,0.0,0.0,0.0,0.0,0.0,0.0,0.0,0.0,0.0,0.0,0.0,0.0,0.0,0.0,0.0,0.0,0.0,0.0,0.0,0.0,0.0,0.0,0.0,0.0,0.0,0.0,0.0,0.0,0.0,0.0,0.0,0.0,0.0,0.0,0.0,0.0,0.0,0.0,0.0,0.0,0.0,0.0,0.0,0.0,0.0,0.0,0.0,0.0,0.0,0.0,0.0,0.0,0.0,0.0,0.0,0.0,0.0,0.0,0.0,0.0,0.0,0.0,0.0,0.0,0.0,0.0,0.0,0.0,0.0,0.0,0.0,0.0,0.0,0.0,0.0,0.0,0.0,0.0,0.0,0.0,0.0,0.0,0.0,0.0,0.0,0.0,0.0,0.0,0.0,0.0,0.0,0.0,0.0,0.0,0.0,0.0,0.0,0.0,0.0,0.0,0.0,0.0,0.0,0.0,0.0,0.0,0.0,0.0,0.0,0.0,0.0,0.0,0.0,0.0,0.0,0.0,0.0,0.0,0.0,0.0,0.0,0.0,0.0,0.0,0.0,0.0,0.0,0.0,0.0,0.0,0.0,0.0,0.0,0.0,0.0,0.0,0.0,0.0,0.0,0.0,0.0,0.0,0.0,0.0,0.0,0.0,0.0,0.0,0.0,0.0,0.0,0.0,0.0,0.0,0.0,0.0,0.0,0.0,0.0,0.0,0.0,0.0,0.0,0.0,0.0,0.0,0.0,0.0,0.0,0.0,0.0,0.0,0.0,0.0,0.0,0.0,0.0,0.0,0.0,0.0,0.0,0.0,0.0,0.0,0.0,0.0,0.0,0.0,0.0,0.0,0.0,0.0,0.0,0.0,0.0,0.0,0.0,0.0,0.0,0.0,0.0,0.0,0.0,0.0,0.0,0.0,0.0,0.0,0.0,0.0,0.0,0.0,0.0,0.0,0.0,0.0,0.0,0.0,0.0,0.0,0.0,0.0,0.0,0.0,0.0,0.0,0.0,0.0,0.0,0.0,0.0,0.0,0.0,0.0,0.0,0.0,0.0,0.0,0.0,0.0,0.0,0.0,0.0,0.0,0.0,0.0,0.0,0.0,0.0,0.0,0.0,0.0,0.0,0.0,0.0,0.0,0.0,0.0,0.0,0.0,0.0,0.0,0.0,0.0,0.0,0.0,0.0,0.0,0.0,0.0,0.0,0.0,0.0,0.0,0.0,0.0,0.0,0.0,0.0,0.0,0.0,0.0,0.0,0.0,0.0,0.0,0.0,0.0,0.0,0.0,0.0,0.0,0.0,0.0,0.0,0.0,0.0,0.0,0.0,0.0,0.0,0.0,0.0,0.0,0.0,0.0,0.0,0.0,0.0,0.0,0.0,0.0,0.0,0.0,0.0,0.0,0.0,0.0,0.0,0.0,0.0,0.0,0.0,0.0,0.0,0.0,0.0,0.0,0.0,0.0,0.0,0.0,0.0,0.0,0.0,0.0,0.0,0.0,0.0,0.0,0.0,0.0,0.0,0.0,0.0,0.0,0.0,0.0,0.0,0.0,0.0,0.0,0.0,0.0,0.0,0.0,0.0,0.0,0.0,0.0,0.0,0.0,0.0,0.0,0.0,0.0,0.0,0.0,0.0,0.0,0.0,0.0,0.0,0.0,0.0,0.0,0.0,0.0,0.0,0.0,0.0,0.0,0.0,0.0,0.0,0.0,0.0,0.0,0.0,0.0,0.0,0.0,0.0,0.0,0.0,0.0,0.0,0.0,0.0,0.0,0.0,0.0,0.0,0.0,0.0,0.0,0.0,0.0,0.0,0.0,0.0,0.0,0.0,0.0,0.0,0.0,0.0,0.0,0.0,0.0,0.0,0.0,0.0,0.0,0.0,0.0,0.0,0.0,0.0,0.0,0.0,0.0,0.0,0.0,0.0,0.0,0.0,0.0,0.0,0.0,0.0,0.0,0.0,0.0,0.0,0.0,0.0,0.0,0.0,0.0,0.0,0.0,0.0,0.0,0.0,0.0,0.0,0.0,0.0,0.0,0.0,0.0,0.0,0.0,0.0,0.0,0.0,0.0,0.0,0.0,0.0,0.0,0.0,0.0,0.0,0.0,0.0,0.0,0.0,0.0,0.0,0.0,0.0,0.0,0.0,0.0,0.0,0.0,0.0,0.0,0.0,0.0,0.0,0.0,0.0,0.0,0.0,0.0,0.0,0.0,0.0,0.0,0.0,0.0,0.0,0.0,0.0,0.0,0.0,0.0,0.0,0.0,0.0,0.0,0.0,0.0,0.0,0.0,0.0,0.0,0.0,0.0,0.0,0.0,0.0,0.0,0.0,0.0,0.0,0.0,0.0,0.0,0.0,0.0,0.0,0.0,0.0,0.0,0.0,0.0,0.0,0.0,0.0,0.0,0.0,0.0,0.0,0.0,0.0,0.0,0.0,0.0,0.0,0.0,0.0,0.0,0.0,0.0,0.0,0.0,0.0,0.0,0.0,0.0,0.0,0.0,0.0,0.0,0.0,0.0,0.0,0.0,0.0,0.0,0.0,0.0,0.0,0.0,0.0,0.0,0.0,0.0,0.0,0.0,0.0,0.0,0.0,0.0,0.0,0.0,0.0,0.0,0.0,0.0,0.0,0.0,0.0,0.0,0.0,0.0,0.0,0.0,0.0,0.0,0.0,0.0,0.0,0.0,0.0,0.0,0.0,0.0,0.0,0.0,0.0,0.0,0.0,0.0,0.0,0.0,0.0,0.0,0.0,0.0,0.0,0.0,0.0,0.0,0.0,0.0,0.0,0.0,0.0,0.0,0.0,0.0,0.0,0.0,0.0,0.0,0.0,0.0,0.0,0.0,0.0,0.0,0.0,0.0,0.0,0.0,0.0,0.0,0.0,0.0,0.0,0.0,0.0,0.0,0.0,0.0,0.0,0.0,0.0,0.0,0.0,0.0,0.0,0.0,0.0,0.0,0.0,0.0,0.0,0.0,0.0,0.0,0.0,0.0,0.0,0.0,0.0,0.0,0.0,0.0,0.0,0.0,0.0,0.0,0.0,0.0,0.0,0.0,0.0,0.0,0.0,0.0,0.0,0.0,0.0,0.0,0.0,0.0,0.0,0.0,0.0,0.0,0.0,0.0,0.0,0.0,0.0,0.0,0.0,0.0,0.0,0.0,0.0,0.0,0.0,0.0,0.0,0.0,0.0,0.0,0.0,0.0,0.0,0.0,0.0,0.0,0.0,0.0,0.0,0.0,0.0,0.0,0.0,0.0,0.0,0.0,0.0,-2.6802,0.0,0.0,0.0,0.0,0.0,0.0,0.0,0.0,0.0,0.0,0.0,0.0,0.0,0.0,0.0,0.0,0.0,0.0,0.0,0.0,0.0,0.0,0.0,0.0,0.0,0.0,0.0,0.0,0.0,0.0,0.0,0.0,0.0,0.0,0.0,0.0,0.0,0.0,0.0,0.0,0.0,0.0,0.0,0.0,0.0,0.0,0.0,0.0,0.0,0.0,0.0,0.0,0.0,0.0,0.0,0.0,0.0,0.0,0.0,0.0,0.0,0.0,0.0,0.0,0.0,0.0,0.0,0.0,0.0,0.0,0.0,0.0,0.0,0.0,0.0,0.0,0.0,0.0,0.0,0.0,0.0,0.0,0.0,0.0,0.0,0.0,0.0,0.0,0.0,0.0,0.0,0.0,0.0,0.0,0.0,0.0,0.0,0.0,0.0,0.0,0.0,0.0,0.0,0.0,0.0,0.0,0.0,0.0,0.0,0.0,-2.7698,-2.7699,-2.7717,-2.7484,-2.6996,0.0,0.0,0.0,0.0,0.0,0.0,0.0,0.0,0.0,0.0,0.0,0.0,0.0,0.0,0.0,0.0,0.0,0.0,0.0,0.0,0.0,0.0,0.0,0.0,0.0,0.0,0.0,0.0,0.0,0.0,0.0,0.0,0.0,0.0,0.0,0.0,0.0,0.0,0.0,0.0,0.0,0.0,0.0,0.0,0.0,0.0,0.0,0.0,0.0,0.0,0.0,0.0,0.0,0.0,0.0,0.0,0.0,0.0,0.0,0.0,0.0,0.0,0.0,0.0,0.0,0.0,0.0,0.0,0.0,0.0,0.0,0.0,0.0,0.0,0.0,0.0,0.0,0.0,0.0,0.0,0.0,0.0,0.0,0.0,0.0,0.0,0.0,0.0,0.0,0.0,0.0,0.0,0.0,0.0,0.0,0.0,0.0,0.0,0.0,0.0,0.0,0.0,0.0,0.0,0.0,0.0,0.0,0.0,0.0,0.0,0.0,0.0,-2.9064,-2.8674,-2.7621,0.0,0.0,0.0,0.0,0.0,0.0,0.0,0.0,0.0,0.0,0.0,0.0,0.0,0.0,0.0,0.0,0.0,0.0,0.0,0.0,0.0,0.0,0.0,0.0,0.0,0.0,0.0,0.0,0.0,0.0,0.0,0.0,0.0,0.0,0.0,0.0,0.0,0.0,0.0,0.0,0.0,0.0,0.0,0.0,0.0,0.0,0.0,0.0,0.0,0.0,0.0,0.0,0.0,0.0,0.0,0.0,0.0,0.0,0.0,0.0,0.0,0.0,0.0,0.0,0.0,0.0,0.0,0.0,0.0,0.0,0.0,0.0,0.0,0.0,0.0,0.0,0.0,0.0,0.0,0.0,0.0,0.0,0.0,0.0,0.0,0.0,0.0,0.0,0.0,0.0,0.0,0.0,0.0,0.0,0.0,0.0,0.0,0.0,0.0,0.0,0.0,0.0,0.0,0.0,0.0,0.0,0.0,0.0,0.0,0.0,-2.9025,-3.0527,-3.1328,0.0,-2.9436,0.0,0.0,0.0,0.0,0.0,0.0,0.0,0.0,0.0,0.0,0.0,0.0,0.0,0.0,0.0,0.0,0.0,0.0,0.0,0.0,0.0,0.0,0.0,0.0,0.0,0.0,0.0,0.0,0.0,0.0,0.0,0.0,0.0,0.0,0.0,0.0,0.0,0.0,0.0,0.0,0.0,0.0,0.0,0.0,0.0,0.0,0.0,0.0,0.0,0.0,0.0,0.0,0.0,0.0,0.0,0.0,0.0,0.0,0.0,0.0,0.0,0.0,0.0,0.0,0.0,0.0,0.0,0.0,0.0,0.0,0.0,0.0,0.0,0.0,0.0,0.0,0.0,0.0,0.0,0.0,0.0,0.0,0.0,0.0,0.0,0.0,0.0,0.0,0.0,0.0,0.0,0.0,0.0,0.0,0.0,0.0,0.0,0.0,0.0,0.0,0.0,0.0,0.0,0.0,0.0,0.0,0.0,0.0,0.0,0.0,0.0,-3.1543,-3.1426,-3.0801,0.0,0.0,0.0,0.0,0.0,0.0,0.0,0.0,0.0,0.0,0.0,0.0,0.0,0.0,0.0,0.0,0.0,0.0,0.0,0.0,0.0,0.0,0.0,0.0,0.0,0.0,0.0,0.0,0.0,0.0,0.0,0.0,0.0,0.0,0.0,0.0,0.0,0.0,0.0,0.0,0.0,0.0,0.0,0.0,0.0,0.0,0.0,0.0,0.0,0.0,0.0,0.0,0.0,0.0,0.0,0.0,0.0,0.0,0.0,0.0,0.0,0.0,0.0,0.0,0.0,0.0,0.0,0.0,0.0,0.0,0.0,0.0,0.0,0.0,0.0,0.0,0.0,0.0,0.0,0.0,0.0,0.0,0.0,0.0,0.0,0.0,0.0,0.0,0.0,0.0,0.0,0.0,0.0,0.0,0.0,0.0,0.0,0.0,0.0,0.0,0.0,0.0,0.0,0.0,0.0,0.0,0.0,0.0,0.0,0.0,-3.0099,0.0,-3.2675,-3.1738,-3.0684,-2.9651,0.0,0.0,0.0,0.0,0.0,0.0,0.0,0.0,0.0,0.0,0.0,0.0,0.0,0.0,0.0,0.0,0.0,0.0,0.0,0.0,0.0,0.0,0.0,0.0,0.0,0.0,0.0,0.0,0.0,0.0,0.0,0.0,0.0,0.0,0.0,0.0,0.0,0.0,0.0,0.0,0.0,0.0,0.0,0.0,0.0,0.0,0.0,0.0,0.0,0.0,0.0,0.0,0.0,0.0,0.0,0.0,0.0,0.0,0.0,0.0,0.0,0.0,0.0,0.0,0.0,0.0,0.0,0.0,0.0,0.0,0.0,0.0,0.0,0.0,0.0,0.0,0.0,0.0,0.0,0.0,0.0,0.0,0.0,0.0,0.0,0.0,0.0,0.0,0.0,0.0,0.0,0.0,0.0,0.0,0.0,0.0,0.0,0.0,0.0,0.0,0.0,0.0,0.0,0.0,0.0,0.0,0.0,0.0,0.0,-3.1561,-3.2012,-3.4452,-3.293,-3.1271,0.0,0.0,0.0,0.0,0.0,0.0,0.0,0.0,0.0,0.0,0.0,0.0,0.0,0.0,0.0,0.0,0.0,0.0,0.0,0.0,0.0,0.0,0.0,0.0,0.0,0.0,0.0,0.0,0.0,0.0,0.0,0.0,0.0,0.0,0.0,0.0,0.0,0.0,0.0,0.0,0.0,0.0,0.0,0.0,0.0,0.0,0.0,0.0,0.0,0.0,0.0,0.0,0.0,0.0,0.0,0.0,0.0,0.0,0.0,0.0,0.0,0.0,0.0,0.0,0.0,0.0,0.0,0.0,0.0,0.0,0.0,0.0,0.0,0.0,0.0,0.0,0.0,0.0,0.0,0.0,0.0,0.0,0.0,0.0,0.0,0.0,0.0,0.0,0.0,0.0,0.0,0.0,0.0,0.0,0.0,0.0,0.0,0.0,0.0,0.0,0.0,0.0,0.0,0.0,0.0,0.0,0.0,0.0,0.0,-2.922,-3.0821,-3.3144,-3.6091,-3.3066,-3.125,0.0,0.0,0.0,0.0,0.0,0.0,0.0,0.0,0.0,0.0,0.0,0.0,0.0,0.0,0.0,0.0,0.0,0.0,0.0,0.0,0.0,0.0,0.0,0.0,0.0,0.0,0.0,0.0,0.0,0.0,0.0,0.0,0.0,0.0,0.0,0.0,0.0,0.0,0.0,0.0,0.0,0.0,0.0,0.0,0.0,0.0,0.0,0.0,0.0,0.0,0.0,0.0,0.0,0.0,0.0,0.0,0.0,0.0,0.0,0.0,0.0,0.0,0.0,0.0,0.0,0.0,0.0,0.0,0.0,0.0,0.0,0.0,0.0,0.0,0.0,0.0,0.0,0.0,0.0,0.0,0.0,0.0,0.0,0.0,0.0,0.0,0.0,0.0,0.0,0.0,0.0,0.0,0.0,0.0,0.0,0.0,0.0,0.0,0.0,0.0,0.0,0.0,0.0,0.0,0.0,0.0,0.0,0.0,0.0,-2.8655,0.0,-3.453,0.0,-3.293,-3.0979,0.0,0.0,0.0,0.0,0.0,0.0,0.0,0.0,0.0,0.0,0.0,0.0,0.0,0.0,0.0,0.0,0.0,0.0,0.0,0.0,0.0,0.0,0.0,0.0,0.0,0.0,0.0,0.0,0.0,0.0,0.0,0.0,0.0,0.0,0.0,0.0,0.0,0.0,0.0,0.0,0.0,0.0,0.0,0.0,0.0,0.0,0.0,0.0,0.0,0.0,0.0,0.0,0.0,0.0,0.0,0.0,0.0,0.0,0.0,0.0,0.0,0.0,0.0,0.0,0.0,0.0,0.0,0.0,0.0,0.0,0.0,0.0,0.0,0.0,0.0,0.0,0.0,0.0,0.0,0.0,0.0,0.0,0.0,0.0,0.0,0.0,0.0,0.0,0.0,0.0,0.0,0.0,0.0,0.0,0.0,0.0,0.0,0.0,0.0,0.0,0.0,0.0,0.0,0.0,0.0,0.0,0.0,0.0,-2.7836,-3.1935,-3.5292,-3.5876,-3.3552,-3.2582,-3.0516,0.0,0.0,0.0,0.0,0.0,0.0,0.0,0.0,0.0,0.0,0.0,0.0,0.0,0.0,0.0,0.0,0.0,0.0,0.0,0.0,0.0,0.0,0.0,0.0,0.0,0.0,0.0,0.0,0.0,0.0,0.0,0.0,0.0,0.0,0.0,0.0,0.0,0.0,0.0,0.0,0.0,0.0,0.0,0.0,0.0,0.0,0.0,0.0,0.0,0.0,0.0,0.0,0.0,0.0,0.0,0.0,0.0,0.0,0.0,0.0,0.0,0.0,0.0,0.0,0.0,0.0,0.0,0.0,0.0,0.0,0.0,0.0,0.0,0.0,0.0,0.0,0.0,0.0,0.0,0.0,0.0,0.0,0.0,0.0,0.0,0.0,0.0,0.0,0.0,0.0,0.0,0.0,0.0,0.0,0.0,0.0,0.0,0.0,0.0,0.0,0.0,0.0,0.0,0.0,0.0,0.0,0.0,0.0,0.0,-3.1211,-3.3421,-3.4809,-3.5083,-3.2648,-3.1049,0.0,0.0,0.0,0.0,0.0,0.0,0.0,0.0,0.0,0.0,0.0,0.0,0.0,0.0,0.0,0.0,0.0,0.0,0.0,0.0,0.0,0.0,0.0,0.0,0.0,0.0,0.0,0.0,0.0,0.0,0.0,0.0,0.0,0.0,0.0,0.0,0.0,0.0,0.0,0.0,0.0,0.0,0.0,0.0,0.0,0.0,0.0,0.0,0.0,0.0,0.0,0.0,0.0,0.0,0.0,0.0,0.0,0.0,0.0,0.0,0.0,0.0,0.0,0.0,0.0,0.0,0.0,0.0,0.0,0.0,0.0,0.0,0.0,0.0,0.0,0.0,0.0,0.0,0.0,0.0,0.0,0.0,0.0,0.0,0.0,0.0,0.0,0.0,0.0,0.0,0.0,0.0,0.0,0.0,0.0,0.0,0.0,0.0,0.0,0.0,0.0,0.0,0.0,0.0,0.0,0.0,0.0,0.0,0.0,-3.2327,-3.4263,-3.5536,-3.6007,-3.3296,-3.1618,-3.111,0.0,0.0,0.0,0.0,0.0,0.0,0.0,0.0,0.0,0.0,0.0,0.0,0.0,0.0,0.0,0.0,0.0,0.0,0.0,0.0,0.0,0.0,0.0,0.0,0.0,0.0,0.0,0.0,0.0,0.0,0.0,0.0,0.0,0.0,0.0,0.0,0.0,0.0,0.0,0.0,0.0,0.0,0.0,0.0,0.0,0.0,0.0,0.0,0.0,0.0,0.0,0.0,0.0,0.0,0.0,0.0,0.0,0.0,0.0,0.0,0.0,0.0,0.0,0.0,0.0,0.0,0.0,0.0,0.0,0.0,0.0,0.0,0.0,0.0,0.0,0.0,0.0,0.0,0.0,0.0,0.0,0.0,0.0,0.0,0.0,0.0,0.0,0.0,0.0,0.0,0.0,0.0,0.0,0.0,0.0,0.0,0.0,0.0,0.0,0.0,0.0,0.0,0.0,0.0,0.0,0.0,0.0,0.0,-3.4696,-3.7195,-3.7705,-3.6108,-3.4373,-3.2323,0.0,0.0,0.0,0.0,0.0,0.0,0.0,0.0,0.0,0.0,0.0,0.0,0.0,0.0,0.0,0.0,0.0,0.0,0.0,0.0,0.0,0.0,0.0,0.0,0.0,0.0,0.0,0.0,0.0,0.0,0.0,0.0,0.0,0.0,0.0,0.0,0.0,0.0,0.0,0.0,0.0,0.0,0.0,0.0,0.0,0.0,0.0,0.0,0.0,0.0,0.0,0.0,0.0,0.0,0.0,0.0,0.0,0.0,0.0,0.0,0.0,0.0,0.0,0.0,0.0,0.0,0.0,0.0,0.0,0.0,0.0,0.0,0.0,0.0,0.0,0.0,0.0,0.0,0.0,0.0,0.0,0.0,0.0,0.0,0.0,0.0,0.0,0.0,0.0,0.0,0.0,0.0,0.0,0.0,0.0,0.0,0.0,0.0,0.0,0.0,0.0,0.0,0.0,0.0,0.0,0.0,0.0,0.0,0.0,-3.4704,-3.6637,-3.7419,-3.6932,-3.5273,-3.375,0.0,0.0,0.0,0.0,0.0,0.0,0.0,0.0,0.0,0.0,0.0,0.0,0.0,0.0,0.0,0.0,0.0,0.0,0.0,0.0,0.0,0.0,0.0,0.0,0.0,0.0,0.0,0.0,0.0,0.0,0.0,0.0,0.0,0.0,0.0,0.0,0.0,0.0,0.0,0.0,0.0,0.0,0.0,0.0,0.0,0.0,0.0,0.0,0.0,0.0,0.0,0.0,0.0,0.0,0.0,0.0,0.0,0.0,0.0,0.0,0.0,0.0,0.0,0.0,0.0,0.0,0.0,0.0,0.0,0.0,0.0,0.0,0.0,0.0,0.0,0.0,0.0,0.0,0.0,0.0,0.0,0.0,0.0,0.0,0.0,0.0,0.0,0.0,0.0,0.0,0.0,0.0,0.0,0.0,0.0,0.0,0.0,0.0,0.0,0.0,0.0,0.0,0.0,0.0,0.0,0.0,0.0,0.0,-3.3863,-3.5252,-3.6952,-3.75,-3.6757,-3.5781,-3.4492,0.0,0.0,0.0,0.0,0.0,0.0,0.0,0.0,0.0,0.0,0.0,0.0,0.0,0.0,0.0,0.0,0.0,0.0,0.0,0.0,0.0,0.0,0.0,0.0,0.0,0.0,0.0,0.0,0.0,0.0,0.0,0.0,0.0,0.0,0.0,0.0,0.0,0.0,0.0,0.0,0.0,0.0,0.0,0.0,0.0,0.0,0.0,0.0,0.0,0.0,0.0,0.0,0.0,0.0,0.0,0.0,0.0,0.0,0.0,0.0,0.0,0.0,0.0,0.0,0.0,0.0,0.0,0.0,0.0,0.0,0.0,0.0,0.0,0.0,0.0,0.0,0.0,0.0,0.0,0.0,0.0,0.0,0.0,0.0,0.0,0.0,0.0,0.0,0.0,0.0,0.0,0.0,0.0,0.0,0.0,0.0,0.0,0.0,0.0,0.0,0.0,0.0,0.0,0.0,0.0,0.0,0.0,0.0,-3.5056,-3.5858,-3.748,-3.7578,-3.6074,-3.6016,-3.4844,0.0,0.0,0.0,0.0,0.0,0.0,0.0,0.0,0.0,0.0,0.0,0.0,0.0,0.0,0.0,0.0,0.0,0.0,0.0,0.0,0.0,0.0,0.0,0.0,0.0,0.0,0.0,0.0,0.0,0.0,0.0,0.0,0.0,0.0,0.0,0.0,0.0,0.0,0.0,0.0,0.0,0.0,0.0,0.0,0.0,0.0,0.0,0.0,0.0,0.0,0.0,0.0,0.0,0.0,0.0,0.0,0.0,0.0,0.0,0.0,0.0,0.0,0.0,0.0,0.0,0.0,0.0,0.0,0.0,0.0,0.0,0.0,0.0,0.0,0.0,0.0,0.0,0.0,0.0,0.0,0.0,0.0,0.0,0.0,0.0,0.0,0.0,0.0,0.0,0.0,0.0,0.0,0.0,0.0,0.0,0.0,0.0,0.0,0.0,0.0,0.0,0.0,0.0,0.0,0.0,0.0,0.0,0.0,-3.4784,-3.5,-3.6016,-3.6387,-3.6016,-3.6016,-3.5098,0.0,0.0,0.0,0.0,0.0,0.0,0.0,0.0,0.0,0.0,0.0,0.0,0.0,0.0,0.0,0.0,0.0,0.0,0.0,0.0,0.0,0.0,0.0,0.0,0.0,0.0,0.0,0.0,0.0,0.0,0.0,0.0,0.0,0.0,0.0,0.0,0.0,0.0,0.0,0.0,0.0,0.0,0.0,0.0,0.0,0.0,0.0,0.0,-3.1032,0.0,0.0,0.0,0.0,0.0,0.0,0.0,0.0,0.0,0.0,0.0,0.0,0.0,0.0,0.0,0.0,0.0,0.0,0.0,0.0,0.0,0.0,0.0,0.0,0.0,0.0,0.0,0.0,0.0,0.0,0.0,0.0,0.0,0.0,0.0,0.0,0.0,0.0,0.0,0.0,0.0,0.0,0.0,0.0,0.0,0.0,0.0,0.0,0.0,0.0,0.0,0.0,0.0,0.0,0.0,0.0,0.0,0.0,0.0,-3.4882,-3.5312,-3.5762,-3.6016,-3.6016,-3.6016,-3.5,0.0,0.0,0.0,0.0,0.0,0.0,0.0,0.0,0.0,0.0,0.0,0.0,0.0,0.0,0.0,0.0,0.0,0.0,0.0,0.0,0.0,0.0,0.0,0.0,0.0,0.0,0.0,0.0,0.0,0.0,0.0,0.0,0.0,0.0,0.0,0.0,0.0,0.0,0.0,0.0,0.0,0.0,0.0,0.0,0.0,0.0,0.0,0.0,0.0,0.0,0.0,0.0,0.0,0.0,0.0,0.0,0.0,0.0,0.0,0.0,0.0,0.0,0.0,0.0,0.0,0.0,0.0,0.0,0.0,0.0,0.0,0.0,0.0,0.0,0.0,0.0,0.0,0.0,0.0,0.0,0.0,0.0,0.0,0.0,0.0,0.0,0.0,0.0,0.0,0.0,0.0,0.0,0.0,0.0,0.0,0.0,0.0,0.0,0.0,0.0,0.0,0.0,0.0,0.0,0.0,0.0,0.0,-3.3417,-3.498,-3.5957,-3.6016,-3.6016,-3.6016,-3.6016,-3.4726,-3.2109,0.0,0.0,0.0,0.0,0.0,0.0,0.0,0.0,0.0,0.0,0.0,0.0,0.0,0.0,0.0,0.0,0.0,0.0,0.0,0.0,0.0,0.0,0.0,0.0,0.0,0.0,0.0,0.0,0.0,0.0,0.0,0.0,0.0,0.0,0.0,0.0,0.0,0.0,-2.6409,-2.8732,0.0,0.0,0.0,0.0,0.0,0.0,0.0,0.0,-3.3538,0.0,0.0,0.0,0.0,0.0,0.0,0.0,0.0,0.0,0.0,0.0,0.0,0.0,0.0,0.0,0.0,0.0,0.0,0.0,0.0,0.0,0.0,0.0,0.0,0.0,0.0,0.0,0.0,0.0,0.0,0.0,0.0,0.0,0.0,0.0,0.0,0.0,0.0,0.0,0.0,0.0,0.0,0.0,0.0,0.0,0.0,0.0,0.0,0.0,0.0,0.0,0.0,0.0,0.0,0.0,0.0,-3.2948,-3.3398,-3.4394,-3.5957,-3.6016,-3.6016,-3.6016,-3.6016,-3.4473,-3.1348,0.0,0.0,0.0,0.0,0.0,0.0,0.0,0.0,0.0,0.0,0.0,0.0,0.0,0.0,0.0,0.0,0.0,0.0,0.0,0.0,0.0,0.0,0.0,0.0,0.0,0.0,0.0,0.0,0.0,0.0,0.0,0.0,0.0,0.0,0.0,0.0,0.0,0.0,0.0,-3.2207,-3.459,0.0,0.0,0.0,0.0,0.0,0.0,0.0,0.0,-3.522,0.0,0.0,0.0,0.0,0.0,0.0,0.0,0.0,0.0,0.0,0.0,0.0,0.0,0.0,0.0,0.0,0.0,0.0,0.0,0.0,0.0,0.0,0.0,0.0,0.0,0.0,0.0,0.0,0.0,0.0,0.0,0.0,0.0,0.0,0.0,0.0,0.0,0.0,0.0,0.0,0.0,0.0,0.0,0.0,0.0,0.0,0.0,0.0,0.0,0.0,0.0,0.0,0.0,0.0,0.0,-3.2089,-3.3848,-3.5156,-3.5976,-3.6016,-3.5781,-3.5332,-3.4902,-3.3262,0.0,0.0,0.0,0.0,0.0,0.0,0.0,0.0,0.0,0.0,0.0,0.0,0.0,0.0,0.0,0.0,0.0,0.0,0.0,0.0,0.0,0.0,0.0,0.0,0.0,0.0,0.0,0.0,0.0,0.0,0.0,0.0,0.0,0.0,0.0,0.0,0.0,0.0,0.0,0.0,-3.2949,-3.4822,-3.6989,0.0,0.0,0.0,0.0,0.0,0.0,-3.5737,-3.5587,0.0,0.0,0.0,0.0,0.0,0.0,0.0,0.0,0.0,0.0,0.0,0.0,0.0,0.0,0.0,0.0,0.0,0.0,0.0,0.0,0.0,0.0,0.0,0.0,0.0,0.0,0.0,0.0,0.0,0.0,0.0,0.0,0.0,0.0,0.0,0.0,0.0,0.0,0.0,0.0,0.0,0.0,0.0,0.0,0.0,0.0,0.0,0.0,0.0,0.0,0.0,0.0,0.0,0.0,0.0,-3.0723,-3.3496,-3.5137,-3.5449,-3.5469,-3.5137,-3.4453,-3.3769,-3.2207,0.0,0.0,0.0,0.0,0.0,0.0,0.0,0.0,0.0,0.0,0.0,0.0,0.0,0.0,0.0,0.0,0.0,0.0,0.0,0.0,0.0,0.0,0.0,0.0,0.0,0.0,0.0,0.0,0.0,0.0,0.0,0.0,0.0,0.0,0.0,0.0,0.0,0.0,0.0,0.0,0.0,-3.5389,-3.7282,-3.7565,0.0,0.0,0.0,0.0,-3.6584,-3.6538,0.0,0.0,0.0,0.0,0.0,0.0,0.0,0.0,0.0,0.0,0.0,0.0,0.0,0.0,0.0,0.0,0.0,0.0,0.0,0.0,0.0,0.0,0.0,0.0,0.0,0.0,0.0,0.0,0.0,0.0,0.0,0.0,0.0,0.0,0.0,0.0,0.0,0.0,0.0,0.0,0.0,0.0,0.0,0.0,0.0,0.0,0.0,0.0,0.0,0.0,0.0,0.0,0.0,0.0,0.0,0.0,-2.9726,-3.0898,-3.2207,-3.3613,-3.3691,-3.3652,-3.3555,-3.3437,-3.2207,0.0,0.0,0.0,0.0,0.0,0.0,0.0,0.0,0.0,0.0,0.0,0.0,0.0,0.0,0.0,0.0,0.0,0.0,0.0,0.0,0.0,0.0,0.0,0.0,0.0,0.0,0.0,0.0,0.0,0.0,0.0,0.0,0.0,0.0,0.0,0.0,0.0,0.0,0.0,0.0,0.0,-3.8902,-3.8513,-3.8441,-3.8706,0.0,0.0,-3.8564,-3.9129,-3.9198,0.0,0.0,0.0,0.0,0.0,0.0,0.0,0.0,0.0,0.0,0.0,0.0,0.0,0.0,0.0,0.0,0.0,0.0,0.0,0.0,0.0,0.0,0.0,0.0,0.0,0.0,0.0,0.0,0.0,0.0,0.0,0.0,0.0,0.0,0.0,0.0,0.0,0.0,0.0,0.0,0.0,0.0,0.0,0.0,0.0,0.0,0.0,0.0,0.0,0.0,0.0,0.0,0.0,0.0,0.0,-2.8848,-2.9629,-3.1406,-3.2656,-3.3359,-3.3379,-3.3184,-3.2734,-3.1777,-3.0488,0.0,0.0,0.0,0.0,0.0,0.0,0.0,0.0,0.0,0.0,0.0,0.0,0.0,0.0,0.0,0.0,0.0,0.0,0.0,0.0,0.0,0.0,0.0,0.0,0.0,0.0,0.0,0.0,0.0,0.0,0.0,0.0,0.0,0.0,0.0,0.0,0.0,0.0,0.0,0.0,0.0,0.0,-3.9177,-3.9303,0.0,0.0,0.0,-3.9206,-3.899,0.0,0.0,0.0,0.0,0.0,0.0,0.0,0.0,0.0,0.0,0.0,0.0,0.0,0.0,0.0,0.0,0.0,0.0,0.0,0.0,0.0,0.0,0.0,0.0,0.0,0.0,0.0,0.0,0.0,0.0,0.0,0.0,0.0,0.0,0.0,0.0,0.0,0.0,0.0,0.0,0.0,0.0,0.0,0.0,0.0,0.0,0.0,0.0,0.0,0.0,0.0,0.0,0.0,0.0,0.0,0.0,0.0,-2.9316,-3.1582,-3.2773,-3.2754,-3.2773,-3.25,-3.1875,-3.0391,0.0,0.0,0.0,0.0,0.0,0.0,0.0,0.0,0.0,0.0,0.0,0.0,0.0,0.0,0.0,0.0,0.0,0.0,0.0,0.0,0.0,0.0,0.0,0.0,0.0,0.0,0.0,-2.5966,0.0,0.0,0.0,0.0,0.0,0.0,0.0,0.0,0.0,0.0,0.0,0.0,0.0,0.0,-3.8375,-3.9644,-3.9829,-3.9937,0.0,0.0,-3.9393,-3.8851,-3.8578,-3.8121,0.0,0.0,0.0,0.0,0.0,0.0,0.0,0.0,0.0,0.0,0.0,0.0,0.0,0.0,0.0,0.0,0.0,0.0,0.0,0.0,0.0,0.0,0.0,0.0,0.0,0.0,0.0,0.0,0.0,0.0,0.0,0.0,0.0,0.0,0.0,0.0,0.0,0.0,0.0,0.0,0.0,0.0,0.0,0.0,0.0,0.0,0.0,0.0,0.0,0.0,0.0,0.0,0.0,0.0,0.0,-2.8437,-3.0156,-3.1094,-3.1074,-3.1055,-3.1035,-3.0976,-3.0078,-2.918,0.0,0.0,0.0,0.0,0.0,0.0,0.0,0.0,0.0,0.0,0.0,0.0,0.0,0.0,0.0,0.0,0.0,0.0,0.0,0.0,0.0,0.0,0.0,0.0,0.0,0.0,0.0,0.0,0.0,0.0,0.0,0.0,0.0,0.0,0.0,0.0,0.0,0.0,0.0,0.0,0.0,-3.9663,-3.978,-3.98,-4.01,0.0,0.0,-3.8942,-3.9687,-3.9052,-3.8182,-3.7244,0.0,0.0,0.0,0.0,0.0,0.0,0.0,0.0,0.0,0.0,0.0,0.0,0.0,0.0,0.0,0.0,0.0,0.0,0.0,0.0,0.0,0.0,0.0,0.0,0.0,0.0,0.0,0.0,0.0,0.0,0.0,0.0,0.0,0.0,0.0,0.0,0.0,0.0,0.0,0.0,0.0,0.0,0.0,0.0,0.0,0.0,0.0,0.0,0.0,0.0,0.0,0.0,0.0,-2.8281,-2.832,-3.0,-3.0918,-3.0918,-3.0918,-3.0918,-3.0898,-2.9531,-2.8652,0.0,0.0,0.0,0.0,0.0,0.0,0.0,0.0,0.0,0.0,0.0,0.0,0.0,0.0,0.0,0.0,0.0,0.0,0.0,0.0,0.0,0.0,0.0,0.0,0.0,0.0,0.0,0.0,-2.76,-2.8011,-2.8558,0.0,0.0,0.0,0.0,0.0,0.0,0.0,0.0,0.0,0.0,-3.9995,-4.0522,-4.0605,0.0,0.0,-4.0543,-4.0076,-3.9902,-3.9085,-3.8142,-3.7244,-3.6344,0.0,0.0,0.0,0.0,0.0,0.0,0.0,0.0,0.0,0.0,0.0,0.0,0.0,0.0,0.0,0.0,0.0,0.0,0.0,0.0,0.0,0.0,0.0,0.0,0.0,0.0,0.0,0.0,0.0,0.0,0.0,0.0,0.0,0.0,0.0,0.0,0.0,0.0,0.0,0.0,0.0,0.0,0.0,0.0,0.0,0.0,0.0,0.0,0.0,0.0,0.0,0.0,-2.8047,-2.8301,-2.9766,-3.0644,-3.0879,-3.0918,-3.0918,-3.0859,-2.9199,-2.8281,0.0,0.0,0.0,0.0,0.0,0.0,0.0,0.0,0.0,0.0,0.0,0.0,0.0,0.0,0.0,0.0,0.0,0.0,0.0,0.0,0.0,0.0,0.0,0.0,0.0,0.0,0.0,0.0,-2.8147,-2.8537,-2.9142,0.0,0.0,0.0,0.0,0.0,0.0,0.0,0.0,0.0,0.0,-4.0015,-4.0639,-4.0722,-4.0707,-4.0733,-4.0523,-4.0232,-3.9941,-3.9071,-3.8257,-3.7637,0.0,0.0,0.0,0.0,0.0,0.0,0.0,0.0,0.0,0.0,0.0,0.0,0.0,0.0,0.0,0.0,0.0,0.0,0.0,0.0,0.0,0.0,0.0,0.0,0.0,0.0,0.0,0.0,0.0,0.0,-2.5703,0.0,0.0,0.0,0.0,0.0,0.0,0.0,0.0,0.0,0.0,0.0,0.0,0.0,0.0,0.0,0.0,0.0,0.0,0.0,0.0,0.0,0.0,-2.7461,-2.8301,-2.916,-3.0039,-3.0879,-3.0898,-3.0879,-3.084,-2.9219,-2.8281,-2.8242,0.0,0.0,0.0,0.0,0.0,0.0,0.0,0.0,0.0,0.0,0.0,0.0,0.0,0.0,0.0,0.0,0.0,0.0,0.0,0.0,0.0,0.0,0.0,0.0,0.0,0.0,-2.7133,-2.7795,-2.8321,0.0,0.0,0.0,0.0,0.0,0.0,0.0,0.0,0.0,0.0,-3.9292,-3.98,-3.9839,-3.9839,-3.9939,-3.9968,-3.9249,-3.8999,-3.9783,-3.916,-3.8573,0.0,0.0,0.0,0.0,0.0,0.0,0.0,0.0,0.0,0.0,0.0,0.0,0.0,0.0,0.0,0.0,0.0,0.0,0.0,0.0,0.0,0.0,0.0,0.0,0.0,0.0,0.0,-2.7695,-2.7402,0.0,0.0,0.0,0.0,0.0,0.0,0.0,0.0,0.0,0.0,0.0,-2.8321,-2.8908,0.0,0.0,0.0,0.0,0.0,0.0,0.0,0.0,0.0,0.0,0.0,0.0,-2.7422,-2.8262,-2.8574,-2.9434,-3.084,-3.0332,-3.0019,-3.0019,-2.8906,-2.7754,-2.6621,0.0,0.0,0.0,0.0,0.0,0.0,0.0,0.0,0.0,0.0,0.0,0.0,0.0,0.0,0.0,0.0,0.0,0.0,0.0,0.0,0.0,0.0,0.0,0.0,0.0,-2.7328,0.0,0.0,0.0,0.0,0.0,0.0,0.0,0.0,0.0,0.0,0.0,-3.7946,-3.8533,-3.9782,-4.0444,-3.9878,-4.0288,-4.0681,0.0,0.0,0.0,0.0,0.0,0.0,0.0,0.0,0.0,0.0,0.0,0.0,0.0,0.0,-3.6626,-3.4369,-3.3963,-3.3712,-3.2836,0.0,0.0,0.0,0.0,0.0,0.0,0.0,0.0,0.0,0.0,0.0,0.0,0.0,0.0,-2.9023,0.0,-2.7831,0.0,0.0,0.0,0.0,0.0,0.0,0.0,0.0,-2.9631,-2.9708,-2.92,-2.9767,-2.9728,0.0,-2.9474,-2.9026,0.0,0.0,0.0,0.0,0.0,0.0,0.0,0.0,-2.7285,-2.7832,-2.7851,-2.8711,-3.0332,-2.9883,-2.9746,-3.0019,-2.8926,-2.748,-2.5742,-2.5703,-2.5703,0.0,0.0,0.0,0.0,0.0,0.0,0.0,0.0,0.0,0.0,0.0,0.0,0.0,0.0,0.0,0.0,0.0,0.0,0.0,0.0,0.0,0.0,0.0,-2.7894,0.0,0.0,0.0,0.0,0.0,0.0,0.0,0.0,0.0,-3.5642,-3.7594,-3.9118,-3.943,-4.0426,-4.0795,-3.9917,0.0,0.0,0.0,0.0,0.0,0.0,0.0,-3.8461,-3.8443,-3.7863,-3.7497,-3.7707,-3.7999,-3.7729,-3.6361,0.0,0.0,-3.5626,-3.5264,-3.5085,-3.4538,-3.4659,-3.4679,-3.4112,-3.4466,-3.4679,0.0,0.0,0.0,0.0,0.0,0.0,0.0,0.0,-3.0268,-3.0502,0.0,-2.8804,0.0,0.0,0.0,0.0,0.0,-2.8792,0.0,0.0,-3.0431,-3.0781,-3.0761,-3.0761,-3.08,-3.0839,-3.1602,-3.1154,-2.9632,-2.8762,0.0,0.0,0.0,0.0,0.0,0.0,-2.6973,-2.7012,-2.6992,-2.7793,-2.9492,-2.9512,-2.9902,-3.0644,-2.9082,-2.7402,-2.5801,-2.5703,-2.5703,-2.5703,-2.5703,0.0,0.0,0.0,0.0,0.0,0.0,0.0,0.0,0.0,0.0,0.0,0.0,0.0,0.0,0.0,0.0,0.0,0.0,0.0,0.0,-2.9612,0.0,0.0,0.0,0.0,0.0,0.0,0.0,0.0,0.0,0.0,-3.7477,-3.8804,-4.0132,-4.0914,0.0,0.0,0.0,0.0,-3.8611,-3.865,-3.7914,-3.7684,-3.8485,-3.8571,-3.8535,-3.8485,0.0,0.0,-3.7077,-3.7599,-3.7851,-3.7019,-3.7483,-3.7845,-3.6955,-3.6748,-3.6787,-3.6709,-3.6091,-3.5723,-3.5684,-3.5568,-3.5632,-3.3041,0.0,0.0,0.0,0.0,-3.153,-3.1827,-3.1967,-3.2456,-3.2201,-3.1342,-3.05,0.0,0.0,0.0,0.0,0.0,0.0,-2.9923,-3.045,-3.0703,-3.08,-3.08,-3.08,-3.08,-3.082,-3.1055,-3.0937,-3.0431,-2.9621,-2.8922,-2.8296,0.0,0.0,0.0,0.0,-2.6367,-2.6914,-2.6387,-2.6914,-2.8633,-2.8066,-2.7871,-2.8105,-2.7031,-2.6211,-2.5723,-2.5703,-2.5703,-2.5703,-2.5703,0.0,0.0,0.0,0.0,0.0,0.0,0.0,0.0,0.0,0.0,0.0,0.0,0.0,0.0,0.0,0.0,0.0,0.0,0.0,-2.8596,-2.9747,-3.047,0.0,0.0,0.0,0.0,0.0,0.0,0.0,0.0,0.0,-3.9058,-4.0034,-4.0581,0.0,0.0,-3.9878,-3.9058,-3.8747,-3.8611,-3.8611,0.0,0.0,0.0,-3.8002,-3.7799,-3.8338,-3.8381,-3.8016,-3.7121,-3.7182,-3.7061,-3.6212,-3.6245,-3.6323,-3.6149,-3.6535,-3.6651,-3.6187,-3.5858,-3.5704,-3.5704,-3.5704,-3.5684,-3.4773,-3.4294,-3.3119,-3.2618,-3.264,-3.2973,-3.3248,-3.3388,-3.3388,-3.3095,-3.2528,-3.1374,-3.0279,-2.9263,-2.8948,0.0,0.0,0.0,-3.0353,-3.08,-3.08,-3.08,-3.08,-3.08,-3.08,-3.08,-3.08,-3.0644,-3.0313,-2.9836,-2.9156,-2.8297,0.0,0.0,-2.6992,-2.6465,-2.6309,-2.6465,-2.5977,-2.6367,-2.7734,-2.7617,-2.7344,-2.6992,-2.6484,-2.6055,-2.5723,-2.5703,-2.5703,-2.5703,-2.5703,-2.5703,0.0,0.0,0.0,0.0,0.0,0.0,0.0,0.0,0.0,0.0,0.0,-2.6763,-2.6254,0.0,0.0,0.0,-2.7328,-2.8675,-3.0176,-3.123,0.0,0.0,0.0,0.0,0.0,0.0,0.0,-3.8357,-3.9177,-3.9626,-3.98,-4.0542,-4.0894,-4.0405,-4.0307,-4.0015,-3.9196,0.0,-3.8494,-3.8141,-3.7762,-3.7535,-3.7498,-3.7041,-3.6855,-3.7277,-3.7329,-3.7118,-3.6594,-3.6498,-3.6294,-3.5857,-3.5711,-3.559,-3.5291,-3.5604,-3.5781,-3.5322,-3.5452,-3.5491,-3.4853,-3.493,-3.5104,-3.576,-3.5775,-3.414,-3.3492,-3.3573,-3.4295,-3.4139,-3.3416,-3.3474,-3.3416,-3.3162,-3.1601,-3.0859,-3.0742,-3.0021,0.0,-2.9729,-3.047,-3.0781,-3.08,-3.08,-3.08,-3.08,-3.0722,-3.0704,-3.0703,-3.0625,-3.0235,-2.9534,-2.9406,-2.8999,-2.8198,-2.8124,-2.7734,-2.7031,-2.6934,-2.6504,-2.5723,-2.5703,-2.6094,-2.6875,-2.7734,-2.7793,-2.6914,-2.6894,-2.6504,-2.5742,-2.5703,-2.5703,-2.5703,-2.5703,-2.5703,-2.5703,0.0,0.0,0.0,0.0,0.0,0.0,0.0,0.0,0.0,0.0,0.0,0.0,0.0,0.0,0.0,-2.8773,0.0,-3.3162,-3.3396,0.0,0.0,0.0,-3.5545,-3.7399,-3.8259,-3.8728,-3.8786,0.0,0.0,-4.0015,0.0,-4.0973,-4.0914,-4.0914,-4.0581,-3.9741,-3.8824,-3.8102,-3.7301,-3.6479,-3.5955,-3.6143,-3.6051,-3.5975,-3.5983,-3.5752,-3.5776,-3.5636,-3.5611,-3.5611,-3.5393,-3.5476,-3.5267,-3.4516,-3.4366,-3.4264,-3.4191,-3.4839,-3.4969,-3.361,-3.3808,-3.4079,-3.5732,-3.5814,-3.475,-3.4347,-3.4334,-3.3886,-3.3593,-3.3455,-3.412,-3.3651,-3.2383,-3.1974,-3.1426,-3.0781,-3.0606,-3.0528,-3.0528,-3.0722,-3.08,-3.08,-3.08,-3.08,-3.0781,-3.0177,-2.9885,-2.9826,-2.9201,-2.8791,-2.8576,-2.7939,-2.7512,-2.7277,-2.6657,-2.6542,-2.6973,-2.6348,-2.5918,-2.5703,-2.5703,-2.5801,-2.6035,-2.6855,-2.6875,-2.6035,-2.5996,-2.5918,-2.5723,-2.5703,-2.5703,-2.5703,-2.5703,-2.5703,-2.5703,-2.5703,0.0,0.0,0.0,0.0,0.0,0.0,0.0,0.0,0.0,-2.8421,-2.7094,0.0,-2.8987,0.0,-3.051,-3.2012,-3.3279,-3.3396,0.0,0.0,-3.6228,-3.6872,-3.9839,-3.978,-3.9761,-4.0446,-4.0855,-4.1012,-4.0795,-4.0385,-3.9878,-3.9274,-3.9177,-3.8864,-3.8024,-3.7163,-3.6558,-3.6325,-3.6057,-3.5967,-3.5878,-3.59,-3.5847,-3.5807,-3.5756,-3.556,-3.4887,-3.479,-3.4587,-3.3968,-3.3785,-3.3702,-3.3552,-3.3485,-3.3228,-3.2724,-3.3137,-3.3629,-3.3184,-3.3262,-3.3358,-3.4497,-3.4575,-3.3716,-3.3621,-3.4043,-3.3587,-3.3396,-3.3396,-3.3515,-3.2989,-3.2071,-3.168,-3.125,-3.08,-3.08,-3.08,-3.08,-3.08,-3.08,-3.08,-3.08,-3.08,-3.0761,-2.9982,-2.9612,-2.9573,-2.8713,-2.8108,-2.7718,-2.7235,-2.6807,-2.6417,-2.5934,-2.5936,-2.6387,-2.5937,-2.5703,-2.5703,-2.5703,-2.5703,-2.5723,-2.6172,-2.6172,-2.5723,-2.5703,-2.5703,-2.5703,-2.5703,-2.5703,-2.5703,-2.5703,-2.5703,-2.5703,-2.5703,-2.5878,0.0,0.0,0.0,0.0,0.0,0.0,0.0,0.0,0.0,0.0,0.0,-3.045,-3.1231,-3.2129,-3.3339,-3.4997,-3.4782,-3.5602,-3.8141,-3.7672,-3.8219,-4.0816,-4.0327,-3.9995,-4.0464,-4.0211,-3.9977,-3.9958,-3.9235,-3.8375,-3.7555,-3.7106,-3.6678,-3.6228,-3.5701,-3.5291,-3.4899,-3.4851,-3.4822,-3.4743,-3.474,-3.4715,-3.4695,-3.4692,-3.4513,-3.4054,-3.3957,-3.3798,-3.3354,-3.321,-3.307,-3.2764,-3.2635,-3.2359,-3.1685,-3.1678,-3.1942,-3.198,-3.229,-3.2503,-3.2989,-3.3001,-3.2164,-3.231,-3.3122,-3.3087,-3.312,-3.3182,-3.2422,-3.2032,-3.1875,-3.1133,-3.08,-3.08,-3.08,-3.08,-3.08,-3.08,-3.08,-3.0781,-3.0683,-3.0645,-3.0606,-2.969,-2.9261,-2.9221,-2.8381,-2.7581,-2.6841,-2.6825,-2.6455,-2.5712,-2.57,-2.5702,-2.5702,-2.5702,-2.5703,-2.5703,-2.5801,-2.5859,-2.5859,-2.5977,-2.5977,-2.5879,-2.5859,-2.582,-2.5703,-2.5703,-2.5703,-2.5703,-2.5801,-2.582,-2.5723,-2.5898,-2.6326,0.0,-2.7102,0.0,0.0,0.0,0.0,0.0,0.0,0.0,0.0,-3.1114,-3.1913,-3.3435,-3.367,-3.4665,-3.6911,-3.6441,-3.6929,-3.9156,-3.8843,-3.906,-4.0524,-4.0112,-3.9585,-3.9507,-3.8863,-3.8415,-3.824,-3.7498,-3.6636,-3.5778,-3.4959,-3.4375,-3.4237,-3.4374,-3.4276,-3.3494,-3.3393,-3.3594,-3.3507,-3.3421,-3.3409,-3.3344,-3.3427,-3.3266,-3.3157,-3.3118,-3.3079,-3.2943,-3.2792,-3.259,-3.193,-3.1786,-3.1522,-3.0894,-3.0649,-3.0571,-3.0737,-3.1261,-3.1439,-3.2989,-3.302,-3.2164,-3.1943,-3.2124,-3.1481,-3.1638,-3.2343,-3.2169,-3.1699,-3.1036,-3.0878,-3.08,-3.08,-3.08,-3.08,-3.08,-3.08,-3.08,-3.0761,-3.0138,-2.9827,-2.9729,-2.8226,-2.7484,-2.7426,-2.6605,-2.6117,-2.5942,-2.5943,-2.5864,-2.5709,-2.5691,-2.5693,-2.5696,0.0,0.0,0.0,-2.6387,-2.6758,-2.6758,-2.7441,-2.7461,-2.6777,-2.6738,0.0,-2.5742,-2.5703,-2.5703,-2.5723,-2.6367,0.0,0.0,0.0,0.0,0.0,0.0,0.0,0.0,0.0,0.0,0.0,-3.006,-3.0449,-3.082,-3.2734,-3.41,-3.4432,-3.5075,-3.5699,-3.6187,-3.609,-3.6461,-3.7594,-3.7653,-3.7946,-3.8942,-3.8923,-3.8572,-3.7848,-3.7633,-3.7262,-3.654,-3.574,-3.4881,-3.406,-3.3144,-3.2343,-3.1699,-3.2791,-3.3534,-3.3398,-3.3267,-3.3334,-3.3378,-3.3319,-3.3193,-3.3319,-3.3287,-3.3005,-3.2395,-3.224,-3.1949,-3.1432,-3.1176,-3.1153,-3.0962,-3.0936,-3.0815,-3.0706,-3.012,-2.9811,-3.0459,-3.0722,-3.0795,-3.1715,0.0,-3.129,-3.1139,0.0,-3.0814,-3.0935,-3.1425,-3.1441,-3.1211,-3.08,-3.08,-3.08,-3.08,-3.08,-3.08,-3.08,-3.08,-3.0586,-3.0177,-2.9788,-2.9358,-2.8928,-2.7621,-2.7017,-2.6978,-2.6118,-2.5687,-2.5687,-2.5687,-2.5687,-2.5687,-2.569,-2.5692,-2.5694,-2.5699,-2.5702,-2.5703,-2.6133,-2.6348,-2.6387,-2.6797,-2.6816,-2.6387,0.0,0.0,0.0,0.0,0.0,0.0,0.0,0.0,0.0,0.0,0.0,-2.8291,-2.8697,-2.9123,-2.9493,-2.9533,-2.9728,-3.0177,-3.1368,-3.2265,-3.2694,-3.4334,-3.5525,-3.5935,-3.6012,-3.6168,-3.6578,-3.6265,-3.6344,-3.7165,-3.7301,-3.7497,-3.7828,-3.7575,-3.6989,-3.613,-3.5642,-3.5193,-3.4782,-3.3964,-3.33,-3.2792,-3.2012,-3.1309,-3.0976,-3.1542,-3.2108,-3.2108,-3.2108,-3.2093,-3.2104,-3.2129,-3.2128,-3.2071,-3.2038,-3.1846,-3.1442,-3.1372,-3.1176,-3.0749,-3.0383,-3.0049,-3.003,-2.9719,-2.9408,-2.9389,-2.9075,-2.8874,-2.9279,-2.9373,-2.935,-3.0404,-3.0404,-3.0404,-3.0422,-3.0477,-3.0556,-3.0643,-3.0694,0.0,0.0,0.0,-3.08,-3.08,-3.08,-3.08,-3.08,-3.0781,-3.0664,-3.0235,-2.9592,-2.928,-2.8753,-2.803,-2.7172,-2.6763,-2.6743,-2.604,-2.5687,-2.5687,-2.5687,-2.5687,-2.5687,-2.5691,-2.5693,-2.5694,-2.57,-2.5702,-2.5703,-2.5703,-2.5781,-2.5918,-2.5918,-2.5918,-2.5937,-2.5937,-2.5859,-2.5703,-2.5703,-2.6094,-2.6953,-2.7148,-2.748,-2.8045,-2.8492,-2.8938,-2.9324,-2.9653,-3.0099,-3.0742,-3.08,-3.0878,-3.1016,-3.2498,-3.3827,-3.4842,-3.5582,-3.6305,-3.7009,-3.6422,-3.6305,-3.6968,-3.6441,-3.6285,-3.6988,-3.695,-3.6813,-3.6794,-3.607,-3.5211,-3.4354,-3.3651,-3.3123,-3.2947,-3.2343,-3.1875,-3.1797,-3.1289,-3.08,-3.08,-3.0878,-3.0956,-3.0956,-3.1034,-3.088,-3.0804,-3.0696,-3.0605,-3.0644,-3.0431,-3.0256,-3.027,-3.0255,-3.0241,-3.0108,-2.9622,-2.9249,-2.9114,-2.8667,-2.8123,-2.8104,-2.7987,-2.789,-2.789,-2.7773,-2.7786,-3.0404,-3.0404,-3.0404,-3.039,-3.0419,-3.0496,-3.0575,-3.0691,-3.077,-3.08,-3.08,-3.08,-3.08,-3.08,-3.08,-3.08,-3.0761,-3.0079,-2.9709,0.0,-2.805,-2.7289,-2.7133,-2.6273,-2.5884,-2.5864,-2.5747,-2.5687,-2.5687,-2.5687,-2.5687,-2.5687,-2.5688,-2.569,-2.5694,-2.5695,-2.5698,-2.5701,-2.5703,-2.6055,-2.6797,-2.6816,-2.6836,-2.6816,-2.6797,-2.6465,-2.5742,-2.5703,-2.6113,-2.6953,-2.7714,-2.783,-2.7302,-2.931,-2.9929,-2.8694,-2.9826,-3.0683,-3.08,-3.08,-3.1133,-3.1875,-3.2831,-3.4079,-3.566,-3.5914,-3.6051,-3.6168,-3.6051,-3.6031,-3.6168,-3.609,-3.6051,-3.609,-3.5525,-3.5076,-3.5057,-3.4334,-3.3494,-3.2638,-3.2383,-3.1973,-3.1425,-3.1133,-3.1055,-3.0997,-3.0917,-3.08,-3.08,-3.08,-3.08,-3.08,-3.08,-3.08,-3.0665,-3.016,-2.9818,-2.9687,-2.9101,-2.8755,-2.8772,-2.8749,-2.8743,-2.8541,-2.844,-2.832,-2.8278,-2.8201,-2.7968,-2.7871,-2.7446,-2.7077,-2.7039,-2.6553,-2.6488,-3.0404,-3.0404,-3.0404,-3.0404,-3.039,-3.0477,-3.056,-3.0647,-3.072,-3.0767,-3.08,-3.08,-3.08,-3.08,-3.08,-3.08,-3.0781,-3.0411,-2.9767,-2.885,-2.8069,-2.719,-2.6313,-2.5884,-2.5687,-2.5687,-2.5687,-2.5687,-2.5687,-2.5687,-2.5687,-2.5687,-2.5687,-2.5688,-2.569,-2.5693,-2.5694,-2.5697,-2.5702,-2.5879,-2.6289,-2.6309,-2.6289,-2.6309,-2.6289,-2.6133,-2.5723,-2.5703,-2.6113,-2.6972,-2.7831,-2.8123,-2.7807,-2.9737,-3.032,-2.9163,-3.0138,-3.08,-3.08,-3.08,-3.1172,-3.2013,-3.2461,-3.3222,-3.4489,-3.5465,-3.5797,-3.5369,-3.5699,-3.6012,-3.6012,-3.6012,-3.5797,-3.5329,-3.492,-3.4316,-3.3437,-3.2968,-3.2343,-3.1563,-3.1407,-3.125,-3.0859,-3.08,-3.08,-3.08,-3.08,-3.0781,-3.0742,-3.0411,-3.0294,-3.0644,-3.045,-3.0177,-3.0099,-2.9435,-2.8951,-2.8862,-2.8495,-2.8221,-2.8205,-2.8173,-2.8162,-2.8104,-2.7801,-2.7479,-2.7436,-2.7035,-2.6822,-2.6705,-2.6511,-2.6223,-2.6106,-2.5834,-2.5925,-3.0404,-3.0404,-3.0404,-3.0404,-3.039,-3.0465,-3.0524,-3.0571,-3.063,-3.0701,-3.0741,-3.0776,-3.08,-3.08,-3.08,-3.08,-3.0761,-3.041,-2.9533,-2.836,-2.7892,-2.6995,-2.5805,-2.5687,-2.5687,-2.5687,-2.5687,-2.5687,-2.5687,-2.5687,-2.5687,-2.5687,-2.5687,-2.5687,-2.5687,-2.5691,-2.5692,-2.5693,-2.5699,-2.5702,-2.5702,-2.5703,-2.5703,-2.5703,-2.5703,-2.5703,-2.5703,-2.5703,-2.6094,-2.6952,-2.7654,-2.8003,-2.8078,-2.9658,-3.0202,-2.9495,-3.0255,-3.08,-3.08,-3.08,-3.1094,-3.1738,-3.1993,-3.2304,-3.285,-3.4411,-3.5153,-3.4588,-3.4977,-3.5368,-3.5329,-3.5368,-3.5133,-3.4491,-3.4198,-3.3555,-3.2364,-3.1934,-3.1582,-3.0917,-3.08,-3.082,-3.08,-3.08,-3.0703,-3.0548,-3.0528,-3.0488,-3.0235,-2.9669,-2.963,-2.9884,-2.9708,-2.9357,-2.9259,-2.8576,-2.8069,-2.801,-2.7749,-2.7519,-2.7499,-2.7571,-2.7595,-2.7431,-2.7014,-2.6649,-2.6531,-2.6126,-2.5771,-2.5762,-2.5737,-2.5659,-2.5679,-2.564,-2.5601,-3.0404,-3.0404,-3.0404,-3.0404,-3.0404,-3.0416,-3.0436,-3.051,-3.0528,-3.056,-3.0626,-3.0735,-3.0799,-3.08,-3.08,-3.08,-3.0683,-2.924,-2.8479,-2.8147,-2.6663,-2.5844,-2.5726,-2.5687,-2.5687,-2.5687,-2.5687,-2.5687,-2.5687,-2.5687,-2.5687,-2.5687,-2.5687,-2.5687,-2.5687,-2.5687,-2.5687,-2.5688,-2.5693,-2.5698,-2.5702,-2.5703,-2.5703,-2.5703,-2.5703,-2.5703,-2.5703,-2.5702,-2.6112,-2.6911,-2.7084,-2.714,-2.7276,-2.8776,-2.9339,-2.8576,-2.9922,-3.08,-3.08,-3.08,-3.0839,-3.0956,-3.1641,-3.1777,-3.1269,-3.2655,-3.363,-3.3533,-3.3591,-3.3767,-3.365,-3.3728,-3.3728,-3.3533,-3.291,-3.2247,-3.2032,-3.1387,-3.0898,-3.082,-3.08,-3.08,-3.08,-3.0742,-3.045,-2.9923,-2.9728,-2.9474,-2.8928,-2.8576,-2.844,-2.8536,-2.844,-2.8401,-2.8303,-2.7699,-2.7211,-2.7074,-2.649,-2.6225,-2.621,-2.6152,-2.5955,-2.6351,-2.5996,-2.5888,-2.582,-2.5632,-2.5634,-2.5613,-2.5601,-2.5601,-2.5601,-2.5601,-2.5601,-3.0404,-3.0404,-3.0404,-3.0404,-3.0404,-3.0404,-3.0414,-3.0444,-3.0492,-3.0524,-3.0552,-3.0636,-3.0709,-3.0735,-3.0774,-3.08,-3.0703,-2.9591,-2.8771,-2.8225,-2.7015,-2.6196,-2.5726,-2.5687,-2.5687,-2.5687,-2.5687,-2.5687,-2.5687,-2.5687,-2.5687,-2.5687,-2.5687,-2.5687,-2.5687,-2.5687,-2.5687,-2.5687,-2.5691,-2.5696,-2.5698,-2.5701,-2.5702,-2.5702,-2.5702,-2.5702,-2.5701,-2.5701,-2.5876,-2.6244,-2.6711,-2.6767,-2.6277,-2.7875,-2.8674,-2.842,-2.9883,-3.08,-3.08,-3.08,-3.08,-3.08,-3.1133,-3.1153,-3.0859,-3.1464,-3.1874,-3.1971,-3.2791,-3.3396,-3.3357,-3.3377,-3.3221,-3.2714,-3.2285,-3.1914,-3.1348,-3.1036,-3.08,-3.08,-3.08,-3.08,-3.0722,-3.0392,-3.0001,-2.9573,-2.9201,-2.8635,-2.8302,-2.7874,-2.7543,-2.7444,-2.7132,-2.7035,-2.7309,-2.68,-2.6352,-2.6196,-2.5962,-2.5712,-2.5696,-2.5698,-2.5701,-2.5662,-2.5662,-2.5633,-2.5648,-2.56,-2.5607,-2.5609,-2.5604,-2.5601,-2.5601,-2.5601,-2.5601,-3.0404,-3.0404,-3.0404,-3.0404,-3.0404,-3.0404,-3.0404,-3.039,-3.0441,-3.0477,-3.0467,-3.0543,-3.0613,-3.0611,-3.0513,-3.0461,-3.0332,-2.9378,-2.8558,-2.7874,-2.7055,-2.6293,-2.5726,-2.5687,-2.5687,-2.5687,-2.5687,-2.5687,-2.5687,-2.5687,-2.5687,-2.5687,-2.5687,-2.5687,-2.5687,-2.5687,-2.5687,-2.5687,-2.5691,-2.5692,-2.5693,-2.5696,-2.5698,-2.57,-2.57,-2.57,-2.5699,-2.5699,-2.5697,-2.5711,-2.6298,-2.6374,-2.5824,-2.7112,-2.8049,-2.836,-2.9416,-3.0215,-3.045,-3.0468,-3.0587,-3.0761,-3.08,-3.08,-3.08,-3.08,-3.08,-3.0937,-3.1952,-3.2616,-3.2674,-3.2694,-3.2383,-3.1816,-3.1738,-3.1446,-3.0917,-3.08,-3.08,-3.08,-3.08,-3.08,-3.0683,-3.0138,-2.9553,-2.9181,-2.8479,-2.7795,-2.76,-2.7016,-2.6645,-2.6626,-2.6097,-2.604,-2.6469,-2.6215,-2.5746,-2.5687,-2.5687,-2.5687,-2.5687,-2.5687,-2.5688,-2.5682,-2.5702,-2.5684,-2.5652,-2.5636,-2.5618,-2.5604,-2.56,-2.5598,-2.56,-2.5615,-2.5596,-3.0404,-3.0404,-3.0404,-3.0404,-3.0404,-3.0404,-3.0404,-3.0404,-3.0396,-3.0396,-3.0419,-3.0457,-3.051,-3.046,-2.9902,-2.962,-2.9452,-2.805,-2.7269,-2.7055,-2.6235,-2.5766,-2.5707,-2.5687,-2.5687,-2.5687,-2.5687,-2.5687,-2.5687,-2.5687,-2.5687,-2.5687,-2.5687,-2.5687,-2.5687,-2.5687,-2.5687,-2.5687,-2.5687,-2.5688,-2.5688,-2.5688,-2.5694,-2.5699,-2.57,-2.5698,-2.5695,-2.5694,-2.5692,-2.5688,-2.5766,-2.5766,-2.5785,-2.6567,-2.7445,-2.8146,-2.8401,-2.881,-2.9513,-2.9629,-2.9941,-3.0604,-3.0678,-3.078,-3.0796,-3.0796,-3.0798,-3.08,-3.0977,-3.1093,-3.1093,-3.123,-3.1113,-3.0997,-3.0898,-3.0859,-3.082,-3.08,-3.08,-3.08,-3.08,-3.0742,-3.0722,-3.0118,-2.9201,-2.844,-2.76,-2.684,-2.6235,-2.5902,-2.5863,-2.5864,-2.5766,-2.5726,-2.5766,-2.5786,-2.5726,-2.5687,-2.5687,-2.5687,-2.5687,-2.5688,-2.5689,-2.5689,-2.5693,-2.5698,-2.5703,-2.5682,-2.5637,-2.5621,-2.5614,-2.5611,-2.5602,-2.5595,-2.5603,-3.0404,-3.0404,-3.0404,-3.0404,-3.0404,-3.0404,-3.0404,-3.0404,-3.0404,-3.0404,-3.039,-3.0431,-3.0471,-3.0448,-2.9705,-2.9413,-2.9365,-2.8314,-2.7543,-2.6958,-2.6098,-2.5687,-2.5687,-2.5687,-2.5687,-2.5687,-2.5687,-2.5687,-2.5687,-2.5687,-2.5687,-2.5687,-2.5687,-2.5687,-2.5687,-2.5687,-2.5687,-2.5687,-2.5687,-2.5687,-2.5687,-2.5687,-2.569,-2.5693,-2.5693,-2.5692,-2.569,-2.5689,-2.5688,-2.5687,-2.5687,-2.5687,-2.5786,-2.6528,-2.7107,-2.7404,-2.7963,-2.8414,-2.865,-2.8707,-2.9056,-2.985,-2.9925,-3.0161,-3.0591,-3.0734,-3.076,-3.0777,-3.0781,-3.08,-3.08,-3.08,-3.08,-3.08,-3.08,-3.08,-3.08,-3.08,-3.08,-3.08,-3.0781,-3.0625,-3.004,-2.9298,-2.844,-2.7582,-2.6723,-2.6118,-2.5825,-2.5687,-2.5687,-2.5687,-2.5687,-2.5687,-2.5707,-2.5707,-2.5687,-2.5687,-2.5687,-2.5687,-2.5687,-2.5687,-2.5688,-2.5688,-2.5688,-2.5694,-2.5702,-2.5663,-2.5641,-2.5638,-2.5621,-2.5621,-2.5607,-2.5603,-2.5602,-3.0404,-3.0404,-3.0404,-3.0404,-3.0404,-3.0404,-3.0404,-3.0404,-3.0404,-3.0404,-3.0404,-3.0404,-3.0411,-3.0342,-2.9612,-2.9139,-2.8888,-2.8181,-2.7405,-2.6586,-2.5981,-2.5687,-2.5687,-2.5687,-2.5687,-2.5687,-2.5687,-2.5687,-2.5687,-2.5687,-2.5687,-2.5687,-2.5687,-2.5687,-2.5687,-2.5687,-2.5687,-2.5687,-2.5687,-2.5687,-2.5687,-2.5687,-2.5687,-2.5687,-2.5687,-2.5687,-2.5687,-2.5687,-2.5687,-2.5687,-2.5687,-2.5687,-2.5765,-2.6227,-2.6532,-2.6581,-2.7064,-2.7511,-2.7751,-2.7758,-2.8116,-2.8931,-2.9018,-2.9265,-2.983,-3.0139,-3.0316,-3.0395,-3.0681,-3.08,-3.08,-3.08,-3.08,-3.08,-3.08,-3.08,-3.08,-3.08,-3.08,-3.0761,-3.0507,-3.0138,-2.9592,-2.8557,-2.7738,-2.7035,-2.6254,-2.5726,-2.5687,-2.5687,-2.5687,-2.5687,-2.5687,-2.5687,-2.5687,-2.5687,-2.5687,-2.5687,-2.5687,-2.5687,-2.5687,-2.5687,-2.5687,-2.5687,-2.569,-2.5695,-2.5681,-2.5644,-2.5643,-2.5642,-2.5641,-2.564,-2.5619,-2.5597,-2.5615,-3.0404,-3.0404,-3.0404,-3.0404,-3.0404,-3.0404,-3.0404,-3.0404,-3.0404,-3.0404,-3.0404,-3.0404,-3.039,-3.0246,-2.9579,-2.8808,-2.8102,-2.7433,-2.6638,-2.584,-2.5745,-2.5687,-2.5687,-2.5687,-2.5687,-2.5687,-2.5687,-2.5687,-2.5687,-2.5687,-2.5687,-2.5687,-2.5687,-2.5687,-2.5687,-2.5687,-2.5687,-2.5687,-2.5687,-2.5687,-2.5687,-2.5687,-2.5687,-2.5687,-2.5687,-2.5687,-2.5687,-2.5687,-2.5687,-2.5687,-2.5687,-2.5687,-2.5684,-2.572,-2.5694,-2.5765,-2.5682,-2.6031,-2.6758,-2.6823,-2.7167,-2.7919,-2.8074,-2.8142,-2.8472,-2.904,-2.9498,-2.9723,-3.0234,-3.0717,-3.0757,-3.0777,-3.0778,-3.08,-3.08,-3.08,-3.08,-3.08,-3.0781,-3.0644,-3.0157,-2.9651,-2.9221,-2.8148,-2.7113,-2.6762,-2.6196,-2.5687,-2.5687,-2.5687,-2.5687,-2.5687,-2.5687,-2.5687,-2.5687,-2.5687,-2.5687,-2.5687,-2.5687,-2.5687,-2.5687,-2.5687,-2.5687,-2.5687,-2.5687,-2.5692,-2.5692,-2.5661,-2.5679,-2.5681,-2.5682,-2.5664,-2.5664,-2.5644,-2.5644,-3.0404,-3.0404,-3.0404,-3.0404,-3.0404,-3.0404,-3.0404,-3.0404,-3.0404,-3.0404,-3.0404,-3.0404,-3.0404,-3.0221,-2.9564,-2.8736,-2.7972,-2.7212,-2.6414,-2.5736,-2.568,-2.5687,-2.5687,-2.5687,-2.5687,-2.5687,-2.5687,-2.5687,-2.5687,-2.5687,-2.5687,-2.5687,-2.5687,-2.5687,-2.5687,-2.5687,-2.5687,-2.5687,-2.5687,-2.5687,-2.5687,-2.5687,-2.5687,-2.5687,-2.5687,-2.5687,-2.5687,-2.5687,-2.5687,-2.5687,-2.5687,-2.5687,-2.5681,-2.5595,-2.5542,-2.5549,-2.5526,-2.5541,-2.5796,-2.5899,-2.623,-2.6916,-2.7093,-2.7406,-2.7939,-2.8267,-2.8732,-2.9249,-2.97,-3.0029,-3.0566,-3.073,-3.0721,-3.0778,-3.08,-3.08,-3.0781,-3.0761,-3.0509,-3.004,-2.9749,-2.9124,-2.811,-2.7095,-2.6762,-2.6254,-2.5884,-2.5707,-2.5687,-2.5687,-2.5687,-2.5687,-2.5687,-2.5687,-2.5687,-2.5687,-2.5687,-2.5687,-2.5687,-2.5687,-2.5687,-2.5687,-2.5687,-2.5687,-2.5687,-2.5687,-2.5687,-2.5687,-2.5687,-2.5687,-2.5695,-2.5695,-2.569,-2.5694,-2.5681,-3.0404,-3.0404,-3.0404,-3.0404,-3.0404,-3.0404,-3.0404,-3.0404,-3.0404,-3.0404,-3.0365,-3.0044,-2.9929,-2.9671,-2.8752,-2.7971,-2.7421,-2.6641,-2.6019,-2.5615,-2.5614,-2.5677,-2.5686,-2.5687,-2.5687,-2.5687,-2.5687,-2.5687,-2.5687,-2.5687,-2.5687,-2.5687,-2.5687,-2.5687,-2.5687,-2.5687,-2.5687,-2.5687,-2.5687,-2.5687,-2.5687,-2.5687,-2.5687,-2.5687,-2.5687,-2.5687,-2.5687,-2.5687,-2.5687,-2.5706,-2.568,-2.565,-2.5632,-2.5543,-2.5473,-2.5489,-2.5453,-2.541,-2.5387,-2.5421,-2.5554,-2.6066,-2.6155,-2.6343,-2.6938,-2.722,-2.7842,-2.8267,-2.9039,-2.9629,-3.0111,-3.0546,-3.0585,-3.0333,-3.062,-3.0761,-3.0761,-3.0528,-3.0196,-2.9631,-2.9026,-2.8148,-2.7348,-2.6626,-2.6372,-2.5805,-2.5687,-2.5687,-2.5687,-2.5687,-2.5687,-2.5687,-2.5687,-2.5687,-2.5687,-2.5687,-2.5687,-2.5687,-2.5687,-2.5687,-2.5687,-2.5687,-2.5687,-2.5687,-2.5687,-2.5687,-2.5687,-2.5687,-2.5687,-2.5687,-2.5687,-2.5688,-2.5688,-2.5688,-2.5694,-3.0404,-3.0404,-3.0404,-3.0404,-3.0404,-3.0404,-3.0404,-3.0404,-3.0404,-3.0346,-3.0121,-2.9525,-2.9127,-2.8703,-2.754,-2.6833,-2.6487,-2.5867,-2.5515,-2.5482,-2.5526,-2.5607,-2.5679,-2.5705,-2.5687,-2.5687,-2.5687,-2.5687,-2.5687,-2.5687,-2.5687,-2.5687,-2.5687,-2.5687,-2.5687,-2.5687,-2.5687,-2.5687,-2.5687,-2.5687,-2.5687,-2.5687,-2.5687,-2.5687,-2.5684,-2.5683,-2.5682,-2.5679,-2.568,-2.5682,-2.5614,-2.5554,-2.5504,-2.5432,-2.5418,-2.5496,-2.5389,-2.5367,-2.5361,-2.533,-2.5341,-2.5418,-2.5452,-2.5308,-2.5625,-2.6234,-2.6725,-2.7032,-2.819,-2.9126,-2.9379,-2.9883,-2.999,-2.9659,-2.9965,-3.035,-3.0547,-2.9923,-2.9436,-2.9085,-2.8031,-2.6958,-2.684,-2.6196,-2.5864,-2.5707,-2.5687,-2.5687,-2.5687,-2.5687,-2.5687,-2.5687,-2.5687,-2.5687,-2.5687,-2.5687,-2.5687,-2.5687,-2.5687,-2.5687,-2.5687,-2.5687,-2.5687,-2.5687,-2.5687,-2.5687,-2.5687,-2.5687,-2.5687,-2.5687,-2.5687,-2.5687,-2.5687,-2.5687,-2.5687,-3.0404,-3.0404,-3.0404,-3.0404,-3.0404,-3.0404,-3.0404,-3.0404,-3.0385,-3.0006,-2.9492,-2.9223,-2.8703,-2.8121,-2.7101,-2.6621,-2.6356,-2.5722,-2.5372,-2.5391,-2.5429,-2.5521,-2.5632,-2.568,-2.5706,-2.5706,-2.5707,-2.5687,-2.5687,-2.5687,-2.5687,-2.5687,-2.5687,-2.5687,-2.5687,-2.5687,-2.5687,-2.5687,-2.5687,-2.5687,-2.5687,-2.5706,-2.5687,-2.5706,-2.5648,-2.5637,-2.5613,-2.5565,-2.5587,-2.5609,-2.5515,-2.5473,-2.5463,-2.5379,-2.5357,-2.541,-2.5348,-2.5298,-2.5317,-2.5308,-2.5308,-2.5308,-2.5308,-2.5308,-2.5308,-2.551,-2.5976,-2.6458,-2.7161,-2.7675,-2.8237,-2.8605,-2.8618,-2.8617,-2.8789,-2.9002,-2.9024,-2.8791,-2.844,-2.7757,-2.7269,-2.6742,-2.6215,-2.5923,-2.5687,-2.5687,-2.5687,-2.5687,-2.5687,-2.5687,-2.5687,-2.5687,-2.5687,-2.5687,-2.5687,-2.5687,-2.5687,-2.5687,-2.5687,-2.5687,-2.5687,-2.5687,-2.5687,-2.5687,-2.5687,-2.5687,-2.5687,-2.5687,-2.5687,-2.5687,-2.5687,-2.5687,-2.5687,-2.5687,-2.5687,-3.0373,-3.0404,-3.0404,-3.0404,-3.0404,-3.0404,-3.0404,-3.0308,-2.9981,-2.9602,-2.903,-2.8319,-2.7799,-2.7294,-2.6447,-2.6058,-2.5981,-2.5538,-2.5356,-2.5367,-2.5398,-2.5463,-2.5549,-2.5616,-2.5651,-2.5673,-2.5683,-2.5687,-2.5687,-2.5687,-2.5687,-2.5687,-2.5687,-2.5687,-2.5687,-2.5687,-2.5687,-2.5687,-2.5687,-2.5687,-2.5687,-2.5658,-2.5653,-2.5645,-2.5598,-2.5574,-2.5544,-2.5498,-2.548,-2.5495,-2.5424,-2.5399,-2.5418,-2.5359,-2.5313,-2.5372,-2.5317,-2.5308,-2.5308,-2.5308,-2.5308,-2.5308,-2.5308,-2.5308,-2.5308,-2.5308,-2.5615,-2.5928,-2.6351,-2.6848,-2.7248,-2.7428,-2.7496,-2.7548,-2.7336,-2.7477,-2.8162,-2.7991,-2.7562,-2.7075,-2.6665,-2.6293,-2.5747,-2.5707,-2.5687,-2.5687,-2.5687,-2.5687,-2.5687,-2.5687,-2.5687,-2.5687,-2.5687,-2.5687,-2.5687,-2.5687,-2.5687,-2.5687,-2.5687,-2.5687,-2.5687,-2.5687,-2.5687,-2.5687,-2.5687,-2.5687,-2.5687,-2.5687,-2.5687,-2.5687,-2.5687,-2.5687,-2.5687,-2.5687,-2.5687,-3.0342,-3.0404,-3.0404,-3.0404,-3.0404,-3.0404,-3.0404,-3.025,-2.9717,-2.9204,-2.8684,-2.739,-2.6871,-2.6428,-2.5769,-2.5346,-2.5346,-2.5327,-2.5308,-2.5322,-2.5352,-2.5414,-2.547,-2.5547,-2.5591,-2.5601,-2.5651,-2.566,-2.5682,-2.5684,-2.5687,-2.5686,-2.5685,-2.5683,-2.5658,-2.5679,-2.5681,-2.568,-2.5653,-2.5655,-2.5654,-2.5614,-2.5595,-2.557,-2.5524,-2.5486,-2.5463,-2.5418,-2.5402,-2.5398,-2.5394,-2.5357,-2.5308,-2.5293,-2.5293,-2.5298,-2.5293,-2.5308,-2.5308,-2.5308,-2.5308,-2.5308,-2.5308,-2.5308,-2.5308,-2.5308,-2.5346,-2.5442,-2.6019,-2.6337,-2.6429,-2.6529,-2.6591,-2.6573,-2.5987,-2.6427,-2.7363,-2.7323,-2.6877,-2.684,-2.6137,-2.5786,-2.5687,-2.5687,-2.5687,-2.5687,-2.5687,-2.5687,-2.5687,-2.5687,-2.5687,-2.5687,-2.5687,-2.5687,-2.5687,-2.5687,-2.5687,-2.5687,-2.5687,-2.5687,-2.5687,-2.5687,-2.5687,-2.5687,-2.5687,-2.5687,-2.5687,-2.5687,-2.5687,-2.5687,-2.5687,-2.5687,-2.5687,-2.5687,-2.5687,-3.0342,-3.0404,-3.0404,-3.0404,-3.0404,-3.0404,-3.0404,-3.0365,-3.0173,-2.9256,-2.8294,-2.7722,-2.6794,-2.5615,-2.5462,-2.5308,-2.5308,-2.5308,-2.5308,-2.5313,-2.5303,-2.5327,-2.5374,-2.5463,-2.5515,-2.5554,-2.5593,-2.5614,-2.5639,-2.5655,-2.5687,-2.5684,-2.5644,-2.5632,-2.563,-2.5589,-2.5583,-2.5601,-2.5583,-2.5589,-2.5605,-2.5554,-2.5521,-2.5513,-2.5457,-2.5406,-2.5348,-2.5331,-2.5337,-2.5337,-2.5322,-2.5317,-2.5313,-2.5308,-2.5308,-2.5308,-2.5308,-2.5308,-2.5308,-2.5308,-2.5308,-2.5308,-2.5308,-2.5308,-2.5308,-2.5308,-2.5308,-2.5327,-2.5481,-2.5673,-2.5678,-2.5616,-2.5723,-2.5732,-2.5596,-2.5589,-2.5998,-2.6024,-2.6014,-2.5954,-2.5862,-2.5687,-2.5687,-2.5687,-2.5687,-2.5687,-2.5687,-2.5687,-2.5687,-2.5687,-2.5687,-2.5687,-2.5687,-2.5687,-2.5687,-2.5687,-2.5687,-2.5687,-2.5687,-2.5687,-2.5687,-2.5687,-2.5687,-2.5687,-2.5687,-2.5687,-2.5687,-2.5687,-2.5687,-2.5687,-2.5687,-2.5687,-2.5687,-2.5687,-2.5687,-3.0343,-3.0404,-3.0404,-3.0404,-3.0404,-3.0404,-3.0404,-3.0231,-2.95,-2.8756,-2.7838,-2.7121,-2.614,-2.538,-2.5692,-2.5731,-2.5365,-2.5308,-2.5308,-2.5308,-2.5288,-2.5308,-2.5298,-2.5365,-2.5414,-2.5457,-2.5521,-2.5576,-2.56,-2.5603,-2.563,-2.5647,-2.5591,-2.5569,-2.5566,-2.5515,-2.5524,-2.5539,-2.5524,-2.5532,-2.5565,-2.5504,-2.5429,-2.5406,-2.5374,-2.5336,-2.5298,-2.5293,-2.5308,-2.5308,-2.5308,-2.5308,-2.5308,-2.5308,-2.5308,-2.5308,-2.5308,-2.5308,-2.5308,-2.5308,-2.5308,-2.5308,-2.5308,-2.5308,-2.5308,-2.5308,-2.5308,-2.5308,-2.5308,-2.5308,-2.5308,-2.5308,-2.5327,-2.5345,-2.5348,-2.5386,-2.5446,-2.5513,-2.5587,-2.5639,-2.5668,-2.5658,-2.5682,-2.5685,-2.5687,-2.5687,-2.5687,-2.5687,-2.5687,-2.5687,-2.5687,-2.5687,-2.5687,-2.5687,-2.5687,-2.5687,-2.5687,-2.5687,-2.5687,-2.5687,-2.5687,-2.5687,-2.5687,-2.5687,-2.5687,-2.5687,-2.5687,-2.5687,-2.5687,-2.5687,-2.5687,-2.5687,-2.5687,-2.5687,-2.5687,-3.0343,-3.0379,-3.0404,-3.0404,-3.0404,-3.0404,-3.0404,-3.0173,-2.8909,-2.8506,-2.7871,-2.6442,-2.6231,-2.5731,-2.6231,-2.6058,-2.55,-2.5308,-2.5308,-2.5308,-2.5308,-2.5308,-2.5298,-2.5317,-2.535,-2.5375,-2.5453,-2.5513,-2.5532,-2.5551,-2.5544,-2.5578,-2.5518,-2.5489,-2.5505,-2.5473,-2.5467,-2.5483,-2.5463,-2.5486,-2.5504,-2.5424,-2.5361,-2.5331,-2.5313,-2.5322,-2.5308,-2.5308,-2.5308,-2.5308,-2.5308,-2.5308,-2.5308,-2.5308,-2.5308,-2.5308,-2.5308,-2.5308,-2.5308,-2.5308,-2.5308,-2.5308,-2.5308,-2.5308,-2.5308,-2.5308,-2.5308,-2.5308,-2.5308,-2.5308,-2.5308,-2.5308,-2.5308,-2.5293,-2.5293,-2.5331,-2.5363,-2.5439,-2.5495,-2.558,-2.5605,-2.5642,-2.5655,-2.5681,-2.5685,-2.5687,-2.5687,-2.5687,-2.5687,-2.5687,-2.5687,-2.5687,-2.5687,-2.5687,-2.5687,-2.5687,-2.5687,-2.5687,-2.5687,-2.5687,-2.5687,-2.5687,-2.5687,-2.5687,-2.5687,-2.5687,-2.5687,-2.5687,-2.5687,-2.5687,-2.5687,-2.5687,-2.5687,-2.5687,-2.5687,-3.0311,-3.0316,-3.0373,-3.0404,-3.0404,-3.0404,-3.0404,-3.0365,-2.9981,-2.9544,-2.8857,-2.8511,-2.7448,-2.6774,-2.6467,-2.6115,-2.5577,-2.5365,-2.5346,-2.5404,-2.5423,-2.5423,-2.5596,-2.5654,-2.5476,-2.5331,-2.5506,-2.5638,-2.5457,-2.5457,-2.5492,-2.5498,-2.545,-2.543,-2.541,-2.537,-2.5378,-2.5418,-2.5382,-2.5379,-2.5414,-2.5386,-2.5327,-2.5293,-2.5308,-2.5308,-2.5308,-2.5308,-2.5308,-2.5308,-2.5308,-2.5308,-2.5308,-2.5308,-2.5308,-2.5308,-2.5308,-2.5308,-2.5308,-2.5308,-2.5308,-2.5308,-2.5308,-2.5308,-2.5308,-2.5308,-2.5308,-2.5308,-2.5308,-2.5308,-2.5308,-2.5308,-2.5308,-2.5308,-2.5293,-2.5298,-2.5322,-2.5339,-2.5383,-2.5486,-2.5542,-2.5603,-2.5621,-2.5654,-2.5681,-2.5685,-2.5687,-2.5687,-2.5687,-2.5687,-2.5687,-2.5687,-2.5687,-2.5687,-2.5687,-2.5687,-2.5687,-2.5687,-2.5687,-2.5687,-2.5687,-2.5687,-2.5687,-2.5687,-2.5687,-2.5687,-2.5687,-2.5687,-2.5687,-2.5687,-2.5687,-2.5687,-2.5687,-2.5687,-2.5706,-3.0311,-3.031,-3.0373,-3.0404,-3.0404,-3.0404,-3.0404,-3.0327,-2.9929,-2.9506,-2.9063,-2.8646,-2.8082,-2.7409,-2.7274,-2.6774,-2.6077,-2.5442,-2.5577,-2.5846,-2.5981,-2.6269,-2.6519,-2.6596,-2.6327,-2.6265,-2.64,-2.6103,-2.548,-2.5398,-2.5433,-2.5425,-2.5386,-2.5359,-2.5354,-2.5322,-2.5317,-2.5345,-2.5322,-2.5317,-2.5398,-2.5376,-2.5326,-2.5298,-2.5308,-2.5308,-2.5308,-2.5308,-2.5308,-2.5308,-2.5308,-2.5308,-2.5308,-2.5308,-2.5308,-2.5308,-2.5308,-2.5308,-2.5308,-2.5308,-2.5308,-2.5308,-2.5308,-2.5308,-2.5308,-2.5308,-2.5308,-2.5308,-2.5308,-2.5308,-2.5308,-2.5308,-2.5308,-2.5308,-2.5308,-2.5308,-2.5308,-2.5308,-2.5339,-2.5399,-2.5446,-2.5513,-2.5603,-2.5639,-2.5654,-2.5681,-2.5686,-2.5687,-2.5687,-2.5687,-2.5687,-2.5687,-2.5687,-2.5687,-2.5687,-2.5687,-2.5687,-2.5687,-2.5687,-2.5687,-2.5687,-2.5687,-2.5687,-2.5687,-2.5687,-2.5687,-2.5687,-2.5687,-2.5687,-2.5687,-2.5687,-2.5687,-2.5687,-2.5687,-2.5706,-3.0311,-3.0298,-3.0373,-3.0404,-3.0404,-3.0404,-3.0404,-3.025,-2.9717,-2.9448,-2.928,-2.8761,-2.8415,-2.8126,-2.7876,-2.7472,-2.6813,-2.6135,-2.6346,-2.6736,-2.6871,-2.7255,-2.7678,-2.7832,-2.7467,-2.7024,-2.7323,-2.7007,-2.5715,-2.5615,-2.5538,-2.5406,-2.5322,-2.5308,-2.5293,-2.5293,-2.5308,-2.5308,-2.5313,-2.5317,-2.5365,-2.5378,-2.5352,-2.5298,-2.5308,-2.5308,-2.5308,-2.5308,-2.5308,-2.5308,-2.5308,-2.5308,-2.5308,-2.5308,-2.5308,-2.5308,-2.5308,-2.5308,-2.5308,-2.5308,-2.5308,-2.5308,-2.5308,-2.5308,-2.5308,-2.5308,-2.5308,-2.5308,-2.5308,-2.5308,-2.5308,-2.5308,-2.5308,-2.5308,-2.5308,-2.5308,-2.5308,-2.5308,-2.5308,-2.5326,-2.5357,-2.5414,-2.5513,-2.5603,-2.5641,-2.5653,-2.5659,-2.5687,-2.5687,-2.5687,-2.5687,-2.5687,-2.5687,-2.5687,-2.5687,-2.5687,-2.5687,-2.5687,-2.5687,-2.5687,-2.5687,-2.5687,-2.5687,-2.5687,-2.5687,-2.5687,-2.5687,-2.5687,-2.5687,-2.5687,-2.5687,-2.5687,-2.5687,-2.5707,-2.5706,-3.0312,-3.0305,-3.0361,-3.0404,-3.0404,-3.0404,-3.0404,-3.0365,-3.0231,-3.0269,-3.0115,-3.0038,-2.9563,-2.8896,-2.8198,-2.7876,-2.7659,-2.7486,-2.7428,-2.7698,-2.7755,-2.7857,-2.7972,-2.789,-2.8025,-2.7852,-2.7953,-2.6895,-2.603,-2.6169,-2.5986,-2.5553,-2.5385,-2.5308,-2.5308,-2.5308,-2.5308,-2.5308,-2.5308,-2.5317,-2.5327,-2.5337,-2.5303,-2.5293,-2.5308,-2.5308,-2.5308,-2.5308,-2.5308,-2.5308,-2.5308,-2.5308,-2.5308,-2.5308,-2.5308,-2.5308,-2.5308,-2.5308,-2.5308,-2.5308,-2.5308,-2.5308,-2.5308,-2.5308,-2.5308,-2.5308,-2.5308,-2.5308,-2.5308,-2.5308,-2.5308,-2.5308,-2.5308,-2.5308,-2.5308,-2.5308,-2.5308,-2.5308,-2.5308,-2.5293,-2.5317,-2.5357,-2.5414,-2.5518,-2.5603,-2.5618,-2.565,-2.568,-2.5686,-2.5686,-2.5687,-2.5687,-2.5687,-2.5687,-2.5687,-2.5687,-2.5687,-2.5687,-2.5687,-2.5687,-2.5687,-2.5687,-2.5687,-2.5687,-2.5687,-2.5687,-2.5687,-2.5687,-2.5687,-2.5687,-2.5687,-2.5687,-2.5687,-2.5706,-2.5705,-3.0312,-3.0312,-3.0343,-3.0373,-3.0404,-3.0404,-3.0404,-3.0404,-3.0404,-3.0404,-3.0404,-3.0404,-2.9929,-2.9165,-2.8684,-2.8338,-2.8005,-2.7967,-2.8198,-2.8525,-2.8621,-2.8813,-2.9269,-2.9275,-2.9159,-2.8736,-2.8871,-2.8486,-2.7332,-2.6558,-2.6327,-2.6038,-2.5558,-2.5308,-2.5308,-2.5308,-2.5308,-2.5308,-2.5308,-2.5308,-2.5308,-2.5308,-2.5308,-2.5308,-2.5308,-2.5308,-2.5308,-2.5308,-2.5308,-2.5308,-2.5308,-2.5308,-2.5308,-2.5308,-2.5308,-2.5308,-2.5308,-2.5308,-2.5308,-2.5308,-2.5308,-2.5308,-2.5308,-2.5308,-2.5308,-2.5308,-2.5308,-2.5308,-2.5308,-2.5308,-2.5308,-2.5308,-2.5308,-2.5308,-2.5308,-2.5308,-2.5308,-2.5308,-2.5308,-2.5308,-2.5293,-2.5336,-2.5352,-2.5421,-2.5513,-2.5549,-2.5576,-2.5618,-2.5653,-2.5681,-2.5684,-2.5687,-2.5687,-2.5687,-2.5687,-2.5687,-2.5687,-2.5687,-2.5687,-2.5687,-2.5687,-2.5687,-2.5687,-2.5687,-2.5687,-2.5687,-2.5687,-2.5687,-2.5687,-2.5687,-2.5687,-2.5687,-2.5687,-2.5703,-2.5699,-3.0273,-3.0312,-3.0336,-3.0342,-3.0373,-3.0398,-3.0404,-3.0404,-3.0404,-3.0404,-3.0404,-3.0385,-3.0025,-2.9544,-2.941,-2.9159,-2.8626,-2.853,-2.8871,-2.9256,-2.9486,-2.9756,-3.0019,-3.0231,-2.9967,-2.941,-2.9871,-2.9525,-2.8659,-2.7775,-2.7178,-2.664,-2.6024,-2.5558,-2.5346,-2.5308,-2.5308,-2.5308,-2.5308,-2.5308,-2.5308,-2.5308,-2.5308,-2.5308,-2.5308,-2.5308,-2.5308,-2.5308,-2.5308,-2.5308,-2.5308,-2.5308,-2.5308,-2.5308,-2.5308,-2.5308,-2.5308,-2.5308,-2.5308,-2.5308,-2.5308,-2.5308,-2.5308,-2.5308,-2.5308,-2.5308,-2.5308,-2.5308,-2.5308,-2.5308,-2.5308,-2.5308,-2.5308,-2.5308,-2.5308,-2.5308,-2.5308,-2.5308,-2.5308,-2.5308,-2.5308,-2.5308,-2.5327,-2.5344,-2.5399,-2.5473,-2.5524,-2.5563,-2.5613,-2.5651,-2.5682,-2.5707,-2.5687,-2.5687,-2.5687,-2.5687,-2.5687,-2.5687,-2.5687,-2.5687,-2.5687,-2.5687,-2.5687,-2.5687,-2.5687,-2.5687,-2.5687,-2.5687,-2.5687,-2.5687,-2.5687,-2.5687,-2.5706,-2.5702,-2.5694,-3.0233,-3.0318,-3.0355,-3.0373,-3.031,-3.0373,-3.0404,-3.0404,-3.0404,-3.0404,-3.0404,-3.0385,-3.0346,-3.0231,-3.0154,-3.0115,-3.0135,-3.0212,-3.0115,-3.0154,-3.0308,-3.0269,-3.0404,-3.0385,-3.0346,-3.0212,-3.0365,-3.0288,-2.9987,-2.9083,-2.7967,-2.6774,-2.6505,-2.6,-2.5596,-2.5385,-2.5308,-2.5308,-2.5308,-2.5308,-2.5308,-2.5308,-2.5308,-2.5308,-2.5308,-2.5308,-2.5308,-2.5308,-2.5308,-2.5308,-2.5308,-2.5308,-2.5308,-2.5308,-2.5308,-2.5308,-2.5308,-2.5308,-2.5308,-2.5308,-2.5308,-2.5308,-2.5308,-2.5308,-2.5308,-2.5308,-2.5308,-2.5308,-2.5308,-2.5308,-2.5308,-2.5308,-2.5308,-2.5308,-2.5308,-2.5308,-2.5308,-2.5308,-2.5308,-2.5308,-2.5308,-2.5308,-2.5308,-2.5327,-2.5354,-2.5395,-2.547,-2.5502,-2.56,-2.5645,-2.568,-2.5706,-2.5687,-2.5687,-2.5687,-2.5687,-2.5687,-2.5687,-2.5687,-2.5687,-2.5687,-2.5687,-2.5687,-2.5687,-2.5687,-2.5687,-2.5687,-2.5687,-2.5687,-2.5687,-2.5687,-2.5706,-2.5702,-2.5696,-2.5707,-3.0234,-3.026,-3.0349,-3.0379,-3.0373,-3.0379,-3.0404,-3.0404,-3.0404,-3.0404,-3.0404,-3.0404,-3.0404,-3.0404,-3.0404,-3.0404,-3.0404,-3.0404,-3.0404,-3.0404,-3.0385,-3.0404,-3.0404,-3.0404,-3.0385,-3.0404,-3.0404,-3.0404,-3.0288,-2.9948,-2.9294,-2.8255,-2.7255,-2.6538,-2.6077,-2.5635,-2.5365,-2.5308,-2.5308,-2.5308,-2.5308,-2.5308,-2.5308,-2.5308,-2.5308,-2.5308,-2.5308,-2.5308,-2.5308,-2.5308,-2.5308,-2.5308,-2.5308,-2.5308,-2.5308,-2.5308,-2.5308,-2.5308,-2.5308,-2.5308,-2.5308,-2.5308,-2.5308,-2.5308,-2.5308,-2.5308,-2.5308,-2.5308,-2.5308,-2.5308,-2.5308,-2.5308,-2.5308,-2.5308,-2.5308,-2.5308,-2.5308,-2.5308,-2.5308,-2.5308,-2.5308,-2.5308,-2.5308,-2.5293,-2.5313,-2.535,-2.5395,-2.5473,-2.5542,-2.5632,-2.565,-2.5682,-2.5684,-2.5687,-2.5687,-2.5687,-2.5687,-2.5687,-2.5687,-2.5687,-2.5687,-2.5687,-2.5687,-2.5687,-2.5687,-2.5687,-2.5687,-2.5687,-2.5687,-2.5687,-2.5706,-2.5704,-2.5698,-2.569,-2.5699,-3.0246,-3.0221,-3.0324,-3.038,-3.0373,-3.0404,-3.0404,-3.0404,-3.0404,-3.0404,-3.0404,-3.0404,-3.0404,-3.0404,-3.0404,-3.0404,-3.0404,-3.0404,-3.0404,-3.0404,-3.0404,-3.0404,-3.0404,-3.0404,-3.0404,-3.0404,-3.0404,-3.0404,-3.0404,-3.0404,-2.9962,-2.914,-2.814,-2.7467,-2.6813,-2.6154,-2.5577,-2.5346,-2.5308,-2.5308,-2.5308,-2.5308,-2.5308,-2.5308,-2.5308,-2.5308,-2.5308,-2.5308,-2.5308,-2.5308,-2.5308,-2.5308,-2.5308,-2.5308,-2.5308,-2.5308,-2.5308,-2.5308,-2.5308,-2.5308,-2.5308,-2.5308,-2.5308,-2.5308,-2.5308,-2.5308,-2.5308,-2.5308,-2.5308,-2.5308,-2.5308,-2.5308,-2.5308,-2.5308,-2.5308,-2.5308,-2.5308,-2.5308,-2.5308,-2.5308,-2.5308,-2.5308,-2.5308,-2.5308,-2.5317,-2.5327,-2.5386,-2.5432,-2.5486,-2.5549,-2.5614,-2.565,-2.5661,-2.5684,-2.5687,-2.5706,-2.5706,-2.5687,-2.5687,-2.5687,-2.5687,-2.5686,-2.5686,-2.5687,-2.5687,-2.5687,-2.5687,-2.5687,-2.5687,-2.5687,-2.5705,-2.5701,-2.5694,-2.5704,-2.5694,-3.0206,-3.0214,-3.0299,-3.0318,-3.031,-3.0373,-3.0404,-3.0379,-3.0404,-3.0404,-3.0404,-3.0404,-3.0404,-3.0404,-3.0404,-3.0404,-3.0404,-3.0404,-3.0404,-3.0404,-3.0404,-3.0404,-3.0404,-3.0404,-3.0404,-3.0404,-3.0404,-3.0404,-3.0404,-3.0404,-3.0288,-3.0102,-2.9256,-2.8371,-2.7813,-2.6986,-2.6159,-2.5423,-2.5308,-2.5327,-2.5462,-2.55,-2.55,-2.5519,-2.5519,-2.5558,-2.5308,-2.5308,-2.5308,-2.5308,-2.5308,-2.5308,-2.5308,-2.5308,-2.5308,-2.5308,-2.5308,-2.5308,-2.5308,-2.5308,-2.5308,-2.5308,-2.5308,-2.5308,-2.5308,-2.5308,-2.5308,-2.5308,-2.5308,-2.5308,-2.5308,-2.5308,-2.5308,-2.5308,-2.5308,-2.5308,-2.5308,-2.5308,-2.5308,-2.5308,-2.5308,-2.5308,-2.5308,-2.5308,-2.5308,-2.5322,-2.5365,-2.5418,-2.5439,-2.5486,-2.5547,-2.5598,-2.5616,-2.5619,-2.5644,-2.568,-2.5704,-2.5686,-2.5683,-2.5677,-2.5657,-2.5655,-2.5659,-2.5684,-2.5687,-2.5687,-2.5687,-2.5706,-2.5679,-2.5648,-2.5698,-2.5696,-2.5689,-2.5699,-2.5689,-3.0219,-3.0214,-3.0273,-3.0311,-3.031,-3.0373,-3.0373,-3.0342,-3.0379,-3.0404,-3.0404,-3.0404,-3.0404,-3.0404,-3.0404,-3.0404,-3.0404,-3.0404,-3.0404,-3.0404,-3.0404,-3.0404,-3.0404,-3.0404,-3.0404,-3.0404,-3.0404,-3.0404,-3.0404,-3.0404,-3.0404,-3.025,-2.9942,-2.8846,-2.75,-2.6621,-2.6178,-2.5462,-2.5346,-2.5538,-2.6077,-2.6154,-2.614,-2.6115,-2.6077,-2.5827,-2.5341,-2.5308,-2.5308,-2.5308,-2.5308,-2.5308,-2.5308,-2.5308,-2.5308,-2.5308,-2.5308,-2.5308,-2.5308,-2.5308,-2.5308,-2.5308,-2.5308,-2.5308,-2.5308,-2.5308,-2.5308,-2.5308,-2.5308,-2.5308,-2.5308,-2.5308,-2.5308,-2.5308,-2.5308,-2.5308,-2.5308,-2.5308,-2.5308,-2.5308,-2.5308,-2.5308,-2.5308,-2.5308,-2.5308,-2.5308,-2.5345,-2.537,-2.5391,-2.5414,-2.5467,-2.5513,-2.5539,-2.5549,-2.5563,-2.5609,-2.563,-2.5601,-2.5601,-2.5601,-2.5605,-2.5613,-2.5616,-2.5618,-2.5655,-2.5687,-2.5679,-2.5645,-2.5605,-2.5595,-2.5629,-2.5657,-2.5668,-2.5683,-2.5703,-3.0166,-3.0104,-3.0214,-3.0227,-3.0202,-3.0305,-3.0367,-3.0342,-3.0379,-3.0404,-3.0404,-3.0404,-3.0404,-3.0404,-3.0404,-3.0404,-3.0404,-3.0404,-3.0404,-3.0404,-3.0404,-3.0404,-3.0404,-3.0404,-3.0404,-3.0404,-3.0404,-3.0404,-3.0404,-3.0404,-3.0404,-3.0404,-3.0365,-2.9327,-2.8102,-2.7544,-2.7198,-2.6621,-2.6467,-2.6582,-2.6928,-2.7005,-2.6871,-2.6659,-2.6447,-2.6197,-2.5558,-2.5308,-2.5308,-2.5308,-2.5308,-2.5308,-2.5308,-2.5308,-2.5308,-2.5308,-2.5308,-2.5308,-2.5308,-2.5308,-2.5308,-2.5308,-2.5308,-2.5308,-2.5308,-2.5308,-2.5308,-2.5308,-2.5308,-2.5308,-2.5308,-2.5308,-2.5308,-2.5308,-2.5308,-2.5308,-2.5308,-2.5308,-2.5308,-2.5308,-2.5308,-2.5308,-2.5308,-2.5308,-2.5308,-2.5308,-2.5293,-2.534,-2.5361,-2.539,-2.541,-2.5439,-2.5486,-2.551,-2.5524,-2.5542,-2.5537,-2.551,-2.5518,-2.5534,-2.5542,-2.5549,-2.5554,-2.5578,-2.5593,-2.5605,-2.5627,-2.5591,-2.5561,-2.5551,-2.5564,-2.5593,-2.5634,-2.5632,-2.5649,-3.0064,-2.9929,-3.0104,-3.0056,-2.9977,-3.0196,-3.0336,-3.0404,-3.0404,-3.0404,-3.0404,-3.0404,-3.0404,-3.0404,-3.0404,-3.0404,-3.0404,-3.0404,-3.0404,-3.0404,-3.0404,-3.0404,-3.0404,-3.0404,-3.0404,-3.0404,-3.0404,-3.0404,-3.0404,-3.0404,-3.0404,-3.0404,-3.0404,-2.9731,-2.9179,-2.8852,-2.8371,-2.7659,-2.739,-2.7544,-2.7832,-2.7915,-2.7621,-2.7313,-2.6928,-2.639,-2.5808,-2.5423,-2.5327,-2.5308,-2.5308,-2.5308,-2.5308,-2.5308,-2.5308,-2.5308,-2.5308,-2.5308,-2.5308,-2.5308,-2.5308,-2.5308,-2.5308,-2.5308,-2.5308,-2.5308,-2.5308,-2.5308,-2.5308,-2.5308,-2.5308,-2.5308,-2.5308,-2.5308,-2.5308,-2.5308,-2.5308,-2.5308,-2.5308,-2.5308,-2.5308,-2.5308,-2.5308,-2.5308,-2.5308,-2.5308,-2.5308,-2.5298,-2.534,-2.5352,-2.5374,-2.5386,-2.5421,-2.5489,-2.5483,-2.546,-2.5463,-2.5452,-2.5467,-2.5489,-2.5492,-2.5489,-2.5498,-2.5501,-2.5504,-2.5532,-2.554,-2.5532,-2.5508,-2.5502,-2.5486,-2.5525,-2.5547,-2.5535,-2.5525,-2.9872,-2.9707,-2.9913,-2.995,-2.9946,-3.0196,-3.0342,-3.0404,-3.0404,-3.0404,-3.0404,-3.0404,-3.0404,-3.0404,-3.0404,-3.0404,-3.0404,-3.0404,-3.0404,-3.0404,-3.0404,-3.0404,-3.0404,-3.0404,-3.0404,-3.0404,-3.0404,-3.0404,-3.0404,-3.0404,-3.0404,-3.0404,-3.0404,-3.0135,-3.0058,-3.0,-2.9102,-2.8409,-2.8159,-2.839,-2.8659,-2.8761,-2.8472,-2.8198,-2.7698,-2.7063,-2.6313,-2.5635,-2.5442,-2.5308,-2.5308,-2.5308,-2.5308,-2.5308,-2.5308,-2.5308,-2.5308,-2.5308,-2.5308,-2.5308,-2.5308,-2.5308,-2.5308,-2.5308,-2.5308,-2.5308,-2.5308,-2.5308,-2.5308,-2.5308,-2.5308,-2.5308,-2.5308,-2.5308,-2.5308,-2.5308,-2.5308,-2.5308,-2.5308,-2.5308,-2.5308,-2.5308,-2.5308,-2.5308,-2.5308,-2.5308,-2.5308,-2.5308,-2.5298,-2.5336,-2.5354,-2.5344,-2.5357,-2.5406,-2.5406,-2.5383,-2.5382,-2.537,-2.5395,-2.541,-2.5383,-2.5387,-2.5414,-2.5432,-2.5462,-2.5459,-2.5436,-2.5444,-2.5433,-2.5378,-2.5352,-2.5414,-2.5457,-2.5445,-2.5437,-2.9777,-2.9644,-2.9822,-2.995,-3.0078,-3.0235,-3.0349,-3.0379,-3.0404,-3.0404,-3.0404,-3.0404,-3.0404,-3.0404,-3.0404,-3.0404,-3.0404,-3.0404,-3.0404,-3.0404,-3.0404,-3.0404,-3.0404,-3.0404,-3.0404,-3.0404,-3.0404,-3.0404,-3.0404,-3.0404,-3.0404,-3.0404,-3.0404,-3.0404,-3.0346,-3.025,-2.9865,-2.9294,-2.9025,-2.9217,-2.939,-2.9544,-2.9448,-2.9069,-2.853,-2.7794,-2.6794,-2.6019,-2.5712,-2.5385,-2.5308,-2.5308,-2.5308,-2.5308,-2.5308,-2.5308,-2.5308,-2.5308,-2.5308,-2.5308,-2.5308,-2.5308,-2.5308,-2.5308,-2.5308,-2.5308,-2.5308,-2.5308,-2.5308,-2.5308,-2.5308,-2.5308,-2.5308,-2.5308,-2.5308,-2.5308,-2.5308,-2.5308,-2.5308,-2.5308,-2.5308,-2.5308,-2.5308,-2.5308,-2.5308,-2.5308,-2.5308,-2.5308,-2.5308,-2.5303,-2.5313,-2.5317,-2.5313,-2.5322,-2.5322,-2.5317,-2.5336,-2.5336,-2.533,-2.533,-2.5303,-2.5317,-2.5352,-2.5378,-2.5394,-2.5386,-2.5378,-2.5361,-2.5344,-2.5308,-2.5303,-2.5322,-2.535,-2.5312,-2.5307,-2.9725,-2.9561,-2.9777,-3.0007,-3.026,-3.0279,-3.0324,-3.0398,-3.0404,-3.0404,-3.0404,-3.0404,-3.0404,-3.0404,-3.0404,-3.0404,-3.0404,-3.0404,-3.0404,-3.0404,-3.0404,-3.0404,-3.0404,-3.0404,-3.0404,-3.0404,-3.0404,-3.0404,-3.0404,-3.0404,-3.0404,-3.0404,-3.0404,-3.0404,-3.0404,-3.0404,-3.0173,-3.0038,-2.9942,-3.0096,-3.0192,-3.0231,-3.0038,-2.9396,-2.8934,-2.8434,-2.7274,-2.6601,-2.6236,-2.5692,-2.5308,-2.5327,-2.5308,-2.5308,-2.5308,-2.5308,-2.5308,-2.5308,-2.5308,-2.5308,-2.5308,-2.5308,-2.5308,-2.5308,-2.5308,-2.5308,-2.5308,-2.5308,-2.5308,-2.5308,-2.5308,-2.5308,-2.5308,-2.5308,-2.5308,-2.5308,-2.5308,-2.5308,-2.5308,-2.5308,-2.5308,-2.5308,-2.5308,-2.5308,-2.5308,-2.5308,-2.5308,-2.5308,-2.5308,-2.5308,-2.5308,-2.5308,-2.5308,-2.5308,-2.5293,-2.5308,-2.5298,-2.5298,-2.5298,-2.5298,-2.5298,-2.5293,-2.5308,-2.5327,-2.5359,-2.5331,-2.5313,-2.5317,-2.5322,-2.5303,-2.5298,-2.5283,-2.5259,-2.5234,-2.5238,-2.9314,-2.9174,-2.9541,-2.9817,-3.0078,-3.0227,-3.0324,-3.0404,-3.0404,-3.0404,-3.0404,-3.0404,-3.0404,-3.0404,-3.0404,-3.0404,-3.0404,-3.0404,-3.0404,-3.0404,-3.0404,-3.0404,-3.0404,-3.0404,-3.0404,-3.0404,-3.0404,-3.0404,-3.0404,-3.0404,-3.0404,-3.0404,-3.0404,-3.0404,-3.0404,-3.0404,-3.0404,-3.0404,-3.0404,-3.0404,-3.0404,-3.0404,-3.0212,-2.9852,-2.9525,-2.905,-2.8044,-2.7217,-2.6774,-2.625,-2.5596,-2.5365,-2.5308,-2.5308,-2.5308,-2.5308,-2.5308,-2.5308,-2.5308,-2.5308,-2.5308,-2.5308,-2.5308,-2.5308,-2.5308,-2.5308,-2.5308,-2.5308,-2.5308,-2.5308,-2.5308,-2.5308,-2.5308,-2.5308,-2.5308,-2.5308,-2.5308,-2.5308,-2.5308,-2.5308,-2.5308,-2.5308,-2.5308,-2.5308,-2.5308,-2.5308,-2.5308,-2.5308,-2.5308,-2.5308,-2.5308,-2.5308,-2.5308,-2.5308,-2.5308,-2.5308,-2.5308,-2.5308,-2.5293,-2.5293,-2.5308,-2.5308,-2.5308,-2.5308,-2.5298,-2.5308,-2.5308,-2.5293,-2.5293,-2.5308,-2.5298,-2.5278,-2.5238,-2.5228,-2.5209,-2.8165,-2.8101,-2.8372,-2.8644,-2.8979,-2.9474,-2.9754,-2.9879,-3.0212,-3.0404,-3.0404,-3.0404,-3.0404,-3.0404,-3.0404,-3.0404,-3.0404,-3.0404,-3.0404,-3.0404,-3.0404,-3.0404,-3.0404,-3.0404,-3.0404,-3.0404,-3.0404,-3.0404,-3.0404,-3.0404,-3.0404,-3.0404,-3.0404,-3.0404,-3.0404,-3.0404,-3.0404,-3.0404,-3.0404,-3.0404,-3.0404,-3.0404,-3.0404,-3.0173,-2.9967,-2.9506,-2.8915,-2.8025,-2.7428,-2.6621,-2.5731,-2.5385,-2.5308,-2.5308,-2.5308,-2.5308,-2.5308,-2.5308,-2.5308,-2.5308,-2.5308,-2.5308,-2.5308,-2.5308,-2.5308,-2.5308,-2.5308,-2.5308,-2.5308,-2.5308,-2.5308,-2.5308,-2.5308,-2.5308,-2.5308,-2.5308,-2.5308,-2.5308,-2.5308,-2.5308,-2.5308,-2.5308,-2.5308,-2.5308,-2.5308,-2.5308,-2.5308,-2.5308,-2.5308,-2.5308,-2.5308,-2.5308,-2.5308,-2.5308,-2.5308,-2.5308,-2.5308,-2.5308,-2.5308,-2.5308,-2.5308,-2.5308,-2.5308,-2.5308,-2.5308,-2.5308,-2.5308,-2.5308,-2.5308,-2.5308,-2.5293,-2.5278,-2.5233,-2.5206,-2.5212,-2.6915,-2.6879,-2.7043,-2.7261,-2.7599,-2.8581,-2.9076,-2.9264,-3.0,-3.0398,-3.0404,-3.0404,-3.0404,-3.0404,-3.0404,-3.0404,-3.0404,-3.0404,-3.0404,-3.0404,-3.0404,-3.0404,-3.0404,-3.0404,-3.0404,-3.0404,-3.0404,-3.0404,-3.0404,-3.0404,-3.0404,-3.0404,-3.0404,-3.0404,-3.0404,-3.0404,-3.0404,-3.0404,-3.0404,-3.0404,-3.0404,-3.0404,-3.0404,-3.0404,-3.0327,-2.9987,-2.9486,-2.8896,-2.8179,-2.7063,-2.5923,-2.5442,-2.5308,-2.5308,-2.5308,-2.5308,-2.5308,-2.5308,-2.5308,-2.5308,-2.5308,-2.5308,-2.5308,-2.5308,-2.5308,-2.5308,-2.5308,-2.5308,-2.5308,-2.5308,-2.5308,-2.5308,-2.5308,-2.5308,-2.5308,-2.5308,-2.5308,-2.5308,-2.5308,-2.5308,-2.5308,-2.5308,-2.5308,-2.5308,-2.5308,-2.5308,-2.5308,-2.5308,-2.5308,-2.5308,-2.5308,-2.5308,-2.5308,-2.5308,-2.5308,-2.5308,-2.5308,-2.5308,-2.5308,-2.5308,-2.5308,-2.5308,-2.5308,-2.5308,-2.5308,-2.5308,-2.5308,-2.5308,-2.5308,-2.5308,-2.5298,-2.5283,-2.5228,-2.5201,-2.5212,-2.6667,-2.668,-2.698,-2.715,-2.7392,-2.8483,-2.9046,-2.921,-2.9951,-3.0342,-3.0379,-3.0404,-3.0404,-3.0404,-3.0404,-3.0404,-3.0404,-3.0404,-3.0404,-3.0404,-3.0404,-3.0404,-3.0404,-3.0404,-3.0404,-3.0404,-3.0404,-3.0404,-3.0404,-3.0404,-3.0404,-3.0404,-3.0404,-3.0404,-3.0404,-3.0404,-3.0404,-3.0404,-3.0404,-3.0404,-3.0404,-3.0404,-3.0404,-3.0404,-3.0385,-3.0288,-3.0025,-2.9434,-2.8626,-2.7525,-2.6212,-2.5519,-2.5308,-2.5308,-2.5308,-2.5308,-2.5308,-2.5308,-2.5308,-2.5308,-2.5308,-2.5308,-2.5308,-2.5308,-2.5308,-2.5308,-2.5308,-2.5308,-2.5308,-2.5308,-2.5308,-2.5308,-2.5308,-2.5308,-2.5308,-2.5308,-2.5308,-2.5308,-2.5308,-2.5308,-2.5308,-2.5308,-2.5308,-2.5308,-2.5308,-2.5308,-2.5308,-2.5308,-2.5308,-2.5308,-2.5308,-2.5308,-2.5308,-2.5308,-2.5308,-2.5308,-2.5308,-2.5308,-2.5308,-2.5308,-2.5308,-2.5308,-2.5308,-2.5308,-2.5308,-2.5308,-2.5308,-2.5308,-2.5308,-2.5308,-2.5303,-2.5288,-2.5233,-2.522,-2.5212]},{"header":{"parameterUnit":"m.s-1","parameterCategory":1,"la1":31.0,"la2":29.5877,"lo1":-88.7671,"lo2":-86.6584,"dy":0.0162,"dx":0.0185,"nx":115,"ny":88,"refTime":"2024-07-25T06:00:00:Z","depth":0,"parameterNumber":3,"parameterNumberName":"V-component_of_WINDS"},"data":[0.0,0.0,0.0,0.0,0.0,0.0,0.0,0.0,0.0,0.0,0.0,0.0,0.0,0.0,0.0,0.0,0.0,0.0,0.0,0.0,0.0,0.0,0.0,0.0,0.0,0.0,0.0,0.0,0.0,0.0,0.0,0.0,0.0,0.0,0.0,0.0,0.0,0.0,0.0,0.0,0.0,0.0,0.0,0.0,0.0,0.0,0.0,0.0,0.0,0.0,0.0,0.0,0.0,0.0,0.0,0.0,0.0,0.0,0.0,0.0,0.0,0.0,0.0,0.0,0.0,0.0,0.0,0.0,0.0,0.0,0.0,0.0,0.0,0.0,0.0,0.0,0.0,0.0,0.0,0.0,0.0,0.0,0.0,0.0,0.0,0.0,0.0,0.0,0.0,0.0,0.0,0.0,0.0,0.0,0.0,0.0,0.0,0.0,0.0,0.0,0.0,0.0,0.0,0.0,0.0,0.0,0.0,0.0,0.0,0.0,0.0,0.0,0.0,0.0,0.0,0.0,0.0,0.0,0.0,0.0,0.0,0.0,0.0,0.0,0.0,0.0,0.0,0.0,0.0,0.0,0.0,0.0,0.0,0.0,0.0,0.0,0.0,0.0,0.0,0.0,0.0,0.0,0.0,0.0,0.0,0.0,0.0,0.0,0.0,0.0,0.0,0.0,0.0,0.0,0.0,0.0,0.0,0.0,0.0,0.0,0.0,0.0,0.0,0.0,0.0,0.0,0.0,0.0,0.0,0.0,0.0,0.0,0.0,0.0,0.0,0.0,0.0,0.0,0.0,0.0,0.0,0.0,0.0,0.0,0.0,0.0,0.0,0.0,0.0,0.0,0.0,0.0,0.0,0.0,0.0,0.0,0.0,0.0,0.0,0.0,0.0,0.0,0.0,0.0,0.0,0.0,0.0,0.0,0.0,0.0,0.0,0.0,0.0,0.0,0.0,0.0,0.0,0.0,0.0,0.0,0.0,0.0,0.0,0.0,0.0,0.0,0.0,0.0,0.0,0.0,0.0,0.0,0.0,0.0,0.0,0.0,0.0,0.0,0.0,0.0,0.0,0.0,0.0,0.0,0.0,0.0,0.0,0.0,0.0,0.0,0.0,0.0,0.0,0.0,0.0,0.0,0.0,0.0,0.0,0.0,0.0,0.0,0.0,0.0,0.0,0.0,0.0,0.0,0.0,0.0,0.0,0.0,0.0,0.0,0.0,0.0,0.0,0.0,0.0,0.0,0.0,0.0,0.0,0.0,0.0,0.0,0.0,0.0,0.0,0.0,0.0,0.0,0.0,0.0,0.0,0.0,0.0,0.0,0.0,0.0,0.0,0.0,0.0,0.0,0.0,0.0,0.0,0.0,0.0,0.0,0.0,0.0,0.0,0.0,0.0,0.0,0.0,0.0,0.0,0.0,0.0,0.0,0.0,0.0,0.0,0.0,0.0,0.0,0.0,0.0,0.0,0.0,0.0,0.0,0.0,0.0,0.0,0.0,0.0,0.0,0.0,0.0,0.0,0.0,0.0,0.0,0.0,0.0,0.0,0.0,0.0,0.0,0.0,0.0,0.0,0.0,0.0,0.0,0.0,0.0,0.0,0.0,0.0,0.0,0.0,0.0,0.0,0.0,0.0,0.0,0.0,0.0,0.0,0.0,0.0,0.0,0.0,0.0,0.0,0.0,0.0,0.0,0.0,0.0,0.0,0.0,0.0,0.0,0.0,0.0,0.0,0.0,0.0,0.0,0.0,0.0,0.0,0.0,0.0,0.0,0.0,0.0,0.0,0.0,0.0,0.0,0.0,0.0,0.0,0.0,0.0,0.0,0.0,0.0,0.0,0.0,0.0,0.0,0.0,0.0,0.0,0.0,0.0,0.0,0.0,0.0,0.0,0.0,0.0,0.0,0.0,0.0,0.0,0.0,0.0,0.0,0.0,0.0,0.0,0.0,0.0,0.0,0.0,0.0,0.0,0.0,0.0,0.0,0.0,0.0,0.0,0.0,0.0,0.0,0.0,0.0,0.0,0.0,0.0,0.0,0.0,0.0,0.0,0.0,0.0,0.0,0.0,0.0,0.0,0.0,0.0,0.0,0.0,0.0,0.0,0.0,0.0,0.0,0.0,0.0,0.0,0.0,0.0,0.0,0.0,0.0,0.0,0.0,0.0,0.0,0.0,0.0,0.0,0.0,0.0,0.0,0.0,0.0,0.0,0.0,0.0,0.0,0.0,0.0,0.0,0.0,0.0,0.0,0.0,0.0,0.0,0.0,0.0,0.0,0.0,0.0,0.0,0.0,0.0,0.0,0.0,0.0,0.0,0.0,0.0,0.0,0.0,0.0,0.0,0.0,0.0,0.0,0.0,0.0,0.0,0.0,0.0,0.0,0.0,0.0,0.0,0.0,0.0,0.0,0.0,0.0,0.0,0.0,0.0,0.0,0.0,0.0,0.0,0.0,0.0,0.0,0.0,0.0,0.0,0.0,0.0,0.0,0.0,0.0,0.0,0.0,0.0,0.0,0.0,0.0,0.0,0.0,0.0,0.0,0.0,0.0,0.0,0.0,0.0,0.0,0.0,0.0,0.0,0.0,0.0,0.0,0.0,0.0,0.0,0.0,0.0,0.0,0.0,0.0,0.0,0.0,0.0,0.0,0.0,0.0,0.0,0.0,0.0,0.0,0.0,0.0,0.0,0.0,0.0,0.0,0.0,0.0,0.0,0.0,0.0,0.0,0.0,0.0,0.0,0.0,0.0,0.0,0.0,0.0,0.0,0.0,0.0,0.0,0.0,0.0,0.0,0.0,0.0,0.0,0.0,0.0,0.0,0.0,0.0,0.0,0.0,0.0,0.0,0.0,0.0,0.0,0.0,0.0,0.0,0.0,0.0,0.0,0.0,0.0,0.0,0.0,0.0,0.0,0.0,0.0,0.0,0.0,0.0,0.0,0.0,0.0,0.0,0.0,0.0,0.0,0.0,0.0,0.0,0.0,0.0,0.0,0.0,0.0,0.0,0.0,0.0,0.0,0.0,0.0,0.0,0.0,0.0,0.0,0.0,0.0,0.0,0.0,0.0,0.0,0.0,0.0,0.0,0.0,0.0,0.0,0.0,0.0,0.0,0.0,0.0,0.0,0.0,0.0,0.0,0.0,0.0,0.0,0.0,0.0,0.0,0.0,0.0,0.0,0.0,0.0,0.0,0.0,0.0,0.0,0.0,0.0,0.0,0.0,0.0,0.0,0.0,0.0,0.0,0.0,0.0,0.0,0.0,0.0,0.0,0.0,0.0,0.0,0.0,0.0,0.0,0.0,0.0,0.0,0.0,0.0,0.0,0.0,0.0,0.0,0.0,0.0,0.0,0.0,0.0,0.0,0.0,0.0,0.0,0.0,0.0,0.0,0.0,0.0,0.0,0.0,0.0,0.0,0.0,0.0,0.0,0.0,0.0,0.0,0.0,0.0,0.0,0.0,0.0,0.0,0.0,0.0,0.0,0.0,0.0,0.0,0.0,0.0,0.0,0.0,0.0,0.0,0.0,0.0,0.0,0.0,0.0,0.0,0.0,0.0,0.0,0.0,0.0,0.0,0.0,0.0,0.0,0.0,0.0,0.0,0.0,0.0,0.0,0.0,0.0,0.0,0.0,0.0,0.0,0.0,0.0,0.0,0.0,0.0,0.0,0.0,0.0,0.0,0.0,0.0,0.0,0.0,0.0,0.0,0.0,0.0,0.0,0.0,0.0,0.0,0.0,0.0,0.0,0.0,0.0,0.0,0.0,0.0,0.0,0.0,0.0,0.0,0.0,0.0,0.0,0.0,0.0,0.0,0.0,0.0,0.0,0.0,0.0,0.0,0.0,0.0,0.0,0.0,0.0,0.0,0.0,0.0,0.0,0.0,0.0,0.0,0.0,0.0,0.0,0.0,0.0,0.0,0.0,0.0,0.0,0.0,0.0,0.0,0.0,0.0,0.0,0.0,0.0,0.0,0.0,0.0,0.0,0.0,0.0,0.0,0.0,0.0,0.0,0.0,0.0,0.0,0.0,0.0,0.0,0.0,0.0,0.0,0.0,0.0,0.0,0.0,0.0,0.0,0.0,0.0,0.0,0.0,0.0,0.0,0.0,0.0,0.0,0.0,0.0,0.0,0.0,0.0,0.0,0.0,0.0,0.0,0.0,0.0,0.0,0.0,0.0,0.0,0.0,0.0,0.0,0.0,0.0,0.0,0.0,0.0,0.0,0.0,0.0,0.0,0.0,0.0,0.0,0.0,0.0,0.0,0.0,0.0,0.0877,0.0,0.0,0.0,0.0,0.0,0.0,0.0,0.0,0.0,0.0,0.0,0.0,0.0,0.0,0.0,0.0,0.0,0.0,0.0,0.0,0.0,0.0,0.0,0.0,0.0,0.0,0.0,0.0,0.0,0.0,0.0,0.0,0.0,0.0,0.0,0.0,0.0,0.0,0.0,0.0,0.0,0.0,0.0,0.0,0.0,0.0,0.0,0.0,0.0,0.0,0.0,0.0,0.0,0.0,0.0,0.0,0.0,0.0,0.0,0.0,0.0,0.0,0.0,0.0,0.0,0.0,0.0,0.0,0.0,0.0,0.0,0.0,0.0,0.0,0.0,0.0,0.0,0.0,0.0,0.0,0.0,0.0,0.0,0.0,0.0,0.0,0.0,0.0,0.0,0.0,0.0,0.0,0.0,0.0,0.0,0.0,0.0,0.0,0.0,0.0,0.0,0.0,0.0,0.0,0.0,0.0,0.0,0.0,0.0,0.0,0.0967,0.0937,0.0968,0.093,0.0913,0.0,0.0,0.0,0.0,0.0,0.0,0.0,0.0,0.0,0.0,0.0,0.0,0.0,0.0,0.0,0.0,0.0,0.0,0.0,0.0,0.0,0.0,0.0,0.0,0.0,0.0,0.0,0.0,0.0,0.0,0.0,0.0,0.0,0.0,0.0,0.0,0.0,0.0,0.0,0.0,0.0,0.0,0.0,0.0,0.0,0.0,0.0,0.0,0.0,0.0,0.0,0.0,0.0,0.0,0.0,0.0,0.0,0.0,0.0,0.0,0.0,0.0,0.0,0.0,0.0,0.0,0.0,0.0,0.0,0.0,0.0,0.0,0.0,0.0,0.0,0.0,0.0,0.0,0.0,0.0,0.0,0.0,0.0,0.0,0.0,0.0,0.0,0.0,0.0,0.0,0.0,0.0,0.0,0.0,0.0,0.0,0.0,0.0,0.0,0.0,0.0,0.0,0.0,0.0,0.0,0.0,0.0,0.0,0.0,0.0,0.0,0.0,0.1015,0.1001,0.0934,0.0,0.0,0.0,0.0,0.0,0.0,0.0,0.0,0.0,0.0,0.0,0.0,0.0,0.0,0.0,0.0,0.0,0.0,0.0,0.0,0.0,0.0,0.0,0.0,0.0,0.0,0.0,0.0,0.0,0.0,0.0,0.0,0.0,0.0,0.0,0.0,0.0,0.0,0.0,0.0,0.0,0.0,0.0,0.0,0.0,0.0,0.0,0.0,0.0,0.0,0.0,0.0,0.0,0.0,0.0,0.0,0.0,0.0,0.0,0.0,0.0,0.0,0.0,0.0,0.0,0.0,0.0,0.0,0.0,0.0,0.0,0.0,0.0,0.0,0.0,0.0,0.0,0.0,0.0,0.0,0.0,0.0,0.0,0.0,0.0,0.0,0.0,0.0,0.0,0.0,0.0,0.0,0.0,0.0,0.0,0.0,0.0,0.0,0.0,0.0,0.0,0.0,0.0,0.0,0.0,0.0,0.0,0.0,0.0,0.0,0.1014,0.1099,0.1094,0.0,0.0996,0.0,0.0,0.0,0.0,0.0,0.0,0.0,0.0,0.0,0.0,0.0,0.0,0.0,0.0,0.0,0.0,0.0,0.0,0.0,0.0,0.0,0.0,0.0,0.0,0.0,0.0,0.0,0.0,0.0,0.0,0.0,0.0,0.0,0.0,0.0,0.0,0.0,0.0,0.0,0.0,0.0,0.0,0.0,0.0,0.0,0.0,0.0,0.0,0.0,0.0,0.0,0.0,0.0,0.0,0.0,0.0,0.0,0.0,0.0,0.0,0.0,0.0,0.0,0.0,0.0,0.0,0.0,0.0,0.0,0.0,0.0,0.0,0.0,0.0,0.0,0.0,0.0,0.0,0.0,0.0,0.0,0.0,0.0,0.0,0.0,0.0,0.0,0.0,0.0,0.0,0.0,0.0,0.0,0.0,0.0,0.0,0.0,0.0,0.0,0.0,0.0,0.0,0.0,0.0,0.0,0.0,0.0,0.0,0.0,0.0,0.0,0.1102,0.1097,0.1076,0.0,0.0,0.0,0.0,0.0,0.0,0.0,0.0,0.0,0.0,0.0,0.0,0.0,0.0,0.0,0.0,0.0,0.0,0.0,0.0,0.0,0.0,0.0,0.0,0.0,0.0,0.0,0.0,0.0,0.0,0.0,0.0,0.0,0.0,0.0,0.0,0.0,0.0,0.0,0.0,0.0,0.0,0.0,0.0,0.0,0.0,0.0,0.0,0.0,0.0,0.0,0.0,0.0,0.0,0.0,0.0,0.0,0.0,0.0,0.0,0.0,0.0,0.0,0.0,0.0,0.0,0.0,0.0,0.0,0.0,0.0,0.0,0.0,0.0,0.0,0.0,0.0,0.0,0.0,0.0,0.0,0.0,0.0,0.0,0.0,0.0,0.0,0.0,0.0,0.0,0.0,0.0,0.0,0.0,0.0,0.0,0.0,0.0,0.0,0.0,0.0,0.0,0.0,0.0,0.0,0.0,0.0,0.0,0.0,0.0,0.1051,0.0,0.1141,0.1108,0.1072,0.1003,0.0,0.0,0.0,0.0,0.0,0.0,0.0,0.0,0.0,0.0,0.0,0.0,0.0,0.0,0.0,0.0,0.0,0.0,0.0,0.0,0.0,0.0,0.0,0.0,0.0,0.0,0.0,0.0,0.0,0.0,0.0,0.0,0.0,0.0,0.0,0.0,0.0,0.0,0.0,0.0,0.0,0.0,0.0,0.0,0.0,0.0,0.0,0.0,0.0,0.0,0.0,0.0,0.0,0.0,0.0,0.0,0.0,0.0,0.0,0.0,0.0,0.0,0.0,0.0,0.0,0.0,0.0,0.0,0.0,0.0,0.0,0.0,0.0,0.0,0.0,0.0,0.0,0.0,0.0,0.0,0.0,0.0,0.0,0.0,0.0,0.0,0.0,0.0,0.0,0.0,0.0,0.0,0.0,0.0,0.0,0.0,0.0,0.0,0.0,0.0,0.0,0.0,0.0,0.0,0.0,0.0,0.0,0.0,0.0,0.1137,0.1118,0.1203,0.1114,0.1058,0.0,0.0,0.0,0.0,0.0,0.0,0.0,0.0,0.0,0.0,0.0,0.0,0.0,0.0,0.0,0.0,0.0,0.0,0.0,0.0,0.0,0.0,0.0,0.0,0.0,0.0,0.0,0.0,0.0,0.0,0.0,0.0,0.0,0.0,0.0,0.0,0.0,0.0,0.0,0.0,0.0,0.0,0.0,0.0,0.0,0.0,0.0,0.0,0.0,0.0,0.0,0.0,0.0,0.0,0.0,0.0,0.0,0.0,0.0,0.0,0.0,0.0,0.0,0.0,0.0,0.0,0.0,0.0,0.0,0.0,0.0,0.0,0.0,0.0,0.0,0.0,0.0,0.0,0.0,0.0,0.0,0.0,0.0,0.0,0.0,0.0,0.0,0.0,0.0,0.0,0.0,0.0,0.0,0.0,0.0,0.0,0.0,0.0,0.0,0.0,0.0,0.0,0.0,0.0,0.0,0.0,0.0,0.0,0.0,0.102,0.1076,0.1157,0.126,0.1155,0.1091,0.0,0.0,0.0,0.0,0.0,0.0,0.0,0.0,0.0,0.0,0.0,0.0,0.0,0.0,0.0,0.0,0.0,0.0,0.0,0.0,0.0,0.0,0.0,0.0,0.0,0.0,0.0,0.0,0.0,0.0,0.0,0.0,0.0,0.0,0.0,0.0,0.0,0.0,0.0,0.0,0.0,0.0,0.0,0.0,0.0,0.0,0.0,0.0,0.0,0.0,0.0,0.0,0.0,0.0,0.0,0.0,0.0,0.0,0.0,0.0,0.0,0.0,0.0,0.0,0.0,0.0,0.0,0.0,0.0,0.0,0.0,0.0,0.0,0.0,0.0,0.0,0.0,0.0,0.0,0.0,0.0,0.0,0.0,0.0,0.0,0.0,0.0,0.0,0.0,0.0,0.0,0.0,0.0,0.0,0.0,0.0,0.0,0.0,0.0,0.0,0.0,0.0,0.0,0.0,0.0,0.0,0.0,0.0,0.0,0.0969,0.0,0.1206,0.0,0.1114,0.1014,0.0,0.0,0.0,0.0,0.0,0.0,0.0,0.0,0.0,0.0,0.0,0.0,0.0,0.0,0.0,0.0,0.0,0.0,0.0,0.0,0.0,0.0,0.0,0.0,0.0,0.0,0.0,0.0,0.0,0.0,0.0,0.0,0.0,0.0,0.0,0.0,0.0,0.0,0.0,0.0,0.0,0.0,0.0,0.0,0.0,0.0,0.0,0.0,0.0,0.0,0.0,0.0,0.0,0.0,0.0,0.0,0.0,0.0,0.0,0.0,0.0,0.0,0.0,0.0,0.0,0.0,0.0,0.0,0.0,0.0,0.0,0.0,0.0,0.0,0.0,0.0,0.0,0.0,0.0,0.0,0.0,0.0,0.0,0.0,0.0,0.0,0.0,0.0,0.0,0.0,0.0,0.0,0.0,0.0,0.0,0.0,0.0,0.0,0.0,0.0,0.0,0.0,0.0,0.0,0.0,0.0,0.0,0.0,0.0942,0.108,0.1194,0.1253,0.1208,0.0995,0.0832,0.0,0.0,0.0,0.0,0.0,0.0,0.0,0.0,0.0,0.0,0.0,0.0,0.0,0.0,0.0,0.0,0.0,0.0,0.0,0.0,0.0,0.0,0.0,0.0,0.0,0.0,0.0,0.0,0.0,0.0,0.0,0.0,0.0,0.0,0.0,0.0,0.0,0.0,0.0,0.0,0.0,0.0,0.0,0.0,0.0,0.0,0.0,0.0,0.0,0.0,0.0,0.0,0.0,0.0,0.0,0.0,0.0,0.0,0.0,0.0,0.0,0.0,0.0,0.0,0.0,0.0,0.0,0.0,0.0,0.0,0.0,0.0,0.0,0.0,0.0,0.0,0.0,0.0,0.0,0.0,0.0,0.0,0.0,0.0,0.0,0.0,0.0,0.0,0.0,0.0,0.0,0.0,0.0,0.0,0.0,0.0,0.0,0.0,0.0,0.0,0.0,0.0,0.0,0.0,0.0,0.0,0.0,0.0,0.0,0.109,0.1058,0.1026,0.0995,0.0748,0.061,0.0,0.0,0.0,0.0,0.0,0.0,0.0,0.0,0.0,0.0,0.0,0.0,0.0,0.0,0.0,0.0,0.0,0.0,0.0,0.0,0.0,0.0,0.0,0.0,0.0,0.0,0.0,0.0,0.0,0.0,0.0,0.0,0.0,0.0,0.0,0.0,0.0,0.0,0.0,0.0,0.0,0.0,0.0,0.0,0.0,0.0,0.0,0.0,0.0,0.0,0.0,0.0,0.0,0.0,0.0,0.0,0.0,0.0,0.0,0.0,0.0,0.0,0.0,0.0,0.0,0.0,0.0,0.0,0.0,0.0,0.0,0.0,0.0,0.0,0.0,0.0,0.0,0.0,0.0,0.0,0.0,0.0,0.0,0.0,0.0,0.0,0.0,0.0,0.0,0.0,0.0,0.0,0.0,0.0,0.0,0.0,0.0,0.0,0.0,0.0,0.0,0.0,0.0,0.0,0.0,0.0,0.0,0.0,0.0,0.1023,0.0972,0.0892,0.0786,0.0545,0.0414,0.0441,0.0,0.0,0.0,0.0,0.0,0.0,0.0,0.0,0.0,0.0,0.0,0.0,0.0,0.0,0.0,0.0,0.0,0.0,0.0,0.0,0.0,0.0,0.0,0.0,0.0,0.0,0.0,0.0,0.0,0.0,0.0,0.0,0.0,0.0,0.0,0.0,0.0,0.0,0.0,0.0,0.0,0.0,0.0,0.0,0.0,0.0,0.0,0.0,0.0,0.0,0.0,0.0,0.0,0.0,0.0,0.0,0.0,0.0,0.0,0.0,0.0,0.0,0.0,0.0,0.0,0.0,0.0,0.0,0.0,0.0,0.0,0.0,0.0,0.0,0.0,0.0,0.0,0.0,0.0,0.0,0.0,0.0,0.0,0.0,0.0,0.0,0.0,0.0,0.0,0.0,0.0,0.0,0.0,0.0,0.0,0.0,0.0,0.0,0.0,0.0,0.0,0.0,0.0,0.0,0.0,0.0,0.0,0.0,0.0871,0.0933,0.0864,0.0591,0.0375,0.0282,0.0,0.0,0.0,0.0,0.0,0.0,0.0,0.0,0.0,0.0,0.0,0.0,0.0,0.0,0.0,0.0,0.0,0.0,0.0,0.0,0.0,0.0,0.0,0.0,0.0,0.0,0.0,0.0,0.0,0.0,0.0,0.0,0.0,0.0,0.0,0.0,0.0,0.0,0.0,0.0,0.0,0.0,0.0,0.0,0.0,0.0,0.0,0.0,0.0,0.0,0.0,0.0,0.0,0.0,0.0,0.0,0.0,0.0,0.0,0.0,0.0,0.0,0.0,0.0,0.0,0.0,0.0,0.0,0.0,0.0,0.0,0.0,0.0,0.0,0.0,0.0,0.0,0.0,0.0,0.0,0.0,0.0,0.0,0.0,0.0,0.0,0.0,0.0,0.0,0.0,0.0,0.0,0.0,0.0,0.0,0.0,0.0,0.0,0.0,0.0,0.0,0.0,0.0,0.0,0.0,0.0,0.0,0.0,0.0,0.0454,0.048,0.0449,0.0363,0.0192,0.0074,0.0,0.0,0.0,0.0,0.0,0.0,0.0,0.0,0.0,0.0,0.0,0.0,0.0,0.0,0.0,0.0,0.0,0.0,0.0,0.0,0.0,0.0,0.0,0.0,0.0,0.0,0.0,0.0,0.0,0.0,0.0,0.0,0.0,0.0,0.0,0.0,0.0,0.0,0.0,0.0,0.0,0.0,0.0,0.0,0.0,0.0,0.0,0.0,0.0,0.0,0.0,0.0,0.0,0.0,0.0,0.0,0.0,0.0,0.0,0.0,0.0,0.0,0.0,0.0,0.0,0.0,0.0,0.0,0.0,0.0,0.0,0.0,0.0,0.0,0.0,0.0,0.0,0.0,0.0,0.0,0.0,0.0,0.0,0.0,0.0,0.0,0.0,0.0,0.0,0.0,0.0,0.0,0.0,0.0,0.0,0.0,0.0,0.0,0.0,0.0,0.0,0.0,0.0,0.0,0.0,0.0,0.0,0.0,0.0554,0.0308,0.0202,0.0164,0.016,0.0078,0.0,0.0,0.0,0.0,0.0,0.0,0.0,0.0,0.0,0.0,0.0,0.0,0.0,0.0,0.0,0.0,0.0,0.0,0.0,0.0,0.0,0.0,0.0,0.0,0.0,0.0,0.0,0.0,0.0,0.0,0.0,0.0,0.0,0.0,0.0,0.0,0.0,0.0,0.0,0.0,0.0,0.0,0.0,0.0,0.0,0.0,0.0,0.0,0.0,0.0,0.0,0.0,0.0,0.0,0.0,0.0,0.0,0.0,0.0,0.0,0.0,0.0,0.0,0.0,0.0,0.0,0.0,0.0,0.0,0.0,0.0,0.0,0.0,0.0,0.0,0.0,0.0,0.0,0.0,0.0,0.0,0.0,0.0,0.0,0.0,0.0,0.0,0.0,0.0,0.0,0.0,0.0,0.0,0.0,0.0,0.0,0.0,0.0,0.0,0.0,0.0,0.0,0.0,0.0,0.0,0.0,0.0,0.0,0.0,0.0421,0.0274,0.0082,0.0,0.0,0.0,0.0,0.0,0.0,0.0,0.0,0.0,0.0,0.0,0.0,0.0,0.0,0.0,0.0,0.0,0.0,0.0,0.0,0.0,0.0,0.0,0.0,0.0,0.0,0.0,0.0,0.0,0.0,0.0,0.0,0.0,0.0,0.0,0.0,0.0,0.0,0.0,0.0,0.0,0.0,0.0,0.0,0.0,0.0,0.0,0.0,0.0,0.0,0.0,0.0,0.0,0.0,0.0,0.0,0.0,0.0,0.0,0.0,0.0,0.0,0.0,0.0,0.0,0.0,0.0,0.0,0.0,0.0,0.0,0.0,0.0,0.0,0.0,0.0,0.0,0.0,0.0,0.0,0.0,0.0,0.0,0.0,0.0,0.0,0.0,0.0,0.0,0.0,0.0,0.0,0.0,0.0,0.0,0.0,0.0,0.0,0.0,0.0,0.0,0.0,0.0,0.0,0.0,0.0,0.0,0.0,0.0,0.0,0.0,0.0,0.0266,0.0076,0.0039,0.0,0.0,0.0,0.0,0.0,0.0,0.0,0.0,0.0,0.0,0.0,0.0,0.0,0.0,0.0,0.0,0.0,0.0,0.0,0.0,0.0,0.0,0.0,0.0,0.0,0.0,0.0,0.0,0.0,0.0,0.0,0.0,0.0,0.0,0.0,0.0,0.0,0.0,0.0,0.0,0.0,0.0,0.0,0.0,0.0,0.0,0.0,0.0,0.0,0.0,0.0,0.0,-0.4154,0.0,0.0,0.0,0.0,0.0,0.0,0.0,0.0,0.0,0.0,0.0,0.0,0.0,0.0,0.0,0.0,0.0,0.0,0.0,0.0,0.0,0.0,0.0,0.0,0.0,0.0,0.0,0.0,0.0,0.0,0.0,0.0,0.0,0.0,0.0,0.0,0.0,0.0,0.0,0.0,0.0,0.0,0.0,0.0,0.0,0.0,0.0,0.0,0.0,0.0,0.0,0.0,0.0,0.0,0.0,0.0,0.0,0.0,0.0,0.019,0.0,0.0,0.0,0.0,0.0,0.0,0.0,0.0,0.0,0.0,0.0,0.0,0.0,0.0,0.0,0.0,0.0,0.0,0.0,0.0,0.0,0.0,0.0,0.0,0.0,0.0,0.0,0.0,0.0,0.0,0.0,0.0,0.0,0.0,0.0,0.0,0.0,0.0,0.0,0.0,0.0,0.0,0.0,0.0,0.0,0.0,0.0,0.0,0.0,0.0,0.0,0.0,0.0,0.0,0.0,0.0,0.0,0.0,0.0,0.0,0.0,0.0,0.0,0.0,0.0,0.0,0.0,0.0,0.0,0.0,0.0,0.0,0.0,0.0,0.0,0.0,0.0,0.0,0.0,0.0,0.0,0.0,0.0,0.0,0.0,0.0,0.0,0.0,0.0,0.0,0.0,0.0,0.0,0.0,0.0,0.0,0.0,0.0,0.0,0.0,0.0,0.0,0.0,0.0,0.0,0.0,0.0,0.0,0.0,0.0,0.0,0.0,0.0,0.0219,0.0153,0.0,0.0,0.0,0.0,0.0,0.0,0.0,0.0,0.0,0.0,0.0,0.0,0.0,0.0,0.0,0.0,0.0,0.0,0.0,0.0,0.0,0.0,0.0,0.0,0.0,0.0,0.0,0.0,0.0,0.0,0.0,0.0,0.0,0.0,0.0,0.0,0.0,0.0,0.0,0.0,0.0,0.0,0.0,0.0,0.0,0.0951,0.1003,0.0,0.0,0.0,0.0,0.0,0.0,0.0,0.0,-0.4267,0.0,0.0,0.0,0.0,0.0,0.0,0.0,0.0,0.0,0.0,0.0,0.0,0.0,0.0,0.0,0.0,0.0,0.0,0.0,0.0,0.0,0.0,0.0,0.0,0.0,0.0,0.0,0.0,0.0,0.0,0.0,0.0,0.0,0.0,0.0,0.0,0.0,0.0,0.0,0.0,0.0,0.0,0.0,0.0,0.0,0.0,0.0,0.0,0.0,0.0,0.0,0.0,0.0,0.0,0.0,0.0,0.0288,0.0146,0.0038,0.0,0.0,0.0,0.0,0.0,0.0,0.0,0.0,0.0,0.0,0.0,0.0,0.0,0.0,0.0,0.0,0.0,0.0,0.0,0.0,0.0,0.0,0.0,0.0,0.0,0.0,0.0,0.0,0.0,0.0,0.0,0.0,0.0,0.0,0.0,0.0,0.0,0.0,0.0,0.0,0.0,0.0,0.0,0.0,0.0,0.0,0.1125,0.117,0.0,0.0,0.0,0.0,0.0,0.0,0.0,0.0,-0.495,0.0,0.0,0.0,0.0,0.0,0.0,0.0,0.0,0.0,0.0,0.0,0.0,0.0,0.0,0.0,0.0,0.0,0.0,0.0,0.0,0.0,0.0,0.0,0.0,0.0,0.0,0.0,0.0,0.0,0.0,0.0,0.0,0.0,0.0,0.0,0.0,0.0,0.0,0.0,0.0,0.0,0.0,0.0,0.0,0.0,0.0,0.0,0.0,0.0,0.0,0.0,0.0,0.0,0.0,0.0,0.014,0.0037,0.0,0.0,0.0,0.0,0.0,0.0,0.0,0.0,0.0,0.0,0.0,0.0,0.0,0.0,0.0,0.0,0.0,0.0,0.0,0.0,0.0,0.0,0.0,0.0,0.0,0.0,0.0,0.0,0.0,0.0,0.0,0.0,0.0,0.0,0.0,0.0,0.0,0.0,0.0,0.0,0.0,0.0,0.0,0.0,0.0,0.0,0.0,0.1151,0.1216,0.1292,0.0,0.0,0.0,0.0,0.0,0.0,-0.4309,-0.4409,0.0,0.0,0.0,0.0,0.0,0.0,0.0,0.0,0.0,0.0,0.0,0.0,0.0,0.0,0.0,0.0,0.0,0.0,0.0,0.0,0.0,0.0,0.0,0.0,0.0,0.0,0.0,0.0,0.0,0.0,0.0,0.0,0.0,0.0,0.0,0.0,0.0,0.0,0.0,0.0,0.0,0.0,0.0,0.0,0.0,0.0,0.0,0.0,0.0,0.0,0.0,0.0,0.0,0.0,0.0,0.0,0.0,0.0,0.0,0.0,0.0,0.0,0.0,0.0,0.0,0.0,0.0,0.0,0.0,0.0,0.0,0.0,0.0,0.0,0.0,0.0,0.0,0.0,0.0,0.0,0.0,0.0,0.0,0.0,0.0,0.0,0.0,0.0,0.0,0.0,0.0,0.0,0.0,0.0,0.0,0.0,0.0,0.0,0.0,0.0,0.0,0.0,0.0,0.0,0.0,0.1236,0.1302,0.0984,0.0,0.0,0.0,0.0,-0.3362,-0.3639,0.0,0.0,0.0,0.0,0.0,0.0,0.0,0.0,0.0,0.0,0.0,0.0,0.0,0.0,0.0,0.0,0.0,0.0,0.0,0.0,0.0,0.0,0.0,0.0,0.0,0.0,0.0,0.0,0.0,0.0,0.0,0.0,0.0,0.0,0.0,0.0,0.0,0.0,0.0,0.0,0.0,0.0,0.0,0.0,0.0,0.0,0.0,0.0,0.0,0.0,0.0,0.0,0.0,0.0,0.0,0.0,0.0,0.0,0.0,0.0,0.0,0.0,0.0,0.0,0.0,0.0,0.0,0.0,0.0,0.0,0.0,0.0,0.0,0.0,0.0,0.0,0.0,0.0,0.0,0.0,0.0,0.0,0.0,0.0,0.0,0.0,0.0,0.0,0.0,0.0,0.0,0.0,0.0,0.0,0.0,0.0,0.0,0.0,0.0,0.0,0.0,0.0,0.0,0.0,0.0,0.0,0.1358,0.1303,0.1091,0.0591,0.0,0.0,-0.1515,-0.265,-0.3516,0.0,0.0,0.0,0.0,0.0,0.0,0.0,0.0,0.0,0.0,0.0,0.0,0.0,0.0,0.0,0.0,0.0,0.0,0.0,0.0,0.0,0.0,0.0,0.0,0.0,0.0,0.0,0.0,0.0,0.0,0.0,0.0,0.0,0.0,0.0,0.0,0.0,0.0,0.0,0.0,0.0,0.0,0.0,0.0,0.0,0.0,0.0,0.0,0.0,0.0,0.0,0.0,0.0,0.0,0.0,0.0,0.0,0.0,0.0,0.0,0.0,0.0,0.0,0.0,0.0,0.0,0.0,0.0,0.0,0.0,0.0,0.0,0.0,0.0,0.0,0.0,0.0,0.0,0.0,0.0,0.0,0.0,0.0,0.0,0.0,0.0,0.0,0.0,0.0,0.0,0.0,0.0,0.0,0.0,0.0,0.0,0.0,0.0,0.0,0.0,0.0,0.0,0.0,0.0,0.0,0.0,0.0,0.1325,0.1029,0.0,0.0,0.0,-0.0984,-0.2385,0.0,0.0,0.0,0.0,0.0,0.0,0.0,0.0,0.0,0.0,0.0,0.0,0.0,0.0,0.0,0.0,0.0,0.0,0.0,0.0,0.0,0.0,0.0,0.0,0.0,0.0,0.0,0.0,0.0,0.0,0.0,0.0,0.0,0.0,0.0,0.0,0.0,0.0,0.0,0.0,0.0,0.0,0.0,0.0,0.0,0.0,0.0,0.0,0.0,0.0,0.0,0.0,0.0,0.0,0.0,0.0,0.0,0.0,0.0,0.0,0.0,0.0,0.0,0.0,0.0,0.0,0.0,0.0,0.0,0.0,0.0,0.0,0.0,0.0,0.0,0.0,0.0,0.0,0.0,0.0,0.0,0.0,0.0,0.0,0.0,0.0,0.0,0.0,0.0,0.0,0.0,0.0,0.0737,0.0,0.0,0.0,0.0,0.0,0.0,0.0,0.0,0.0,0.0,0.0,0.0,0.0,0.0,0.134,0.1384,0.1086,0.061,0.0,0.0,-0.0301,-0.1654,-0.2064,-0.2499,0.0,0.0,0.0,0.0,0.0,0.0,0.0,0.0,0.0,0.0,0.0,0.0,0.0,0.0,0.0,0.0,0.0,0.0,0.0,0.0,0.0,0.0,0.0,0.0,0.0,0.0,0.0,0.0,0.0,0.0,0.0,0.0,0.0,0.0,0.0,0.0,0.0,0.0,0.0,0.0,0.0,0.0,0.0,0.0,0.0,0.0,0.0,0.0,0.0,0.0,0.0,0.0,0.0,0.0,0.0,0.0,0.0,0.0,0.0,0.0,0.0,0.0,0.0,0.0,0.0,0.0,0.0,0.0,0.0,0.0,0.0,0.0,0.0,0.0,0.0,0.0,0.0,0.0,0.0,0.0,0.0,0.0,0.0,0.0,0.0,0.0,0.0,0.0,0.0,0.0,0.0,0.0,0.0,0.0,0.0,0.0,0.0,0.0,0.0,0.0,0.0,0.0,0.0,0.0,0.0,0.1385,0.1389,0.139,0.1181,0.0,0.0,0.0467,-0.0087,-0.0895,-0.1751,-0.2441,0.0,0.0,0.0,0.0,0.0,0.0,0.0,0.0,0.0,0.0,0.0,0.0,0.0,0.0,0.0,0.0,0.0,0.0,0.0,0.0,0.0,0.0,0.0,0.0,0.0,0.0,0.0,0.0,0.0,0.0,0.0,0.0,0.0,0.0,0.0,0.0,0.0,0.0,0.0,0.0,0.0,0.0,0.0,0.0,0.0,0.0,0.0,0.0,0.0,0.0,0.0,0.0,0.0,0.0,0.0,0.0,0.0,0.0,0.0,0.0,0.0,0.0,0.0,0.0,0.0,0.0,0.0,0.0,0.0,0.0,0.0,0.0,0.0,0.0,0.0,0.0,0.0,0.0,0.0,0.0,0.0,0.0,0.0,0.0,0.0,0.0,0.0,0.0,0.0,0.0,0.0,0.0964,0.0948,0.0966,0.0,0.0,0.0,0.0,0.0,0.0,0.0,0.0,0.0,0.0,0.1397,0.1415,0.1285,0.0,0.0,0.0575,0.0393,0.0044,-0.1151,-0.2166,-0.2441,-0.362,0.0,0.0,0.0,0.0,0.0,0.0,0.0,0.0,0.0,0.0,0.0,0.0,0.0,0.0,0.0,0.0,0.0,0.0,0.0,0.0,0.0,0.0,0.0,0.0,0.0,0.0,0.0,0.0,0.0,0.0,0.0,0.0,0.0,0.0,0.0,0.0,0.0,0.0,0.0,0.0,0.0,0.0,0.0,0.0,0.0,0.0,0.0,0.0,0.0,0.0,0.0,0.0,0.0,0.0,0.0,0.0,0.0,0.0,0.0,0.0,0.0,0.0,0.0,0.0,0.0,0.0,0.0,0.0,0.0,0.0,0.0,0.0,0.0,0.0,0.0,0.0,0.0,0.0,0.0,0.0,0.0,0.0,0.0,0.0,0.0,0.0,0.0,0.0,0.0,0.0,0.0983,0.0997,0.1018,0.0,0.0,0.0,0.0,0.0,0.0,0.0,0.0,0.0,0.0,0.1397,0.1419,0.1289,0.111,0.0844,0.0619,0.0395,0.0131,-0.0938,-0.1838,-0.2096,0.0,0.0,0.0,0.0,0.0,0.0,0.0,0.0,0.0,0.0,0.0,0.0,0.0,0.0,0.0,0.0,0.0,0.0,0.0,0.0,0.0,0.0,0.0,0.0,0.0,0.0,0.0,0.0,0.0,0.0,0.0,0.0,0.0,0.0,0.0,0.0,0.0,0.0,0.0,0.0,0.0,0.0,0.0,0.0,0.0,0.0,0.0,0.0,0.0,0.0,0.0,0.0,0.0,0.0,0.0,0.0,0.0,0.0,0.0,0.0,0.0,0.0,0.0,0.0,0.0,0.0,0.0,0.0,0.0,0.0,0.0,0.0,0.0,0.0,0.0,0.0,0.0,0.0,0.0,0.0,0.0,0.0,0.0,0.0,0.0,0.0,0.0,0.0,0.0,0.0,0.0918,0.0971,0.102,0.0,0.0,0.0,0.0,0.0,0.0,0.0,0.0,0.0,0.0,0.1372,0.139,0.1391,0.1391,0.1307,0.1003,0.0814,0.0638,0.0391,0.0085,-0.0337,0.0,0.0,0.0,0.0,0.0,0.0,0.0,0.0,0.0,0.0,0.0,0.0,0.0,0.0,0.0,0.0,0.0,0.0,0.0,0.0,0.0,0.0,0.0,0.0,0.0,0.0,0.0,0.0,0.0,0.0,0.0,0.0,0.0,0.0,0.0,0.0,0.0,0.0,0.0,0.0,0.102,0.1009,0.0,0.0,0.0,0.0,0.0,0.0,0.0,0.0,0.0,0.0,0.0,0.0,0.0,0.0,0.0,0.0,0.0,0.0,0.0,0.0,0.0,0.0,0.0,0.0,0.0,0.0,0.0,0.0,0.0,0.0,0.0,0.0,0.0,0.0,0.0,0.0,0.0,0.0,0.0,0.0,0.0,0.0,0.0,0.0,0.0,0.0,0.0,0.0,0.0924,0.0,0.0,0.0,0.0,0.0,0.0,0.0,0.0,0.0,0.0,0.0,0.1325,0.1304,0.1346,0.1412,0.1393,0.1407,0.1332,0.0,0.0,0.0,0.0,0.0,0.0,0.0,0.0,0.0,0.0,0.0,0.0,0.0,0.0,-0.5188,-0.483,-0.4773,-0.4738,-0.4651,0.0,0.0,0.0,0.0,0.0,0.0,0.0,0.0,0.0,0.0,0.0,0.0,0.0,0.0,0.0222,0.0,0.0273,0.0,0.0,0.0,0.0,0.0,0.0,0.0,0.0,0.1002,0.1037,0.1052,0.1039,0.1038,0.0,0.1029,0.0982,0.0,0.0,0.0,0.0,0.0,0.0,0.0,0.0,0.0,0.0,0.0,0.0,0.0,0.0,0.0,0.0,0.0,0.0,0.0,0.0,0.0,0.0,0.0,0.0,0.0,0.0,0.0,0.0,0.0,0.0,0.0,0.0,0.0,0.0,0.0,0.0,0.0,0.0,0.0,0.0,0.0,0.0,0.0,0.0,0.0944,0.0,0.0,0.0,0.0,0.0,0.0,0.0,0.0,0.0,0.1245,0.1313,0.1323,0.1334,0.1368,0.1425,0.1394,0.0,0.0,0.0,0.0,0.0,0.0,0.0,-0.1637,-0.2015,-0.3313,-0.4563,-0.5216,-0.5383,-0.5344,-0.511,0.0,0.0,-0.5007,-0.4917,-0.4931,-0.4892,-0.4871,-0.4874,-0.4832,-0.4844,-0.4874,0.0,0.0,0.0,0.0,0.0,0.0,0.0,0.0,0.0561,0.0599,0.0,0.0534,0.0,0.0,0.0,0.0,0.0,0.0974,0.0,0.0,0.1063,0.1109,0.1108,0.1108,0.1109,0.1111,0.1104,0.1054,0.097,0.0659,0.0,0.0,0.0,0.0,0.0,0.0,0.0,0.0,0.0,0.0,0.0,0.0,0.0,0.0,0.0,0.0,0.0,0.0,0.0,0.0,0.0,0.0,0.0,0.0,0.0,0.0,0.0,0.0,0.0,0.0,0.0,0.0,0.0,0.0,0.0,0.0,0.0,0.0,0.0,0.0,0.0,0.1002,0.0,0.0,0.0,0.0,0.0,0.0,0.0,0.0,0.0,0.0,0.1309,0.1355,0.1401,0.1384,0.0,0.0,0.0,0.0,0.1306,0.1307,0.1076,0.0905,0.0924,0.0505,-0.0126,-0.0924,0.0,0.0,-0.4922,-0.5284,-0.532,-0.5203,-0.5268,-0.5361,-0.5235,-0.5165,-0.517,-0.5159,-0.5072,-0.5021,-0.5015,-0.4999,-0.4968,0.1732,0.0,0.0,0.0,0.0,0.0894,0.0764,0.0593,0.0567,0.0597,0.0615,0.0699,0.0,0.0,0.0,0.0,0.0,0.0,0.1045,0.1063,0.1106,0.1109,0.1109,0.1109,0.1109,0.111,0.1084,0.1114,0.1063,0.0679,0.0473,0.0494,0.0,0.0,0.0,0.0,0.0,0.0,0.0,0.0,0.0,0.0,0.0,0.0,0.0,0.0,0.0,0.0,0.0,0.0,0.0,0.0,0.0,0.0,0.0,0.0,0.0,0.0,0.0,0.0,0.0,0.0,0.0,0.0,0.0,0.0,0.0,0.0,0.0,0.0,0.0999,0.1039,0.1064,0.0,0.0,0.0,0.0,0.0,0.0,0.0,0.0,0.0,0.1364,0.1398,0.1417,0.0,0.0,0.1393,0.1364,0.1311,0.1306,0.1306,0.0,0.0,0.0,-0.0663,-0.1568,-0.2471,-0.3442,-0.4331,-0.4887,-0.5019,-0.5044,-0.5049,-0.5094,-0.5105,-0.508,-0.5135,-0.5151,-0.5086,-0.504,-0.5018,-0.5018,-0.5018,-0.5015,0.2508,0.1685,0.1301,0.1103,0.1033,0.1007,0.0943,0.0838,0.0838,0.083,0.0852,0.089,0.0925,0.0926,0.0979,0.0,0.0,0.0,0.106,0.1109,0.1109,0.1109,0.1109,0.1109,0.1109,0.1109,0.1109,0.1104,0.1059,0.0684,0.0477,0.0463,0.0,0.0,0.0,0.0,0.0,0.0,0.0,0.0,0.0,0.0,0.0,0.0,0.0,0.0,0.0,0.0,0.0,0.0,0.0,0.0,0.0,0.0,0.0,0.0,0.0,0.0,0.0,0.0,0.0,0.0,0.0,0.0876,0.0888,0.0,0.0,0.0,0.0924,0.097,0.1087,0.1125,0.0,0.0,0.0,0.0,0.0,0.0,0.0,0.1298,0.1325,0.134,0.139,0.1416,0.1383,0.1411,0.1408,0.1397,0.1326,0.0,0.1302,0.1332,0.0906,0.0532,0.0368,-0.0849,-0.2093,-0.3057,-0.3965,-0.4599,-0.4696,-0.4684,-0.4738,-0.476,-0.482,-0.4844,-0.4724,-0.4885,-0.5029,-0.4925,-0.4982,-0.4988,-0.4898,-0.4909,-0.4934,0.3365,0.2462,0.164,0.1243,0.1172,0.1198,0.1192,0.1203,0.1206,0.1203,0.1194,0.1138,0.1111,0.1107,0.1048,0.0,0.1006,0.1064,0.1109,0.1109,0.1109,0.1109,0.1109,0.1106,0.1072,0.1106,0.1103,0.1056,0.0999,0.0674,0.0506,0.0523,0.0184,0.003,0.0,0.0,0.0,0.0,0.0,0.0,0.0,0.0,0.0,0.0,0.0,0.0,0.0,0.0,0.0,0.0,0.0,0.0,0.0,0.0,0.0,0.0,0.0,0.0,0.0,0.0,0.0,0.0,0.0,0.0,0.0,0.0,0.0,0.0,0.0973,0.0,0.1194,0.1203,0.0,0.0,0.0,0.1241,0.1306,0.1294,0.131,0.1312,0.0,0.0,0.1397,0.0,0.1386,0.1384,0.1384,0.1417,0.1388,0.1356,0.1331,0.1303,0.0637,0.0353,0.0828,-0.0511,-0.2082,-0.3069,-0.3837,-0.4314,-0.4336,-0.4373,-0.4373,-0.4385,-0.4513,-0.4604,-0.4315,-0.4563,-0.4739,-0.4691,-0.4858,-0.4915,-0.4761,-0.4751,-0.479,0.3834,0.2465,0.2278,0.18,0.1199,0.1183,0.1173,0.1205,0.1191,0.1175,0.1131,0.1082,0.1097,0.1109,0.1069,0.1066,0.1066,0.1106,0.1109,0.1109,0.1109,0.1109,0.1109,0.1054,0.1011,0.1042,0.102,0.1005,0.0998,0.0762,0.066,0.0655,0.0436,0.0203,0.0,0.0,0.0,0.0,0.0,0.0,0.0,0.0,0.0,0.0,0.0,0.0,0.0,0.0,0.0,0.0,0.0,0.0,0.0,0.0112,0.0,0.0,0.0,0.0,0.0,0.0,0.0,0.0,0.0,0.0961,0.0917,0.0,0.0981,0.0,0.1032,0.1118,0.1198,0.1203,0.0,0.0,0.1265,0.1288,0.1391,0.1389,0.1388,0.1368,0.1382,0.1387,0.1425,0.141,0.1393,0.1329,0.1325,0.1315,0.1328,0.1338,0.1317,0.1269,0.1102,0.0824,0.0274,-0.1136,-0.2546,-0.3487,-0.3798,-0.3973,-0.4013,-0.4002,-0.4055,-0.4133,-0.4186,-0.4213,-0.4157,-0.4223,-0.4227,-0.4163,-0.4473,-0.4764,-0.4701,-0.4712,-0.4725,0.4618,0.3443,0.3395,0.272,0.1635,0.132,0.1203,0.1203,0.117,0.1116,0.1085,0.1106,0.1091,0.1109,0.1109,0.1109,0.1109,0.1109,0.1109,0.1109,0.1109,0.1109,0.1108,0.1047,0.1002,0.1,0.1003,0.0982,0.0938,0.0773,0.0702,0.0692,0.0424,0.0226,0.0086,0.0085,0.0056,0.0,0.0,0.0,0.0,0.0,0.0,0.0,0.0,0.0,0.0,0.0,0.0,0.0,0.0,0.0,0.0,0.0112,0.0254,0.0,0.0,0.0,0.0,0.0,0.0,0.0,0.0,0.0,0.0,0.0,0.1063,0.1091,0.1122,0.1164,0.126,0.1253,0.1282,0.1332,0.1316,0.1335,0.1381,0.1408,0.1397,0.1413,0.136,0.1352,0.1352,0.1327,0.134,0.1311,0.1296,0.1241,0.1265,0.1247,0.1232,0.1257,0.0913,0.038,-0.0455,-0.1327,-0.2199,-0.2997,-0.3455,-0.3666,-0.373,-0.3719,-0.3739,-0.3837,-0.3894,-0.3914,-0.3842,-0.3935,-0.3937,-0.382,-0.403,-0.4276,-0.4281,-0.4323,-0.4351,0.5336,0.4601,0.452,0.3681,0.2316,0.1589,0.1265,0.1195,0.1132,0.1084,0.1113,0.1087,0.1109,0.1109,0.1109,0.1109,0.1109,0.1109,0.1109,0.1109,0.1105,0.107,0.1069,0.1004,0.099,0.0989,0.0991,0.0963,0.0879,0.0761,0.0722,0.0729,0.0421,0.028,0.028,0.0224,0.0168,0.0,0.0,0.0,0.0,0.0,0.0,0.0,0.0,0.0,0.0,0.0,0.0,0.0,0.0,0.0,0.0028,0.0141,0.0316,0.0,0.0651,0.0,0.0,0.0,0.0,0.0,0.0,0.0,0.0,0.1087,0.1149,0.1204,0.1213,0.1248,0.1289,0.1312,0.133,0.1367,0.1356,0.1321,0.1371,0.1401,0.1382,0.138,0.1357,0.13,0.1294,0.1269,0.1319,0.1288,0.1221,0.1163,0.1196,0.12,0.1197,0.1206,0.0583,0.0,-0.0768,-0.1058,-0.1386,-0.2222,-0.2924,-0.3386,-0.3485,-0.3481,-0.3477,-0.3462,-0.3591,-0.3641,-0.3391,-0.3622,-0.3696,-0.352,-0.3594,-0.3754,-0.3842,-0.3908,-0.3895,0.5336,0.4604,0.452,0.3958,0.3022,0.227,0.1623,0.1129,0.1088,0.1107,0.1084,0.1112,0.1109,0.1109,0.1109,0.1109,0.1109,0.1109,0.1109,0.1108,0.1052,0.1009,0.1006,0.0955,0.093,0.0928,0.0929,0.0912,0.0878,0.0849,0.0875,0.0842,0.0785,0.0729,0.0617,0.0,0.0,0.0,0.0,0.0,0.0,0.0,0.0,0.0,0.0,0.0,0.0,0.0,0.0,0.0,0.0,0.0,0.0,0.0,0.0,0.0,0.0,0.0,0.0,0.0,0.0,0.0,0.105,0.1097,0.111,0.1143,0.1191,0.1202,0.1263,0.1286,0.1303,0.13,0.1313,0.1313,0.1315,0.1325,0.1317,0.1317,0.1305,0.1322,0.1314,0.1301,0.1276,0.1248,0.1218,0.1227,0.1157,0.1129,0.1107,0.1181,0.1171,0.1166,0.098,0.0618,-0.0182,-0.0327,-0.0833,-0.2001,-0.2474,-0.2815,-0.3262,-0.3424,-0.3393,-0.3269,-0.3277,-0.3309,-0.3254,-0.332,-0.3341,-0.3261,-0.3232,-0.3364,-0.3706,-0.3806,-0.3849,0.5378,0.0,0.4956,0.4515,0.0,0.2967,0.2231,0.1578,0.1235,0.109,0.1109,0.1109,0.1109,0.1109,0.1109,0.1109,0.1109,0.1109,0.1101,0.1054,0.1008,0.0993,0.101,0.0934,0.0884,0.0883,0.0884,0.0897,0.0897,0.0897,0.0897,0.0897,0.0813,0.0757,0.0701,0.0449,0.0196,0.0,0.0,0.0,0.0,0.0,0.0,0.0,0.0,0.0,0.0,0.0,0.0,0.0,0.0,0.0,0.0,0.0,0.0,0.0741,0.0908,0.1017,0.1062,0.1031,0.1038,0.1054,0.1095,0.1127,0.1177,0.1199,0.1241,0.1255,0.1297,0.1303,0.1317,0.1306,0.1309,0.1298,0.1303,0.1309,0.1321,0.1312,0.1292,0.1262,0.1245,0.1229,0.1253,0.1186,0.1163,0.1145,0.1118,0.1093,0.1116,0.1136,0.1156,0.1156,0.1156,0.1016,0.056,0.014,-0.0245,-0.1085,-0.1819,-0.2367,-0.2751,-0.309,-0.3277,-0.3232,-0.316,-0.3158,-0.3156,-0.3124,-0.3091,-0.3089,-0.3088,-0.313,-0.3368,-0.3412,-0.3441,0.5395,0.5395,0.5395,0.5057,0.4453,0.3718,0.2917,0.2045,0.0,0.0,0.0,0.1109,0.1109,0.1109,0.1109,0.1109,0.1109,0.1104,0.1056,0.1001,0.0991,0.0973,0.0979,0.0919,0.0876,0.0875,0.0881,0.0897,0.0897,0.0897,0.0897,0.0897,0.0785,0.0729,0.0673,0.0421,0.0196,0.0084,0.0028,0.0,0.0,0.0,0.0,0.0,0.0,0.0,0.0,0.0,0.0,0.0,0.003,0.012,0.0306,0.0466,0.0631,0.0832,0.0938,0.1051,0.1107,0.1109,0.1112,0.1083,0.117,0.1181,0.1217,0.1281,0.1307,0.1292,0.1312,0.1307,0.1331,0.1312,0.1307,0.1332,0.129,0.1286,0.1285,0.1299,0.1268,0.12,0.1175,0.1193,0.1187,0.1129,0.1113,0.111,0.1093,0.1109,0.1109,0.1112,0.1115,0.1115,0.1118,0.1078,0.1008,0.0636,0.0167,-0.0134,-0.1063,-0.1851,-0.2216,-0.2647,-0.3012,-0.3164,-0.3113,-0.3107,-0.3092,-0.3045,-0.2987,-0.2985,-0.2972,-0.2962,-0.2962,-0.295,-0.3012,0.5395,0.5395,0.5395,0.5359,0.5193,0.4456,0.3382,0.2079,0.1377,0.1109,0.1109,0.1109,0.1109,0.1109,0.1109,0.1109,0.1108,0.105,0.1005,0.0,0.0949,0.0923,0.0918,0.0917,0.0876,0.0875,0.0871,0.0897,0.0897,0.0897,0.0897,0.0897,0.0869,0.0813,0.0701,0.0645,0.0533,0.0336,0.0112,0.0,0.0,0.0,0.0,0.0,0.0,0.0,0.0,0.0,0.0,0.0,0.0181,0.0304,0.0387,0.0608,0.0849,0.0971,0.1042,0.1105,0.1109,0.1109,0.1087,0.1113,0.1147,0.1227,0.1284,0.1293,0.1298,0.1303,0.1298,0.1298,0.1303,0.13,0.1298,0.13,0.1241,0.1225,0.1224,0.1199,0.1206,0.1104,0.1131,0.1117,0.1132,0.1087,0.1084,0.1082,0.1113,0.1109,0.1109,0.1109,0.1109,0.1109,0.1109,0.1109,0.1071,0.0987,0.0618,0.0065,-0.0222,-0.091,-0.1791,-0.2136,-0.2452,-0.2937,-0.2958,-0.2977,-0.3003,-0.2995,-0.297,-0.296,-0.2885,-0.2846,-0.2842,-0.2791,-0.2842,0.5395,0.5395,0.5395,0.5395,0.5359,0.4589,0.3685,0.2648,0.1946,0.1444,0.1109,0.1109,0.1109,0.1109,0.1109,0.1109,0.1109,0.1062,0.1039,0.1007,0.098,0.095,0.089,0.0876,0.0897,0.0897,0.0897,0.0897,0.0897,0.0897,0.0897,0.0897,0.0897,0.0869,0.0813,0.0729,0.0673,0.0561,0.0252,0.0113,0.0086,0.0029,0.0,0.0,0.0,0.0,0.0,0.0,0.0028,0.0118,0.0213,0.0368,0.0546,0.0714,0.086,0.0987,0.1052,0.1109,0.1109,0.1109,0.1089,0.1083,0.1134,0.116,0.1242,0.1277,0.1289,0.1235,0.1286,0.1297,0.1297,0.1297,0.1289,0.1272,0.1219,0.1161,0.1168,0.1151,0.1129,0.1102,0.1097,0.1091,0.1111,0.1109,0.1109,0.1109,0.1109,0.1109,0.1107,0.1062,0.1058,0.1104,0.1063,0.1054,0.1051,0.1028,0.0885,0.0567,0.0187,-0.0308,-0.0985,-0.1292,-0.1846,-0.2366,-0.2463,-0.2555,-0.2793,-0.2871,-0.2849,-0.2836,-0.2816,-0.2756,-0.2744,-0.2715,-0.2782,0.5395,0.5395,0.5395,0.5395,0.5359,0.4791,0.412,0.3416,0.2848,0.2214,0.1577,0.1243,0.1109,0.1109,0.1109,0.1109,0.1108,0.1095,0.1031,0.1021,0.1004,0.0943,0.0901,0.0897,0.0897,0.0897,0.0897,0.0897,0.0897,0.0897,0.0897,0.0897,0.0897,0.0897,0.0897,0.0785,0.0757,0.0729,0.0477,0.028,0.0196,0.0084,0.0,0.0,0.0,0.0028,0.0056,0.0028,0.0085,0.0235,0.0332,0.0489,0.0674,0.0777,0.089,0.0998,0.1057,0.1109,0.1109,0.1109,0.1086,0.1108,0.1082,0.1128,0.1183,0.1239,0.1266,0.1208,0.126,0.1274,0.1272,0.1274,0.1265,0.1204,0.1194,0.1135,0.1095,0.1115,0.1103,0.1113,0.1109,0.111,0.1109,0.1109,0.1106,0.1067,0.1066,0.1098,0.1056,0.1036,0.1035,0.1044,0.1037,0.1025,0.1022,0.0998,0.098,0.0978,0.0515,0.012,-0.018,-0.0632,-0.1114,-0.1648,-0.1741,-0.1922,-0.2409,-0.2544,-0.2567,-0.2651,-0.2705,-0.2697,-0.2699,-0.2695,-0.2691,0.5395,0.5395,0.5395,0.5395,0.5395,0.5329,0.4855,0.422,0.4087,0.3685,0.2882,0.1678,0.1143,0.1109,0.1109,0.1109,0.1105,0.1021,0.0994,0.0983,0.0931,0.0902,0.0898,0.0897,0.0897,0.0897,0.0897,0.0897,0.0897,0.0897,0.0897,0.0897,0.0897,0.0897,0.0897,0.0897,0.0897,0.0869,0.0729,0.0505,0.0196,0.0084,0.0,0.0,0.0,0.0056,0.0168,0.0196,0.0228,0.0382,0.0561,0.0681,0.0714,0.0879,0.0992,0.0998,0.1078,0.1109,0.1109,0.1109,0.1111,0.1115,0.1105,0.111,0.1126,0.1176,0.1211,0.1208,0.121,0.1216,0.1212,0.1215,0.1215,0.1208,0.1149,0.1091,0.1084,0.1096,0.1113,0.111,0.1109,0.1109,0.1109,0.1107,0.1063,0.1045,0.1038,0.1029,0.101,0.0998,0.0993,0.1028,0.0993,0.0992,0.0988,0.0937,0.0921,0.0916,0.0867,0.0544,0.0172,-0.0029,-0.0311,-0.092,-0.1021,-0.1243,-0.1749,-0.1905,-0.213,-0.2579,-0.2691,-0.2691,-0.2691,-0.2691,-0.2691,0.5395,0.5395,0.5395,0.5395,0.5395,0.5395,0.5226,0.4924,0.4489,0.412,0.3751,0.2781,0.2114,0.1678,0.1276,0.1109,0.1106,0.1033,0.1005,0.0986,0.0943,0.0886,0.0898,0.0897,0.0897,0.0897,0.0897,0.0897,0.0897,0.0897,0.0897,0.0897,0.0897,0.0897,0.0897,0.0897,0.0897,0.0897,0.0785,0.0617,0.0505,0.0308,0.0224,0.0224,0.0224,0.0252,0.0308,0.0308,0.0395,0.0573,0.0641,0.073,0.0803,0.0943,0.1001,0.0992,0.1076,0.1109,0.1109,0.1109,0.1109,0.1109,0.1087,0.1088,0.1111,0.1133,0.1148,0.1151,0.1181,0.1203,0.1201,0.1202,0.1196,0.1142,0.1127,0.1114,0.1095,0.1084,0.1109,0.1109,0.1109,0.1109,0.1106,0.1061,0.1048,0.1,0.102,0.1,0.1019,0.0973,0.0932,0.0958,0.0947,0.0915,0.0924,0.0936,0.0891,0.0886,0.0878,0.0729,0.0617,0.0533,0.0336,-0.028,-0.0336,-0.0755,-0.1681,-0.1818,-0.1987,-0.241,-0.2663,-0.2691,-0.2691,-0.2691,-0.2691,0.5395,0.5395,0.5395,0.5395,0.5395,0.5395,0.5395,0.5359,0.4821,0.4589,0.4519,0.3818,0.3218,0.2611,0.1799,0.1297,0.1092,0.0994,0.0966,0.0973,0.0915,0.0889,0.0898,0.0897,0.0897,0.0897,0.0897,0.0897,0.0897,0.0897,0.0897,0.0897,0.0897,0.0897,0.0897,0.0897,0.0897,0.0897,0.0785,0.0757,0.0729,0.0617,0.0505,0.0421,0.0393,0.0421,0.0477,0.0477,0.0561,0.0757,0.0746,0.0806,0.0902,0.0947,0.098,0.1021,0.1027,0.1088,0.1063,0.1097,0.1068,0.1108,0.1109,0.1109,0.1109,0.1109,0.1109,0.1114,0.1151,0.1175,0.1177,0.1177,0.1131,0.1111,0.1108,0.1098,0.1113,0.1109,0.1109,0.1109,0.1109,0.1109,0.1105,0.1052,0.1,0.1019,0.0994,0.0971,0.0964,0.0914,0.0901,0.0872,0.0911,0.0881,0.0895,0.0887,0.0899,0.0897,0.0897,0.0897,0.0897,0.0897,0.0869,0.028,0.0252,-0.0028,-0.0784,-0.1203,-0.1539,-0.2015,-0.2296,-0.2324,-0.2071,-0.2354,-0.2549,0.5395,0.5395,0.5395,0.5395,0.5395,0.5395,0.5395,0.5395,0.5326,0.5326,0.5193,0.4586,0.422,0.401,0.2649,0.1682,0.1093,0.0949,0.0922,0.0915,0.0887,0.0872,0.0898,0.0897,0.0897,0.0897,0.0897,0.0897,0.0897,0.0897,0.0897,0.0897,0.0897,0.0897,0.0897,0.0897,0.0897,0.0897,0.0897,0.0869,0.0869,0.0869,0.0701,0.0477,0.0393,0.0505,0.0645,0.0701,0.0757,0.0869,0.0872,0.0872,0.09,0.0899,0.0928,0.1014,0.0992,0.1006,0.1031,0.1067,0.1078,0.1136,0.1239,0.1142,0.121,0.121,0.1176,0.1109,0.1082,0.112,0.112,0.1125,0.112,0.1082,0.1113,0.1111,0.111,0.1109,0.1109,0.1109,0.1109,0.1107,0.1106,0.1052,0.102,0.0993,0.0964,0.0908,0.0887,0.0905,0.0903,0.0875,0.0872,0.0898,0.0872,0.0872,0.0898,0.0897,0.0897,0.0897,0.0897,0.0869,0.0841,0.0841,0.0729,0.0505,0.0084,-0.028,-0.0615,-0.1091,-0.1595,-0.1651,-0.1482,-0.2127,-0.2268,0.5395,0.5395,0.5395,0.5395,0.5395,0.5395,0.5395,0.5395,0.5395,0.5395,0.5359,0.5126,0.4758,0.4245,0.3253,0.2412,0.17,0.1205,0.0932,0.0883,0.0883,0.0897,0.0897,0.0897,0.0897,0.0897,0.0897,0.0897,0.0897,0.0897,0.0897,0.0897,0.0897,0.0897,0.0897,0.0897,0.0897,0.0897,0.0897,0.0897,0.0897,0.0897,0.0813,0.0729,0.0729,0.0757,0.0813,0.0841,0.0869,0.0897,0.0897,0.0897,0.0872,0.0897,0.1095,0.1436,0.119,0.1147,0.1533,0.1567,0.1618,0.176,0.2125,0.2109,0.1804,0.1712,0.1578,0.1209,0.1109,0.1109,0.1109,0.1109,0.1109,0.1109,0.1109,0.1109,0.1109,0.1109,0.1109,0.1109,0.1109,0.1103,0.1049,0.1023,0.0993,0.0933,0.0904,0.0884,0.0874,0.0897,0.0897,0.0897,0.0897,0.0897,0.0898,0.0898,0.0897,0.0897,0.0897,0.0897,0.0897,0.0897,0.0869,0.0869,0.0869,0.0701,0.0224,-0.0168,-0.0392,-0.0587,-0.1091,-0.1091,-0.095,-0.1454,-0.1482,0.5395,0.5395,0.5395,0.5395,0.5395,0.5395,0.5395,0.5395,0.5395,0.5395,0.5395,0.5395,0.5123,0.4568,0.3866,0.3223,0.2591,0.1539,0.0957,0.0899,0.0879,0.0897,0.0897,0.0897,0.0897,0.0897,0.0897,0.0897,0.0897,0.0897,0.0897,0.0897,0.0897,0.0897,0.0897,0.0897,0.0897,0.0897,0.0897,0.0897,0.0897,0.0897,0.0897,0.0897,0.0897,0.0897,0.0897,0.0897,0.0897,0.0897,0.0897,0.0897,0.09,0.1088,0.1274,0.1451,0.1566,0.1622,0.1849,0.2032,0.2213,0.2309,0.2666,0.2753,0.2348,0.2141,0.1821,0.146,0.1172,0.1109,0.1109,0.1109,0.1109,0.1109,0.1109,0.1109,0.1109,0.1109,0.1109,0.1108,0.1099,0.1052,0.1001,0.0997,0.0938,0.0915,0.0888,0.0898,0.0897,0.0897,0.0897,0.0897,0.0897,0.0897,0.0897,0.0897,0.0897,0.0897,0.0897,0.0897,0.0897,0.0897,0.0897,0.0897,0.0813,0.0645,0.0364,-0.0056,-0.0252,-0.0364,-0.0448,-0.0476,-0.0531,-0.067,-0.0727,0.5395,0.5395,0.5395,0.5395,0.5395,0.5395,0.5395,0.5395,0.5395,0.5395,0.5395,0.5395,0.5359,0.5163,0.4388,0.3985,0.3513,0.1918,0.1076,0.0987,0.0927,0.0897,0.0897,0.0897,0.0897,0.0897,0.0897,0.0897,0.0897,0.0897,0.0897,0.0897,0.0897,0.0897,0.0897,0.0897,0.0897,0.0897,0.0897,0.0897,0.0897,0.0897,0.0897,0.0897,0.0897,0.0897,0.0897,0.0897,0.0897,0.0897,0.0897,0.0897,0.0981,0.1461,0.1572,0.135,0.2021,0.2306,0.2047,0.2435,0.2736,0.2873,0.2889,0.2989,0.2836,0.2413,0.2063,0.1916,0.1551,0.124,0.1208,0.1209,0.1176,0.1109,0.1109,0.1109,0.1109,0.1109,0.1109,0.1104,0.1053,0.1003,0.0989,0.0952,0.0917,0.0905,0.0886,0.0897,0.0897,0.0897,0.0897,0.0897,0.0897,0.0897,0.0897,0.0897,0.0897,0.0897,0.0897,0.0897,0.0897,0.0897,0.0897,0.0897,0.0897,0.0757,0.0757,0.0392,0.0476,0.0392,0.0252,0.0084,0.0084,0.0028,-0.0168,0.5395,0.5395,0.5395,0.5395,0.5395,0.5395,0.5395,0.5395,0.5395,0.5395,0.5395,0.5395,0.5395,0.5193,0.4484,0.4071,0.39,0.268,0.1934,0.1518,0.1093,0.0897,0.0897,0.0897,0.0897,0.0897,0.0897,0.0897,0.0897,0.0897,0.0897,0.0897,0.0897,0.0897,0.0897,0.0897,0.0897,0.0897,0.0897,0.0897,0.0897,0.0897,0.0897,0.0897,0.0897,0.0897,0.0897,0.0897,0.0897,0.0897,0.0897,0.0897,0.1065,0.1874,0.2291,0.2207,0.2458,0.2882,0.3053,0.318,0.3366,0.3544,0.3838,0.3852,0.3554,0.3283,0.2988,0.272,0.25,0.2297,0.1903,0.1779,0.1576,0.1176,0.1109,0.1109,0.1109,0.1108,0.1065,0.1049,0.1006,0.0985,0.092,0.0887,0.0905,0.0888,0.0876,0.0898,0.0897,0.0897,0.0897,0.0897,0.0897,0.0897,0.0897,0.0897,0.0897,0.0897,0.0897,0.0897,0.0897,0.0897,0.0897,0.0897,0.0897,0.0897,0.0897,0.0897,0.0897,0.0897,0.0645,0.0645,0.0813,0.0673,0.0364,0.5395,0.5395,0.5395,0.5395,0.5395,0.5395,0.5395,0.5395,0.5395,0.5395,0.5388,0.5298,0.5277,0.5165,0.4618,0.4305,0.4159,0.3389,0.2821,0.2354,0.1595,0.1149,0.0925,0.0897,0.0897,0.0897,0.0897,0.0897,0.0897,0.0897,0.0897,0.0897,0.0897,0.0897,0.0897,0.0897,0.0897,0.0897,0.0897,0.0897,0.0897,0.0897,0.0897,0.0897,0.0897,0.0897,0.0897,0.0897,0.0897,0.0926,0.1093,0.1316,0.1624,0.2488,0.2959,0.282,0.3125,0.3458,0.3624,0.3799,0.3962,0.4099,0.4406,0.4467,0.4086,0.3916,0.3542,0.3283,0.3052,0.2853,0.2502,0.2203,0.1904,0.1523,0.1236,0.1108,0.1108,0.1066,0.1054,0.1002,0.0982,0.0952,0.0925,0.0872,0.0892,0.0873,0.0897,0.0897,0.0897,0.0897,0.0897,0.0897,0.0897,0.0897,0.0897,0.0897,0.0897,0.0897,0.0897,0.0897,0.0897,0.0897,0.0897,0.0897,0.0897,0.0897,0.0897,0.0897,0.0897,0.0897,0.0897,0.0869,0.0869,0.0869,0.0673,0.5395,0.5395,0.5395,0.5395,0.5395,0.5395,0.5395,0.5395,0.5395,0.5385,0.5311,0.5206,0.5103,0.5029,0.4763,0.4611,0.4551,0.3981,0.3557,0.3213,0.2458,0.1706,0.1121,0.0954,0.0897,0.0897,0.0897,0.0897,0.0897,0.0897,0.0897,0.0897,0.0897,0.0897,0.0897,0.0897,0.0897,0.0897,0.0897,0.0897,0.0897,0.0897,0.0897,0.0897,0.0981,0.1009,0.1037,0.1121,0.1093,0.1037,0.1595,0.2151,0.2681,0.3292,0.3403,0.2933,0.3879,0.4018,0.3932,0.4125,0.4411,0.4425,0.4459,0.4491,0.4374,0.4038,0.3786,0.3709,0.343,0.3158,0.2991,0.2647,0.2294,0.2009,0.1439,0.1126,0.11,0.1045,0.0996,0.0984,0.0948,0.0883,0.0908,0.0886,0.0875,0.0898,0.0897,0.0897,0.0897,0.0897,0.0897,0.0897,0.0897,0.0897,0.0897,0.0897,0.0897,0.0897,0.0897,0.0897,0.0897,0.0897,0.0897,0.0897,0.0897,0.0897,0.0897,0.0897,0.0897,0.0897,0.0897,0.0897,0.0897,0.0897,0.0897,0.5395,0.5395,0.5395,0.5395,0.5395,0.5395,0.5395,0.5395,0.5392,0.5291,0.5167,0.512,0.5029,0.4958,0.4779,0.4694,0.4618,0.4391,0.399,0.3597,0.332,0.2514,0.1624,0.1093,0.0926,0.0926,0.0898,0.0897,0.0897,0.0897,0.0897,0.0897,0.0897,0.0897,0.0897,0.0897,0.0897,0.0897,0.0897,0.0897,0.0897,0.0926,0.0897,0.0926,0.1344,0.154,0.1623,0.2012,0.1986,0.1679,0.2569,0.2959,0.2873,0.368,0.3959,0.3599,0.4015,0.4432,0.4322,0.4377,0.4491,0.4491,0.4491,0.4491,0.4491,0.4355,0.4289,0.4368,0.4302,0.4043,0.3686,0.3417,0.2945,0.2064,0.1509,0.1108,0.1045,0.1005,0.0993,0.0939,0.0922,0.0905,0.0887,0.0877,0.0897,0.0897,0.0897,0.0897,0.0897,0.0897,0.0897,0.0897,0.0897,0.0897,0.0897,0.0897,0.0897,0.0897,0.0897,0.0897,0.0897,0.0897,0.0897,0.0897,0.0897,0.0897,0.0897,0.0897,0.0897,0.0897,0.0897,0.0897,0.0897,0.0897,0.0897,0.5458,0.5395,0.5395,0.5395,0.5395,0.5395,0.5395,0.5378,0.532,0.522,0.5086,0.4961,0.487,0.4813,0.4663,0.4624,0.461,0.4532,0.4328,0.4018,0.3683,0.3042,0.2207,0.1567,0.1288,0.1233,0.1009,0.0897,0.0897,0.0897,0.0897,0.0897,0.0897,0.0897,0.0897,0.0897,0.0897,0.0897,0.0897,0.0897,0.0897,0.1148,0.126,0.14,0.1846,0.2153,0.2263,0.2736,0.2903,0.2764,0.3206,0.3541,0.3544,0.4073,0.4349,0.399,0.4322,0.4491,0.4491,0.4491,0.4491,0.4491,0.4491,0.4491,0.4491,0.4491,0.4545,0.4572,0.4646,0.4523,0.4255,0.3977,0.3315,0.244,0.1911,0.153,0.1106,0.0977,0.0932,0.0886,0.0873,0.0889,0.0871,0.0898,0.0897,0.0897,0.0897,0.0897,0.0897,0.0897,0.0897,0.0897,0.0897,0.0897,0.0897,0.0897,0.0897,0.0897,0.0897,0.0897,0.0897,0.0897,0.0897,0.0897,0.0897,0.0897,0.0897,0.0897,0.0897,0.0897,0.0897,0.0897,0.0897,0.0897,0.0897,0.5521,0.5395,0.5395,0.5395,0.5395,0.5395,0.5395,0.5368,0.524,0.5117,0.5026,0.483,0.4738,0.466,0.4573,0.4498,0.4498,0.4494,0.4491,0.4294,0.3987,0.343,0.2986,0.2235,0.193,0.179,0.1288,0.1092,0.1037,0.0981,0.0897,0.0925,0.0953,0.1009,0.1148,0.1121,0.1065,0.1093,0.126,0.1204,0.1232,0.1595,0.1874,0.1956,0.2486,0.2847,0.3042,0.3403,0.3655,0.3683,0.371,0.3959,0.4377,0.446,0.446,0.4432,0.446,0.4491,0.4491,0.4491,0.4491,0.4491,0.4491,0.4491,0.4491,0.4491,0.4498,0.4515,0.4617,0.4614,0.4541,0.4172,0.3619,0.2969,0.276,0.2254,0.1464,0.1074,0.0968,0.0908,0.0884,0.0872,0.0897,0.0897,0.0897,0.0897,0.0897,0.0897,0.0897,0.0897,0.0897,0.0897,0.0897,0.0897,0.0897,0.0897,0.0897,0.0897,0.0897,0.0897,0.0897,0.0897,0.0897,0.0897,0.0897,0.0897,0.0897,0.0897,0.0897,0.0897,0.0897,0.0897,0.0897,0.0897,0.0897,0.5521,0.5395,0.5395,0.5395,0.5395,0.5395,0.5395,0.5388,0.5354,0.5159,0.4989,0.4857,0.4724,0.4545,0.4518,0.4491,0.4491,0.4491,0.4491,0.4463,0.4405,0.4267,0.3849,0.3042,0.2569,0.2376,0.1902,0.1595,0.1512,0.1204,0.0897,0.0981,0.1428,0.1624,0.1652,0.1958,0.2041,0.179,0.2041,0.1958,0.1734,0.2151,0.2514,0.2597,0.3098,0.3627,0.4015,0.4239,0.4325,0.4325,0.4294,0.4322,0.4463,0.4491,0.4491,0.4491,0.4491,0.4491,0.4491,0.4491,0.4491,0.4491,0.4491,0.4491,0.4491,0.4491,0.4491,0.4494,0.4522,0.4556,0.4528,0.443,0.4017,0.3559,0.3398,0.3142,0.2446,0.1905,0.1449,0.1076,0.0931,0.0897,0.0897,0.0897,0.0897,0.0897,0.0897,0.0897,0.0897,0.0897,0.0897,0.0897,0.0897,0.0897,0.0897,0.0897,0.0897,0.0897,0.0897,0.0897,0.0897,0.0897,0.0897,0.0897,0.0897,0.0897,0.0897,0.0897,0.0897,0.0897,0.0897,0.0897,0.0897,0.0897,0.0897,0.5624,0.5395,0.5395,0.5395,0.5395,0.5395,0.5395,0.5365,0.5235,0.507,0.4877,0.4782,0.4609,0.4532,0.4559,0.4566,0.4501,0.4491,0.4491,0.4491,0.4487,0.4491,0.4432,0.3904,0.343,0.3098,0.2514,0.2125,0.1818,0.1762,0.1652,0.1372,0.193,0.2209,0.2237,0.2569,0.2486,0.2319,0.2486,0.2402,0.2012,0.2681,0.332,0.3486,0.3849,0.4211,0.4432,0.446,0.4491,0.4491,0.4491,0.4491,0.4491,0.4491,0.4491,0.4491,0.4491,0.4491,0.4491,0.4491,0.4491,0.4491,0.4491,0.4491,0.4491,0.4491,0.4491,0.4491,0.4491,0.4491,0.4491,0.4491,0.4267,0.4156,0.4015,0.3766,0.3181,0.2597,0.1986,0.1512,0.1345,0.1148,0.1037,0.0953,0.0897,0.0897,0.0897,0.0897,0.0897,0.0897,0.0897,0.0897,0.0897,0.0897,0.0897,0.0897,0.0897,0.0897,0.0897,0.0897,0.0897,0.0897,0.0897,0.0897,0.0897,0.0897,0.0897,0.0897,0.0897,0.0897,0.0897,0.0897,0.0897,0.0897,0.0897,0.5727,0.5425,0.5395,0.5395,0.5395,0.5395,0.5395,0.5354,0.5098,0.5026,0.4914,0.4692,0.4655,0.4566,0.4655,0.4624,0.4525,0.4491,0.4491,0.4491,0.4491,0.4491,0.4432,0.4322,0.4128,0.3707,0.3125,0.2597,0.2402,0.2404,0.2263,0.2097,0.2541,0.282,0.285,0.2959,0.3014,0.2875,0.3042,0.2847,0.2484,0.3206,0.3932,0.4239,0.4349,0.4408,0.4491,0.4491,0.4491,0.4491,0.4491,0.4491,0.4491,0.4491,0.4491,0.4491,0.4491,0.4491,0.4491,0.4491,0.4491,0.4491,0.4491,0.4491,0.4491,0.4491,0.4491,0.4491,0.4491,0.4491,0.4491,0.4491,0.4491,0.446,0.446,0.4239,0.379,0.3236,0.2764,0.2069,0.1734,0.1456,0.1204,0.1065,0.0953,0.0897,0.0897,0.0897,0.0897,0.0897,0.0897,0.0897,0.0897,0.0897,0.0897,0.0897,0.0897,0.0897,0.0897,0.0897,0.0897,0.0897,0.0897,0.0897,0.0897,0.0897,0.0897,0.0897,0.0897,0.0897,0.0897,0.0897,0.0897,0.0897,0.0897,0.5789,0.555,0.5458,0.5395,0.5395,0.5395,0.5395,0.5388,0.532,0.5209,0.5056,0.4995,0.484,0.4721,0.4667,0.4634,0.4539,0.4501,0.4498,0.4508,0.4511,0.4511,0.4542,0.4552,0.4435,0.4239,0.3755,0.3375,0.3098,0.2929,0.2792,0.2736,0.3153,0.3461,0.3599,0.3876,0.3821,0.3544,0.3793,0.368,0.343,0.3766,0.4267,0.446,0.4491,0.4491,0.4491,0.4491,0.4491,0.4491,0.4491,0.4491,0.4491,0.4491,0.4491,0.4491,0.4491,0.4491,0.4491,0.4491,0.4491,0.4491,0.4491,0.4491,0.4491,0.4491,0.4491,0.4491,0.4491,0.4491,0.4491,0.4491,0.4491,0.4491,0.446,0.4432,0.4294,0.407,0.3652,0.2847,0.2291,0.1762,0.1483,0.1232,0.1065,0.0953,0.0897,0.0897,0.0897,0.0897,0.0897,0.0897,0.0897,0.0897,0.0897,0.0897,0.0897,0.0897,0.0897,0.0897,0.0897,0.0897,0.0897,0.0897,0.0897,0.0897,0.0897,0.0897,0.0897,0.0897,0.0897,0.0897,0.0897,0.0897,0.0926,0.5789,0.5583,0.5458,0.5395,0.5395,0.5395,0.5395,0.5382,0.5277,0.5203,0.5125,0.5019,0.4952,0.4833,0.4809,0.4721,0.4627,0.4515,0.4539,0.4586,0.461,0.4662,0.4706,0.472,0.4672,0.4572,0.4359,0.3989,0.3666,0.3683,0.3433,0.3347,0.3766,0.4073,0.4101,0.4294,0.4322,0.4156,0.4294,0.4208,0.3683,0.3962,0.4153,0.4432,0.4491,0.4491,0.4491,0.4491,0.4491,0.4491,0.4491,0.4491,0.4491,0.4491,0.4491,0.4491,0.4491,0.4491,0.4491,0.4491,0.4491,0.4491,0.4491,0.4491,0.4491,0.4491,0.4491,0.4491,0.4491,0.4491,0.4491,0.4491,0.4491,0.4491,0.4491,0.4491,0.4491,0.4491,0.407,0.3541,0.3181,0.2597,0.1762,0.1512,0.1232,0.1065,0.0925,0.0897,0.0897,0.0897,0.0897,0.0897,0.0897,0.0897,0.0897,0.0897,0.0897,0.0897,0.0897,0.0897,0.0897,0.0897,0.0897,0.0897,0.0897,0.0897,0.0897,0.0897,0.0897,0.0897,0.0897,0.0897,0.0897,0.0897,0.0926,0.5789,0.565,0.5458,0.5395,0.5395,0.5395,0.5395,0.5368,0.524,0.5192,0.513,0.5039,0.4978,0.4928,0.4884,0.4813,0.4728,0.4638,0.4675,0.4714,0.4738,0.4806,0.488,0.4908,0.4843,0.4765,0.4756,0.4519,0.4073,0.42,0.4188,0.4024,0.4294,0.4491,0.446,0.446,0.4491,0.4491,0.4463,0.4208,0.3904,0.3821,0.3987,0.4432,0.4491,0.4491,0.4491,0.4491,0.4491,0.4491,0.4491,0.4491,0.4491,0.4491,0.4491,0.4491,0.4491,0.4491,0.4491,0.4491,0.4491,0.4491,0.4491,0.4491,0.4491,0.4491,0.4491,0.4491,0.4491,0.4491,0.4491,0.4491,0.4491,0.4491,0.4491,0.4491,0.4491,0.4491,0.4491,0.4153,0.3959,0.343,0.2597,0.1762,0.1484,0.126,0.112,0.0897,0.0897,0.0897,0.0897,0.0897,0.0897,0.0897,0.0897,0.0897,0.0897,0.0897,0.0897,0.0897,0.0897,0.0897,0.0897,0.0897,0.0897,0.0897,0.0897,0.0897,0.0897,0.0897,0.0897,0.0897,0.0897,0.0898,0.0926,0.5892,0.5822,0.5524,0.5395,0.5395,0.5395,0.5395,0.5388,0.5365,0.5371,0.5344,0.533,0.5213,0.5063,0.4972,0.4884,0.4877,0.4847,0.4836,0.4884,0.4894,0.4881,0.4901,0.4918,0.4942,0.4911,0.4897,0.4712,0.4443,0.4555,0.4582,0.4448,0.439,0.4491,0.4491,0.4491,0.4491,0.4491,0.4491,0.4436,0.438,0.4325,0.4405,0.446,0.4491,0.4491,0.4491,0.4491,0.4491,0.4491,0.4491,0.4491,0.4491,0.4491,0.4491,0.4491,0.4491,0.4491,0.4491,0.4491,0.4491,0.4491,0.4491,0.4491,0.4491,0.4491,0.4491,0.4491,0.4491,0.4491,0.4491,0.4491,0.4491,0.4491,0.4491,0.4491,0.4491,0.4491,0.4491,0.446,0.4208,0.3959,0.343,0.2541,0.1762,0.1539,0.1316,0.1093,0.0925,0.0925,0.0897,0.0897,0.0897,0.0897,0.0897,0.0897,0.0897,0.0897,0.0897,0.0897,0.0897,0.0897,0.0897,0.0897,0.0897,0.0897,0.0897,0.0897,0.0897,0.0897,0.0897,0.0897,0.0897,0.0926,0.0954,0.5892,0.5892,0.5624,0.5458,0.5395,0.5395,0.5395,0.5395,0.5395,0.5395,0.5395,0.5395,0.5277,0.511,0.5026,0.4965,0.4938,0.4931,0.4972,0.503,0.5047,0.5081,0.5194,0.5162,0.5142,0.5067,0.5091,0.5023,0.4819,0.4713,0.4672,0.4621,0.4535,0.4491,0.4491,0.4491,0.4491,0.4491,0.4491,0.4491,0.4491,0.4491,0.4491,0.4491,0.4491,0.4491,0.4491,0.4491,0.4491,0.4491,0.4491,0.4491,0.4491,0.4491,0.4491,0.4491,0.4491,0.4491,0.4491,0.4491,0.4491,0.4491,0.4491,0.4491,0.4491,0.4491,0.4491,0.4491,0.4491,0.4491,0.4491,0.4491,0.4491,0.4491,0.4491,0.4491,0.4491,0.4491,0.4491,0.4491,0.446,0.4211,0.3987,0.3375,0.2597,0.2207,0.1873,0.1539,0.126,0.1065,0.0981,0.0897,0.0897,0.0897,0.0897,0.0897,0.0897,0.0897,0.0897,0.0897,0.0897,0.0897,0.0897,0.0897,0.0897,0.0897,0.0897,0.0897,0.0897,0.0897,0.0897,0.0897,0.0897,0.101,0.1094,0.5987,0.5892,0.5657,0.5521,0.5458,0.5428,0.5395,0.5395,0.5395,0.5395,0.5395,0.5392,0.5294,0.5209,0.5186,0.5142,0.5015,0.4999,0.5091,0.5159,0.5199,0.5247,0.5327,0.5365,0.5284,0.5186,0.5267,0.5206,0.5053,0.4897,0.4792,0.4697,0.4589,0.4535,0.4498,0.4491,0.4491,0.4491,0.4491,0.4491,0.4491,0.4491,0.4491,0.4491,0.4491,0.4491,0.4491,0.4491,0.4491,0.4491,0.4491,0.4491,0.4491,0.4491,0.4491,0.4491,0.4491,0.4491,0.4491,0.4491,0.4491,0.4491,0.4491,0.4491,0.4491,0.4491,0.4491,0.4491,0.4491,0.4491,0.4491,0.4491,0.4491,0.4491,0.4491,0.4491,0.4491,0.4491,0.4491,0.4491,0.4491,0.4491,0.4267,0.4042,0.3541,0.2959,0.2486,0.204,0.1623,0.1288,0.1037,0.0898,0.0897,0.0897,0.0897,0.0897,0.0897,0.0897,0.0897,0.0897,0.0897,0.0897,0.0897,0.0897,0.0897,0.0897,0.0897,0.0897,0.0897,0.0897,0.0897,0.0897,0.0926,0.1038,0.1206,0.6185,0.5859,0.5557,0.5458,0.5583,0.5458,0.5395,0.5395,0.5395,0.5395,0.5395,0.5392,0.5385,0.5365,0.5351,0.5344,0.5347,0.5361,0.5344,0.5351,0.5378,0.5371,0.5395,0.5392,0.5385,0.5361,0.5388,0.5375,0.5287,0.5128,0.4931,0.4721,0.4674,0.4614,0.4542,0.4505,0.4491,0.4491,0.4491,0.4491,0.4491,0.4491,0.4491,0.4491,0.4491,0.4491,0.4491,0.4491,0.4491,0.4491,0.4491,0.4491,0.4491,0.4491,0.4491,0.4491,0.4491,0.4491,0.4491,0.4491,0.4491,0.4491,0.4491,0.4491,0.4491,0.4491,0.4491,0.4491,0.4491,0.4491,0.4491,0.4491,0.4491,0.4491,0.4491,0.4491,0.4491,0.4491,0.4491,0.4491,0.4491,0.4491,0.4491,0.4267,0.4101,0.3569,0.2986,0.2512,0.1818,0.14,0.1093,0.0926,0.0897,0.0897,0.0897,0.0897,0.0897,0.0897,0.0897,0.0897,0.0897,0.0897,0.0897,0.0897,0.0897,0.0897,0.0897,0.0897,0.0897,0.0897,0.0897,0.0926,0.1038,0.1178,0.1347,0.6083,0.6053,0.5591,0.5425,0.5458,0.5425,0.5395,0.5395,0.5395,0.5395,0.5395,0.5395,0.5395,0.5395,0.5395,0.5395,0.5395,0.5395,0.5395,0.5395,0.5392,0.5395,0.5395,0.5395,0.5392,0.5395,0.5395,0.5395,0.5375,0.5281,0.5165,0.4982,0.4806,0.4709,0.4627,0.4549,0.4501,0.4491,0.4491,0.4491,0.4491,0.4491,0.4491,0.4491,0.4491,0.4491,0.4491,0.4491,0.4491,0.4491,0.4491,0.4491,0.4491,0.4491,0.4491,0.4491,0.4491,0.4491,0.4491,0.4491,0.4491,0.4491,0.4491,0.4491,0.4491,0.4491,0.4491,0.4491,0.4491,0.4491,0.4491,0.4491,0.4491,0.4491,0.4491,0.4491,0.4491,0.4491,0.4491,0.4491,0.4491,0.4491,0.4491,0.446,0.4349,0.4128,0.3569,0.2959,0.2291,0.1624,0.1316,0.1037,0.0981,0.0897,0.0897,0.0897,0.0897,0.0897,0.0897,0.0897,0.0897,0.0897,0.0897,0.0897,0.0897,0.0897,0.0897,0.0897,0.0897,0.0897,0.0926,0.0982,0.1122,0.129,0.1487,0.6119,0.6148,0.5723,0.5528,0.5458,0.5395,0.5395,0.5395,0.5395,0.5395,0.5395,0.5395,0.5395,0.5395,0.5395,0.5395,0.5395,0.5395,0.5395,0.5395,0.5395,0.5395,0.5395,0.5395,0.5395,0.5395,0.5395,0.5395,0.5395,0.5395,0.5317,0.5138,0.4962,0.4843,0.4728,0.4641,0.4539,0.4498,0.4491,0.4491,0.4491,0.4491,0.4491,0.4491,0.4491,0.4491,0.4491,0.4491,0.4491,0.4491,0.4491,0.4491,0.4491,0.4491,0.4491,0.4491,0.4491,0.4491,0.4491,0.4491,0.4491,0.4491,0.4491,0.4491,0.4491,0.4491,0.4491,0.4491,0.4491,0.4491,0.4491,0.4491,0.4491,0.4491,0.4491,0.4491,0.4491,0.4491,0.4491,0.4491,0.4491,0.4491,0.4491,0.4491,0.4436,0.4267,0.3766,0.3292,0.2847,0.2207,0.1595,0.1316,0.1064,0.0981,0.0897,0.0926,0.0926,0.0897,0.0897,0.0897,0.0897,0.0925,0.0925,0.0897,0.0897,0.0897,0.0897,0.0897,0.0897,0.0897,0.0954,0.1066,0.1206,0.1403,0.1572,0.6317,0.6181,0.5958,0.5756,0.5583,0.5458,0.5395,0.5425,0.5395,0.5395,0.5395,0.5395,0.5395,0.5395,0.5395,0.5395,0.5395,0.5395,0.5395,0.5395,0.5395,0.5395,0.5395,0.5395,0.5395,0.5395,0.5395,0.5395,0.5395,0.5395,0.5375,0.5308,0.5159,0.5003,0.4904,0.4758,0.4613,0.4511,0.4491,0.4494,0.4518,0.4525,0.4525,0.4528,0.4528,0.4535,0.4491,0.4491,0.4491,0.4491,0.4491,0.4491,0.4491,0.4491,0.4491,0.4491,0.4491,0.4491,0.4491,0.4491,0.4491,0.4491,0.4491,0.4491,0.4491,0.4491,0.4491,0.4491,0.4491,0.4491,0.4491,0.4491,0.4491,0.4491,0.4491,0.4491,0.4491,0.4491,0.4491,0.4491,0.4491,0.4491,0.4491,0.4491,0.4491,0.4294,0.3904,0.3544,0.3236,0.2847,0.2235,0.1846,0.1567,0.1511,0.1428,0.1093,0.0982,0.0925,0.1009,0.1149,0.1176,0.1204,0.112,0.0981,0.0897,0.0897,0.0897,0.0926,0.1121,0.1344,0.1122,0.1178,0.1318,0.1487,0.1656,0.6251,0.6181,0.5987,0.5789,0.5583,0.5458,0.5458,0.5521,0.5425,0.5395,0.5395,0.5395,0.5395,0.5395,0.5395,0.5395,0.5395,0.5395,0.5395,0.5395,0.5395,0.5395,0.5395,0.5395,0.5395,0.5395,0.5395,0.5395,0.5395,0.5395,0.5395,0.5368,0.5313,0.5119,0.488,0.4694,0.4616,0.4518,0.4498,0.4532,0.4627,0.4641,0.4609,0.4634,0.4627,0.4583,0.4525,0.4491,0.4491,0.4491,0.4491,0.4491,0.4491,0.4491,0.4491,0.4491,0.4491,0.4491,0.4491,0.4491,0.4491,0.4491,0.4491,0.4491,0.4491,0.4491,0.4491,0.4491,0.4491,0.4491,0.4491,0.4491,0.4491,0.4491,0.4491,0.4491,0.4491,0.4491,0.4491,0.4491,0.4491,0.4491,0.4491,0.4491,0.4491,0.4491,0.4156,0.3876,0.3597,0.343,0.3014,0.2597,0.2319,0.2207,0.204,0.1679,0.1652,0.179,0.179,0.179,0.1734,0.1623,0.1567,0.1539,0.1204,0.0897,0.1121,0.14,0.1734,0.1874,0.168,0.1541,0.1682,0.174,0.1741,0.6412,0.6605,0.6181,0.6115,0.6145,0.5719,0.5491,0.5521,0.5425,0.5395,0.5395,0.5395,0.5395,0.5395,0.5395,0.5395,0.5395,0.5395,0.5395,0.5395,0.5395,0.5395,0.5395,0.5395,0.5395,0.5395,0.5395,0.5395,0.5395,0.5395,0.5395,0.5395,0.5388,0.5204,0.4955,0.4857,0.4796,0.4694,0.4667,0.4687,0.4748,0.4762,0.4738,0.4701,0.4663,0.4619,0.4535,0.4491,0.4491,0.4491,0.4491,0.4491,0.4491,0.4491,0.4491,0.4491,0.4491,0.4491,0.4491,0.4491,0.4491,0.4491,0.4491,0.4491,0.4491,0.4491,0.4491,0.4491,0.4491,0.4491,0.4491,0.4491,0.4491,0.4491,0.4491,0.4491,0.4491,0.4491,0.4491,0.4491,0.4491,0.4491,0.4491,0.4491,0.4491,0.4491,0.446,0.4184,0.3932,0.3738,0.3599,0.3236,0.2847,0.2625,0.2486,0.2291,0.2347,0.2625,0.2541,0.2374,0.2291,0.2207,0.2151,0.2097,0.1902,0.1734,0.1708,0.193,0.2293,0.2404,0.2265,0.2155,0.213,0.2158,0.2188,0.6872,0.7358,0.6605,0.6732,0.7162,0.6075,0.5554,0.5395,0.5395,0.5395,0.5395,0.5395,0.5395,0.5395,0.5395,0.5395,0.5395,0.5395,0.5395,0.5395,0.5395,0.5395,0.5395,0.5395,0.5395,0.5395,0.5395,0.5395,0.5395,0.5395,0.5395,0.5395,0.5395,0.5276,0.5145,0.5087,0.5003,0.4877,0.483,0.4857,0.4908,0.4891,0.487,0.4816,0.4748,0.4653,0.458,0.4511,0.4494,0.4491,0.4491,0.4491,0.4491,0.4491,0.4491,0.4491,0.4491,0.4491,0.4491,0.4491,0.4491,0.4491,0.4491,0.4491,0.4491,0.4491,0.4491,0.4491,0.4491,0.4491,0.4491,0.4491,0.4491,0.4491,0.4491,0.4491,0.4491,0.4491,0.4491,0.4491,0.4491,0.4491,0.4491,0.4491,0.4491,0.4491,0.4491,0.4432,0.4184,0.3987,0.3849,0.3766,0.3375,0.2989,0.2875,0.2901,0.3042,0.3294,0.3014,0.282,0.2792,0.282,0.2736,0.2708,0.2681,0.2599,0.2516,0.2599,0.2822,0.2877,0.3016,0.2852,0.2826,0.2938,0.3021,0.7587,0.8134,0.7423,0.719,0.712,0.6075,0.5521,0.5395,0.5395,0.5395,0.5395,0.5395,0.5395,0.5395,0.5395,0.5395,0.5395,0.5395,0.5395,0.5395,0.5395,0.5395,0.5395,0.5395,0.5395,0.5395,0.5395,0.5395,0.5395,0.5395,0.5395,0.5395,0.5395,0.5347,0.5334,0.5324,0.5131,0.5009,0.4965,0.5006,0.5053,0.5039,0.4988,0.4972,0.4884,0.4772,0.464,0.4549,0.4515,0.4491,0.4491,0.4491,0.4491,0.4491,0.4491,0.4491,0.4491,0.4491,0.4491,0.4491,0.4491,0.4491,0.4491,0.4491,0.4491,0.4491,0.4491,0.4491,0.4491,0.4491,0.4491,0.4491,0.4491,0.4491,0.4491,0.4491,0.4491,0.4491,0.4491,0.4491,0.4491,0.4491,0.4491,0.4491,0.4491,0.4491,0.4491,0.4491,0.4432,0.4211,0.4101,0.4042,0.3959,0.3627,0.3627,0.3652,0.3793,0.3876,0.3569,0.3458,0.3652,0.3624,0.343,0.3292,0.3211,0.3239,0.3264,0.335,0.3433,0.3821,0.3987,0.3713,0.3549,0.3633,0.3688,0.7874,0.8361,0.7782,0.719,0.6634,0.598,0.5591,0.5425,0.5395,0.5395,0.5395,0.5395,0.5395,0.5395,0.5395,0.5395,0.5395,0.5395,0.5395,0.5395,0.5395,0.5395,0.5395,0.5395,0.5395,0.5395,0.5395,0.5395,0.5395,0.5395,0.5395,0.5395,0.5395,0.5395,0.5385,0.5368,0.53,0.5165,0.5118,0.5152,0.5182,0.5209,0.5192,0.5093,0.4999,0.4901,0.4724,0.4617,0.4563,0.4505,0.4491,0.4491,0.4491,0.4491,0.4491,0.4491,0.4491,0.4491,0.4491,0.4491,0.4491,0.4491,0.4491,0.4491,0.4491,0.4491,0.4491,0.4491,0.4491,0.4491,0.4491,0.4491,0.4491,0.4491,0.4491,0.4491,0.4491,0.4491,0.4491,0.4491,0.4491,0.4491,0.4491,0.4491,0.4491,0.4491,0.4491,0.4491,0.4491,0.4405,0.4349,0.4322,0.4349,0.4294,0.4294,0.4208,0.4211,0.4211,0.4125,0.4125,0.4405,0.4322,0.3987,0.3821,0.371,0.3766,0.3821,0.3932,0.4042,0.4377,0.4519,0.4294,0.4128,0.4236,0.4263,0.8069,0.8651,0.7874,0.7031,0.6053,0.5954,0.5723,0.5428,0.5395,0.5395,0.5395,0.5395,0.5395,0.5395,0.5395,0.5395,0.5395,0.5395,0.5395,0.5395,0.5395,0.5395,0.5395,0.5395,0.5395,0.5395,0.5395,0.5395,0.5395,0.5395,0.5395,0.5395,0.5395,0.5395,0.5395,0.5395,0.5354,0.533,0.5313,0.5341,0.5358,0.5365,0.533,0.515,0.5069,0.4982,0.4809,0.4691,0.4626,0.4559,0.4491,0.4494,0.4491,0.4491,0.4491,0.4491,0.4491,0.4491,0.4491,0.4491,0.4491,0.4491,0.4491,0.4491,0.4491,0.4491,0.4491,0.4491,0.4491,0.4491,0.4491,0.4491,0.4491,0.4491,0.4491,0.4491,0.4491,0.4491,0.4491,0.4491,0.4491,0.4491,0.4491,0.4491,0.4491,0.4491,0.4491,0.4491,0.4491,0.4491,0.4491,0.4491,0.4491,0.4491,0.446,0.4377,0.4432,0.4432,0.4432,0.4432,0.4432,0.446,0.4491,0.4267,0.4073,0.4239,0.4349,0.4322,0.4294,0.4405,0.4546,0.4629,0.4653,0.4677,0.4763,0.9454,0.9939,0.8786,0.7642,0.6634,0.6115,0.5723,0.5395,0.5395,0.5395,0.5395,0.5395,0.5395,0.5395,0.5395,0.5395,0.5395,0.5395,0.5395,0.5395,0.5395,0.5395,0.5395,0.5395,0.5395,0.5395,0.5395,0.5395,0.5395,0.5395,0.5395,0.5395,0.5395,0.5395,0.5395,0.5395,0.5395,0.5395,0.5395,0.5395,0.5395,0.5395,0.5361,0.5264,0.5206,0.509,0.4945,0.4799,0.4721,0.4658,0.4542,0.4501,0.4491,0.4491,0.4491,0.4491,0.4491,0.4491,0.4491,0.4491,0.4491,0.4491,0.4491,0.4491,0.4491,0.4491,0.4491,0.4491,0.4491,0.4491,0.4491,0.4491,0.4491,0.4491,0.4491,0.4491,0.4491,0.4491,0.4491,0.4491,0.4491,0.4491,0.4491,0.4491,0.4491,0.4491,0.4491,0.4491,0.4491,0.4491,0.4491,0.4491,0.4491,0.4491,0.4491,0.4491,0.4491,0.4491,0.446,0.446,0.4491,0.4491,0.4491,0.4491,0.4432,0.4491,0.4491,0.446,0.446,0.4491,0.4546,0.4656,0.4763,0.4818,0.5014,0.9322,0.9573,0.8606,0.7575,0.6624,0.5997,0.5582,0.5336,0.5361,0.5395,0.5395,0.5395,0.5395,0.5395,0.5395,0.5395,0.5395,0.5395,0.5395,0.5395,0.5395,0.5395,0.5395,0.5395,0.5395,0.5395,0.5395,0.5395,0.5395,0.5395,0.5395,0.5395,0.5395,0.5395,0.5395,0.5395,0.5395,0.5395,0.5395,0.5395,0.5395,0.5395,0.5395,0.5354,0.5284,0.5203,0.5066,0.4942,0.4836,0.4694,0.4566,0.4505,0.4491,0.4491,0.4491,0.4491,0.4491,0.4491,0.4491,0.4491,0.4491,0.4491,0.4491,0.4491,0.4491,0.4491,0.4491,0.4491,0.4491,0.4491,0.4491,0.4491,0.4491,0.4491,0.4491,0.4491,0.4491,0.4491,0.4491,0.4491,0.4491,0.4491,0.4491,0.4491,0.4491,0.4491,0.4491,0.4491,0.4491,0.4491,0.4491,0.4491,0.4491,0.4491,0.4491,0.4491,0.4491,0.4491,0.4491,0.4491,0.4491,0.4491,0.4491,0.4491,0.4491,0.4491,0.4491,0.4491,0.4491,0.4491,0.4574,0.4656,0.4791,0.4928,0.5101,0.881,0.8669,0.8075,0.7305,0.6435,0.588,0.5487,0.5226,0.5324,0.5428,0.5395,0.5395,0.5395,0.5395,0.5395,0.5395,0.5395,0.5395,0.5395,0.5395,0.5395,0.5395,0.5395,0.5395,0.5395,0.5395,0.5395,0.5395,0.5395,0.5395,0.5395,0.5395,0.5395,0.5395,0.5395,0.5395,0.5395,0.5395,0.5395,0.5395,0.5395,0.5395,0.5395,0.5395,0.5382,0.5287,0.5199,0.5063,0.4969,0.4772,0.46,0.4515,0.4491,0.4491,0.4491,0.4491,0.4491,0.4491,0.4491,0.4491,0.4491,0.4491,0.4491,0.4491,0.4491,0.4491,0.4491,0.4491,0.4491,0.4491,0.4491,0.4491,0.4491,0.4491,0.4491,0.4491,0.4491,0.4491,0.4491,0.4491,0.4491,0.4491,0.4491,0.4491,0.4491,0.4491,0.4491,0.4491,0.4491,0.4491,0.4491,0.4491,0.4491,0.4491,0.4491,0.4491,0.4491,0.4491,0.4491,0.4491,0.4491,0.4491,0.4491,0.4491,0.4491,0.4491,0.4491,0.4491,0.4491,0.4491,0.4546,0.4629,0.4818,0.4956,0.5101,0.9476,0.9382,0.8281,0.7561,0.7116,0.6249,0.5646,0.5414,0.5484,0.5521,0.5425,0.5395,0.5395,0.5395,0.5395,0.5395,0.5395,0.5395,0.5395,0.5395,0.5395,0.5395,0.5395,0.5395,0.5395,0.5395,0.5395,0.5395,0.5395,0.5395,0.5395,0.5395,0.5395,0.5395,0.5395,0.5395,0.5395,0.5395,0.5395,0.5395,0.5395,0.5395,0.5395,0.5395,0.5392,0.5375,0.5294,0.5157,0.5015,0.4853,0.4651,0.4528,0.4491,0.4491,0.4491,0.4491,0.4491,0.4491,0.4491,0.4491,0.4491,0.4491,0.4491,0.4491,0.4491,0.4491,0.4491,0.4491,0.4491,0.4491,0.4491,0.4491,0.4491,0.4491,0.4491,0.4491,0.4491,0.4491,0.4491,0.4491,0.4491,0.4491,0.4491,0.4491,0.4491,0.4491,0.4491,0.4491,0.4491,0.4491,0.4491,0.4491,0.4491,0.4491,0.4491,0.4491,0.4491,0.4491,0.4491,0.4491,0.4491,0.4491,0.4491,0.4491,0.4491,0.4491,0.4491,0.4491,0.4491,0.4491,0.4519,0.4601,0.4791,0.4959,0.5101]}]]